<?xml version="1.0" encoding="UTF-8" standalone="no" ?>
<gpx xmlns="http://www.topografix.com/GPX/1/1" xmlns:xsi="http://www.w3.org/2001/XMLSchema-instance" xsi:schemaLocation="http://www.topografix.com/GPX/1/1 http://www.topografix.com/GPX/1/1/gpx.xsd" version="1.1" creator="VisuGPX - https://www.visugpx.com">
  <metadata>
    <name>Randonnée des 2 ponts Podensac 08-06-2013</name>
    <desc><![CDATA[Randonnée pedestre du 08 juin 2013 départ de Podensac  donnée pour 40 km .]]></desc>
  </metadata>
  <trk>
    <name><![CDATA[Randonnée des 2 ponts 8 juin 2013]]></name>
    <trkseg>
      <trkpt lat="44.654" lon="-0.35694">
        <ele>6.87</ele>
        <time>2013-06-08T06:03:59Z</time>
      </trkpt>
      <trkpt lat="44.65403" lon="-0.3569">
        <ele>6.87</ele>
        <time>2013-06-08T06:04:02Z</time>
      </trkpt>
      <trkpt lat="44.65427" lon="-0.35656">
        <ele>5.42</ele>
        <time>2013-06-08T06:04:27Z</time>
      </trkpt>
      <trkpt lat="44.6545" lon="-0.35626">
        <ele>5.91</ele>
        <time>2013-06-08T06:04:46Z</time>
      </trkpt>
      <trkpt lat="44.65469" lon="-0.35591">
        <ele>4.46</ele>
        <time>2013-06-08T06:05:07Z</time>
      </trkpt>
      <trkpt lat="44.65494" lon="-0.35552">
        <ele>3.02</ele>
        <time>2013-06-08T06:05:31Z</time>
      </trkpt>
      <trkpt lat="44.65494" lon="-0.3555">
        <ele>3.02</ele>
        <time>2013-06-08T06:05:32Z</time>
      </trkpt>
      <trkpt lat="44.65492" lon="-0.35543">
        <ele>3.02</ele>
        <time>2013-06-08T06:05:36Z</time>
      </trkpt>
      <trkpt lat="44.65474" lon="-0.35526">
        <ele>3.02</ele>
        <time>2013-06-08T06:05:52Z</time>
      </trkpt>
      <trkpt lat="44.6545" lon="-0.35504">
        <ele>3.5</ele>
        <time>2013-06-08T06:06:11Z</time>
      </trkpt>
      <trkpt lat="44.65426" lon="-0.35479">
        <ele>3.02</ele>
        <time>2013-06-08T06:06:30Z</time>
      </trkpt>
      <trkpt lat="44.65401" lon="-0.35452">
        <ele>3.02</ele>
        <time>2013-06-08T06:06:51Z</time>
      </trkpt>
      <trkpt lat="44.65376" lon="-0.35428">
        <ele>3.5</ele>
        <time>2013-06-08T06:07:11Z</time>
      </trkpt>
      <trkpt lat="44.65356" lon="-0.35405">
        <ele>3.02</ele>
        <time>2013-06-08T06:07:29Z</time>
      </trkpt>
      <trkpt lat="44.65334" lon="-0.35382">
        <ele>3.98</ele>
        <time>2013-06-08T06:07:48Z</time>
      </trkpt>
      <trkpt lat="44.65308" lon="-0.35355">
        <ele>3.98</ele>
        <time>2013-06-08T06:08:07Z</time>
      </trkpt>
      <trkpt lat="44.65287" lon="-0.35336">
        <ele>3.98</ele>
        <time>2013-06-08T06:08:23Z</time>
      </trkpt>
      <trkpt lat="44.65266" lon="-0.35313">
        <ele>3.98</ele>
        <time>2013-06-08T06:08:41Z</time>
      </trkpt>
      <trkpt lat="44.65239" lon="-0.35288">
        <ele>3.98</ele>
        <time>2013-06-08T06:09:01Z</time>
      </trkpt>
      <trkpt lat="44.65216" lon="-0.35267">
        <ele>3.98</ele>
        <time>2013-06-08T06:09:19Z</time>
      </trkpt>
      <trkpt lat="44.65191" lon="-0.35244">
        <ele>4.46</ele>
        <time>2013-06-08T06:09:38Z</time>
      </trkpt>
      <trkpt lat="44.65164" lon="-0.35207">
        <ele>4.94</ele>
        <time>2013-06-08T06:10:03Z</time>
      </trkpt>
      <trkpt lat="44.65137" lon="-0.35179">
        <ele>5.42</ele>
        <time>2013-06-08T06:10:25Z</time>
      </trkpt>
      <trkpt lat="44.65117" lon="-0.35151">
        <ele>5.42</ele>
        <time>2013-06-08T06:10:43Z</time>
      </trkpt>
      <trkpt lat="44.65097" lon="-0.35118">
        <ele>4.94</ele>
        <time>2013-06-08T06:11:04Z</time>
      </trkpt>
      <trkpt lat="44.65075" lon="-0.35084">
        <ele>4.94</ele>
        <time>2013-06-08T06:11:23Z</time>
      </trkpt>
      <trkpt lat="44.65056" lon="-0.35045">
        <ele>4.46</ele>
        <time>2013-06-08T06:11:44Z</time>
      </trkpt>
      <trkpt lat="44.6504" lon="-0.35003">
        <ele>4.46</ele>
        <time>2013-06-08T06:12:06Z</time>
      </trkpt>
      <trkpt lat="44.65022" lon="-0.34972">
        <ele>4.46</ele>
        <time>2013-06-08T06:12:23Z</time>
      </trkpt>
      <trkpt lat="44.65002" lon="-0.34942">
        <ele>4.46</ele>
        <time>2013-06-08T06:12:42Z</time>
      </trkpt>
      <trkpt lat="44.64981" lon="-0.34905">
        <ele>3.5</ele>
        <time>2013-06-08T06:13:02Z</time>
      </trkpt>
      <trkpt lat="44.64961" lon="-0.3487">
        <ele>4.46</ele>
        <time>2013-06-08T06:13:24Z</time>
      </trkpt>
      <trkpt lat="44.6494" lon="-0.34842">
        <ele>3.5</ele>
        <time>2013-06-08T06:13:41Z</time>
      </trkpt>
      <trkpt lat="44.64914" lon="-0.34816">
        <ele>4.46</ele>
        <time>2013-06-08T06:14:02Z</time>
      </trkpt>
      <trkpt lat="44.6489" lon="-0.34782">
        <ele>3.5</ele>
        <time>2013-06-08T06:14:26Z</time>
      </trkpt>
      <trkpt lat="44.64872" lon="-0.34751">
        <ele>3.5</ele>
        <time>2013-06-08T06:14:44Z</time>
      </trkpt>
      <trkpt lat="44.64856" lon="-0.34715">
        <ele>3.5</ele>
        <time>2013-06-08T06:15:01Z</time>
      </trkpt>
      <trkpt lat="44.64837" lon="-0.34684">
        <ele>3.02</ele>
        <time>2013-06-08T06:15:20Z</time>
      </trkpt>
      <trkpt lat="44.64815" lon="-0.34656">
        <ele>3.02</ele>
        <time>2013-06-08T06:15:39Z</time>
      </trkpt>
      <trkpt lat="44.64798" lon="-0.34618">
        <ele>3.98</ele>
        <time>2013-06-08T06:15:59Z</time>
      </trkpt>
      <trkpt lat="44.64785" lon="-0.34587">
        <ele>3.02</ele>
        <time>2013-06-08T06:16:17Z</time>
      </trkpt>
      <trkpt lat="44.64764" lon="-0.34547">
        <ele>3.98</ele>
        <time>2013-06-08T06:16:38Z</time>
      </trkpt>
      <trkpt lat="44.64754" lon="-0.34513">
        <ele>3.5</ele>
        <time>2013-06-08T06:16:54Z</time>
      </trkpt>
      <trkpt lat="44.6474" lon="-0.34484">
        <ele>3.5</ele>
        <time>2013-06-08T06:17:09Z</time>
      </trkpt>
      <trkpt lat="44.64725" lon="-0.34458">
        <ele>3.5</ele>
        <time>2013-06-08T06:17:24Z</time>
      </trkpt>
      <trkpt lat="44.64706" lon="-0.34427">
        <ele>3.5</ele>
        <time>2013-06-08T06:17:44Z</time>
      </trkpt>
      <trkpt lat="44.64693" lon="-0.34403">
        <ele>3.98</ele>
        <time>2013-06-08T06:17:58Z</time>
      </trkpt>
      <trkpt lat="44.64676" lon="-0.34361">
        <ele>3.98</ele>
        <time>2013-06-08T06:18:19Z</time>
      </trkpt>
      <trkpt lat="44.64657" lon="-0.34327">
        <ele>3.98</ele>
        <time>2013-06-08T06:18:37Z</time>
      </trkpt>
      <trkpt lat="44.64637" lon="-0.34282">
        <ele>3.98</ele>
        <time>2013-06-08T06:19:00Z</time>
      </trkpt>
      <trkpt lat="44.64612" lon="-0.34248">
        <ele>3.98</ele>
        <time>2013-06-08T06:19:20Z</time>
      </trkpt>
      <trkpt lat="44.64597" lon="-0.34225">
        <ele>6.39</ele>
        <time>2013-06-08T06:19:34Z</time>
      </trkpt>
      <trkpt lat="44.64586" lon="-0.34197">
        <ele>8.31</ele>
        <time>2013-06-08T06:19:49Z</time>
      </trkpt>
      <trkpt lat="44.64594" lon="-0.34159">
        <ele>7.83</ele>
        <time>2013-06-08T06:20:04Z</time>
      </trkpt>
      <trkpt lat="44.64603" lon="-0.34116">
        <ele>7.35</ele>
        <time>2013-06-08T06:20:22Z</time>
      </trkpt>
      <trkpt lat="44.64614" lon="-0.34075">
        <ele>8.31</ele>
        <time>2013-06-08T06:20:41Z</time>
      </trkpt>
      <trkpt lat="44.64625" lon="-0.34042">
        <ele>7.83</ele>
        <time>2013-06-08T06:20:57Z</time>
      </trkpt>
      <trkpt lat="44.64637" lon="-0.34005">
        <ele>7.83</ele>
        <time>2013-06-08T06:21:15Z</time>
      </trkpt>
      <trkpt lat="44.64647" lon="-0.33967">
        <ele>7.83</ele>
        <time>2013-06-08T06:21:33Z</time>
      </trkpt>
      <trkpt lat="44.64658" lon="-0.33925">
        <ele>9.27</ele>
        <time>2013-06-08T06:21:52Z</time>
      </trkpt>
      <trkpt lat="44.6467" lon="-0.33881">
        <ele>9.27</ele>
        <time>2013-06-08T06:22:12Z</time>
      </trkpt>
      <trkpt lat="44.64682" lon="-0.33846">
        <ele>9.27</ele>
        <time>2013-06-08T06:22:29Z</time>
      </trkpt>
      <trkpt lat="44.64695" lon="-0.33805">
        <ele>8.79</ele>
        <time>2013-06-08T06:22:48Z</time>
      </trkpt>
      <trkpt lat="44.64707" lon="-0.33762">
        <ele>9.27</ele>
        <time>2013-06-08T06:23:07Z</time>
      </trkpt>
      <trkpt lat="44.64722" lon="-0.33722">
        <ele>10.23</ele>
        <time>2013-06-08T06:23:27Z</time>
      </trkpt>
      <trkpt lat="44.64736" lon="-0.33693">
        <ele>11.19</ele>
        <time>2013-06-08T06:23:43Z</time>
      </trkpt>
      <trkpt lat="44.64751" lon="-0.33666">
        <ele>12.63</ele>
        <time>2013-06-08T06:23:59Z</time>
      </trkpt>
      <trkpt lat="44.64765" lon="-0.33632">
        <ele>13.12</ele>
        <time>2013-06-08T06:24:17Z</time>
      </trkpt>
      <trkpt lat="44.6478" lon="-0.336">
        <ele>13.12</ele>
        <time>2013-06-08T06:24:34Z</time>
      </trkpt>
      <trkpt lat="44.64793" lon="-0.33565">
        <ele>13.6</ele>
        <time>2013-06-08T06:24:48Z</time>
      </trkpt>
      <trkpt lat="44.64797" lon="-0.33554">
        <ele>15.04</ele>
        <time>2013-06-08T06:24:53Z</time>
      </trkpt>
      <trkpt lat="44.6481" lon="-0.33523">
        <ele>15.52</ele>
        <time>2013-06-08T06:25:11Z</time>
      </trkpt>
      <trkpt lat="44.64813" lon="-0.33522">
        <ele>15.52</ele>
        <time>2013-06-08T06:25:17Z</time>
      </trkpt>
      <trkpt lat="44.64828" lon="-0.33491">
        <ele>16</ele>
        <time>2013-06-08T06:25:34Z</time>
      </trkpt>
      <trkpt lat="44.6483" lon="-0.33488">
        <ele>16.96</ele>
        <time>2013-06-08T06:25:36Z</time>
      </trkpt>
      <trkpt lat="44.64847" lon="-0.33449">
        <ele>16.48</ele>
        <time>2013-06-08T06:25:55Z</time>
      </trkpt>
      <trkpt lat="44.64864" lon="-0.33413">
        <ele>16.48</ele>
        <time>2013-06-08T06:26:13Z</time>
      </trkpt>
      <trkpt lat="44.6488" lon="-0.33378">
        <ele>17.44</ele>
        <time>2013-06-08T06:26:31Z</time>
      </trkpt>
      <trkpt lat="44.64897" lon="-0.33345">
        <ele>17.44</ele>
        <time>2013-06-08T06:26:48Z</time>
      </trkpt>
      <trkpt lat="44.64912" lon="-0.33315">
        <ele>17.44</ele>
        <time>2013-06-08T06:27:04Z</time>
      </trkpt>
      <trkpt lat="44.64924" lon="-0.33282">
        <ele>17.92</ele>
        <time>2013-06-08T06:27:19Z</time>
      </trkpt>
      <trkpt lat="44.64934" lon="-0.33258">
        <ele>17.92</ele>
        <time>2013-06-08T06:27:31Z</time>
      </trkpt>
      <trkpt lat="44.64948" lon="-0.33231">
        <ele>17.92</ele>
        <time>2013-06-08T06:27:45Z</time>
      </trkpt>
      <trkpt lat="44.64968" lon="-0.33197">
        <ele>18.88</ele>
        <time>2013-06-08T06:28:04Z</time>
      </trkpt>
      <trkpt lat="44.64985" lon="-0.33168">
        <ele>19.36</ele>
        <time>2013-06-08T06:28:20Z</time>
      </trkpt>
      <trkpt lat="44.65001" lon="-0.33136">
        <ele>20.81</ele>
        <time>2013-06-08T06:28:37Z</time>
      </trkpt>
      <trkpt lat="44.65024" lon="-0.33141">
        <ele>21.29</ele>
        <time>2013-06-08T06:28:52Z</time>
      </trkpt>
      <trkpt lat="44.6504" lon="-0.33133">
        <ele>20.81</ele>
        <time>2013-06-08T06:29:04Z</time>
      </trkpt>
      <trkpt lat="44.65064" lon="-0.33096">
        <ele>20.81</ele>
        <time>2013-06-08T06:29:26Z</time>
      </trkpt>
      <trkpt lat="44.65087" lon="-0.33072">
        <ele>20.32</ele>
        <time>2013-06-08T06:29:44Z</time>
      </trkpt>
      <trkpt lat="44.65104" lon="-0.33039">
        <ele>20.81</ele>
        <time>2013-06-08T06:30:02Z</time>
      </trkpt>
      <trkpt lat="44.65123" lon="-0.33005">
        <ele>21.29</ele>
        <time>2013-06-08T06:30:21Z</time>
      </trkpt>
      <trkpt lat="44.65149" lon="-0.32978">
        <ele>20.32</ele>
        <time>2013-06-08T06:30:40Z</time>
      </trkpt>
      <trkpt lat="44.65172" lon="-0.32946">
        <ele>20.81</ele>
        <time>2013-06-08T06:31:00Z</time>
      </trkpt>
      <trkpt lat="44.65183" lon="-0.32925">
        <ele>20.81</ele>
        <time>2013-06-08T06:31:12Z</time>
      </trkpt>
      <trkpt lat="44.65188" lon="-0.32919">
        <ele>19.84</ele>
        <time>2013-06-08T06:31:16Z</time>
      </trkpt>
      <trkpt lat="44.65193" lon="-0.32921">
        <ele>20.81</ele>
        <time>2013-06-08T06:31:20Z</time>
      </trkpt>
      <trkpt lat="44.65219" lon="-0.32951">
        <ele>20.32</ele>
        <time>2013-06-08T06:31:40Z</time>
      </trkpt>
      <trkpt lat="44.65245" lon="-0.32981">
        <ele>20.81</ele>
        <time>2013-06-08T06:32:00Z</time>
      </trkpt>
      <trkpt lat="44.65266" lon="-0.33011">
        <ele>20.32</ele>
        <time>2013-06-08T06:32:18Z</time>
      </trkpt>
      <trkpt lat="44.65286" lon="-0.33043">
        <ele>21.29</ele>
        <time>2013-06-08T06:32:37Z</time>
      </trkpt>
      <trkpt lat="44.65308" lon="-0.33074">
        <ele>20.32</ele>
        <time>2013-06-08T06:32:56Z</time>
      </trkpt>
      <trkpt lat="44.6533" lon="-0.33109">
        <ele>20.81</ele>
        <time>2013-06-08T06:33:16Z</time>
      </trkpt>
      <trkpt lat="44.65351" lon="-0.33144">
        <ele>20.81</ele>
        <time>2013-06-08T06:33:36Z</time>
      </trkpt>
      <trkpt lat="44.65375" lon="-0.33178">
        <ele>21.29</ele>
        <time>2013-06-08T06:33:56Z</time>
      </trkpt>
      <trkpt lat="44.65399" lon="-0.33205">
        <ele>21.29</ele>
        <time>2013-06-08T06:34:14Z</time>
      </trkpt>
      <trkpt lat="44.65422" lon="-0.3323">
        <ele>20.81</ele>
        <time>2013-06-08T06:34:32Z</time>
      </trkpt>
      <trkpt lat="44.65429" lon="-0.33238">
        <ele>20.32</ele>
        <time>2013-06-08T06:34:38Z</time>
      </trkpt>
      <trkpt lat="44.65444" lon="-0.33253">
        <ele>20.81</ele>
        <time>2013-06-08T06:34:50Z</time>
      </trkpt>
      <trkpt lat="44.65441" lon="-0.33263">
        <ele>19.84</ele>
        <time>2013-06-08T06:34:54Z</time>
      </trkpt>
      <trkpt lat="44.65421" lon="-0.33296">
        <ele>19.84</ele>
        <time>2013-06-08T06:35:12Z</time>
      </trkpt>
      <trkpt lat="44.65406" lon="-0.33321">
        <ele>20.32</ele>
        <time>2013-06-08T06:35:26Z</time>
      </trkpt>
      <trkpt lat="44.6539" lon="-0.33349">
        <ele>19.84</ele>
        <time>2013-06-08T06:35:41Z</time>
      </trkpt>
      <trkpt lat="44.65383" lon="-0.33369">
        <ele>19.84</ele>
        <time>2013-06-08T06:35:52Z</time>
      </trkpt>
      <trkpt lat="44.65406" lon="-0.33394">
        <ele>19.84</ele>
        <time>2013-06-08T06:36:09Z</time>
      </trkpt>
      <trkpt lat="44.65409" lon="-0.33418">
        <ele>20.32</ele>
        <time>2013-06-08T06:36:23Z</time>
      </trkpt>
      <trkpt lat="44.65393" lon="-0.33445">
        <ele>19.84</ele>
        <time>2013-06-08T06:36:37Z</time>
      </trkpt>
      <trkpt lat="44.65371" lon="-0.33483">
        <ele>20.32</ele>
        <time>2013-06-08T06:36:56Z</time>
      </trkpt>
      <trkpt lat="44.65353" lon="-0.33504">
        <ele>19.84</ele>
        <time>2013-06-08T06:37:11Z</time>
      </trkpt>
      <trkpt lat="44.65335" lon="-0.33529">
        <ele>19.84</ele>
        <time>2013-06-08T06:37:24Z</time>
      </trkpt>
      <trkpt lat="44.65317" lon="-0.33549">
        <ele>19.84</ele>
        <time>2013-06-08T06:37:37Z</time>
      </trkpt>
      <trkpt lat="44.65297" lon="-0.33572">
        <ele>19.36</ele>
        <time>2013-06-08T06:37:52Z</time>
      </trkpt>
      <trkpt lat="44.65277" lon="-0.33589">
        <ele>18.88</ele>
        <time>2013-06-08T06:38:06Z</time>
      </trkpt>
      <trkpt lat="44.65252" lon="-0.33593">
        <ele>16.96</ele>
        <time>2013-06-08T06:38:21Z</time>
      </trkpt>
      <trkpt lat="44.65226" lon="-0.33592">
        <ele>14.56</ele>
        <time>2013-06-08T06:38:36Z</time>
      </trkpt>
      <trkpt lat="44.65205" lon="-0.33589">
        <ele>14.08</ele>
        <time>2013-06-08T06:38:49Z</time>
      </trkpt>
      <trkpt lat="44.65185" lon="-0.33601">
        <ele>12.63</ele>
        <time>2013-06-08T06:39:03Z</time>
      </trkpt>
      <trkpt lat="44.65161" lon="-0.33626">
        <ele>10.71</ele>
        <time>2013-06-08T06:39:20Z</time>
      </trkpt>
      <trkpt lat="44.6516" lon="-0.33626">
        <ele>11.19</ele>
        <time>2013-06-08T06:39:21Z</time>
      </trkpt>
      <trkpt lat="44.65158" lon="-0.33626">
        <ele>10.71</ele>
        <time>2013-06-08T06:39:22Z</time>
      </trkpt>
      <trkpt lat="44.65144" lon="-0.33625">
        <ele>9.27</ele>
        <time>2013-06-08T06:39:31Z</time>
      </trkpt>
      <trkpt lat="44.65142" lon="-0.33624">
        <ele>9.27</ele>
        <time>2013-06-08T06:39:32Z</time>
      </trkpt>
      <trkpt lat="44.65141" lon="-0.33623">
        <ele>8.79</ele>
        <time>2013-06-08T06:39:33Z</time>
      </trkpt>
      <trkpt lat="44.65139" lon="-0.33622">
        <ele>9.27</ele>
        <time>2013-06-08T06:39:34Z</time>
      </trkpt>
      <trkpt lat="44.65137" lon="-0.33621">
        <ele>8.79</ele>
        <time>2013-06-08T06:39:35Z</time>
      </trkpt>
      <trkpt lat="44.65136" lon="-0.33619">
        <ele>8.79</ele>
        <time>2013-06-08T06:39:36Z</time>
      </trkpt>
      <trkpt lat="44.6513" lon="-0.33621">
        <ele>7.35</ele>
        <time>2013-06-08T06:39:44Z</time>
      </trkpt>
      <trkpt lat="44.65131" lon="-0.33623">
        <ele>6.87</ele>
        <time>2013-06-08T06:39:45Z</time>
      </trkpt>
      <trkpt lat="44.65159" lon="-0.33659">
        <ele>7.35</ele>
        <time>2013-06-08T06:40:06Z</time>
      </trkpt>
      <trkpt lat="44.65174" lon="-0.3369">
        <ele>6.39</ele>
        <time>2013-06-08T06:40:23Z</time>
      </trkpt>
      <trkpt lat="44.65193" lon="-0.33724">
        <ele>7.35</ele>
        <time>2013-06-08T06:40:41Z</time>
      </trkpt>
      <trkpt lat="44.65211" lon="-0.33756">
        <ele>7.35</ele>
        <time>2013-06-08T06:40:59Z</time>
      </trkpt>
      <trkpt lat="44.65228" lon="-0.33792">
        <ele>7.35</ele>
        <time>2013-06-08T06:41:17Z</time>
      </trkpt>
      <trkpt lat="44.65244" lon="-0.33821">
        <ele>6.39</ele>
        <time>2013-06-08T06:41:34Z</time>
      </trkpt>
      <trkpt lat="44.65268" lon="-0.3386">
        <ele>8.79</ele>
        <time>2013-06-08T06:41:54Z</time>
      </trkpt>
      <trkpt lat="44.65283" lon="-0.33894">
        <ele>8.79</ele>
        <time>2013-06-08T06:42:13Z</time>
      </trkpt>
      <trkpt lat="44.65295" lon="-0.33928">
        <ele>7.35</ele>
        <time>2013-06-08T06:42:30Z</time>
      </trkpt>
      <trkpt lat="44.65313" lon="-0.33958">
        <ele>6.87</ele>
        <time>2013-06-08T06:42:47Z</time>
      </trkpt>
      <trkpt lat="44.65334" lon="-0.33986">
        <ele>7.83</ele>
        <time>2013-06-08T06:43:06Z</time>
      </trkpt>
      <trkpt lat="44.65354" lon="-0.34015">
        <ele>7.83</ele>
        <time>2013-06-08T06:43:23Z</time>
      </trkpt>
      <trkpt lat="44.65376" lon="-0.34049">
        <ele>7.35</ele>
        <time>2013-06-08T06:43:44Z</time>
      </trkpt>
      <trkpt lat="44.65401" lon="-0.34087">
        <ele>7.35</ele>
        <time>2013-06-08T06:44:04Z</time>
      </trkpt>
      <trkpt lat="44.65422" lon="-0.34119">
        <ele>6.39</ele>
        <time>2013-06-08T06:44:24Z</time>
      </trkpt>
      <trkpt lat="44.65428" lon="-0.34129">
        <ele>6.87</ele>
        <time>2013-06-08T06:44:30Z</time>
      </trkpt>
      <trkpt lat="44.65455" lon="-0.34159">
        <ele>9.27</ele>
        <time>2013-06-08T06:44:51Z</time>
      </trkpt>
      <trkpt lat="44.65485" lon="-0.3417">
        <ele>10.23</ele>
        <time>2013-06-08T06:45:13Z</time>
      </trkpt>
      <trkpt lat="44.65513" lon="-0.34193">
        <ele>12.15</ele>
        <time>2013-06-08T06:45:33Z</time>
      </trkpt>
      <trkpt lat="44.65541" lon="-0.34213">
        <ele>12.15</ele>
        <time>2013-06-08T06:45:54Z</time>
      </trkpt>
      <trkpt lat="44.65548" lon="-0.34222">
        <ele>13.6</ele>
        <time>2013-06-08T06:46:01Z</time>
      </trkpt>
      <trkpt lat="44.65554" lon="-0.34229">
        <ele>13.6</ele>
        <time>2013-06-08T06:46:05Z</time>
      </trkpt>
      <trkpt lat="44.65573" lon="-0.34269">
        <ele>14.56</ele>
        <time>2013-06-08T06:46:25Z</time>
      </trkpt>
      <trkpt lat="44.65588" lon="-0.34303">
        <ele>12.63</ele>
        <time>2013-06-08T06:46:43Z</time>
      </trkpt>
      <trkpt lat="44.6561" lon="-0.34334">
        <ele>12.15</ele>
        <time>2013-06-08T06:47:02Z</time>
      </trkpt>
      <trkpt lat="44.65634" lon="-0.34364">
        <ele>12.15</ele>
        <time>2013-06-08T06:47:20Z</time>
      </trkpt>
      <trkpt lat="44.65655" lon="-0.34392">
        <ele>11.67</ele>
        <time>2013-06-08T06:47:36Z</time>
      </trkpt>
      <trkpt lat="44.65675" lon="-0.34418">
        <ele>10.71</ele>
        <time>2013-06-08T06:47:53Z</time>
      </trkpt>
      <trkpt lat="44.65697" lon="-0.34445">
        <ele>10.71</ele>
        <time>2013-06-08T06:48:09Z</time>
      </trkpt>
      <trkpt lat="44.65718" lon="-0.34473">
        <ele>12.15</ele>
        <time>2013-06-08T06:48:28Z</time>
      </trkpt>
      <trkpt lat="44.65739" lon="-0.34499">
        <ele>12.63</ele>
        <time>2013-06-08T06:48:46Z</time>
      </trkpt>
      <trkpt lat="44.65761" lon="-0.34528">
        <ele>13.6</ele>
        <time>2013-06-08T06:49:04Z</time>
      </trkpt>
      <trkpt lat="44.65784" lon="-0.34559">
        <ele>13.6</ele>
        <time>2013-06-08T06:49:22Z</time>
      </trkpt>
      <trkpt lat="44.65805" lon="-0.34592">
        <ele>10.23</ele>
        <time>2013-06-08T06:49:40Z</time>
      </trkpt>
      <trkpt lat="44.65828" lon="-0.34625">
        <ele>10.71</ele>
        <time>2013-06-08T06:49:58Z</time>
      </trkpt>
      <trkpt lat="44.6585" lon="-0.34656">
        <ele>11.67</ele>
        <time>2013-06-08T06:50:16Z</time>
      </trkpt>
      <trkpt lat="44.65872" lon="-0.34689">
        <ele>12.15</ele>
        <time>2013-06-08T06:50:35Z</time>
      </trkpt>
      <trkpt lat="44.6589" lon="-0.34719">
        <ele>13.6</ele>
        <time>2013-06-08T06:50:53Z</time>
      </trkpt>
      <trkpt lat="44.65912" lon="-0.34751">
        <ele>13.6</ele>
        <time>2013-06-08T06:51:13Z</time>
      </trkpt>
      <trkpt lat="44.65933" lon="-0.34779">
        <ele>13.12</ele>
        <time>2013-06-08T06:51:30Z</time>
      </trkpt>
      <trkpt lat="44.6595" lon="-0.34813">
        <ele>13.6</ele>
        <time>2013-06-08T06:51:47Z</time>
      </trkpt>
      <trkpt lat="44.65966" lon="-0.3484">
        <ele>13.6</ele>
        <time>2013-06-08T06:52:01Z</time>
      </trkpt>
      <trkpt lat="44.6598" lon="-0.34873">
        <ele>13.6</ele>
        <time>2013-06-08T06:52:19Z</time>
      </trkpt>
      <trkpt lat="44.66001" lon="-0.34897">
        <ele>14.08</ele>
        <time>2013-06-08T06:52:35Z</time>
      </trkpt>
      <trkpt lat="44.66023" lon="-0.34919">
        <ele>14.08</ele>
        <time>2013-06-08T06:52:51Z</time>
      </trkpt>
      <trkpt lat="44.66051" lon="-0.34939">
        <ele>14.56</ele>
        <time>2013-06-08T06:53:08Z</time>
      </trkpt>
      <trkpt lat="44.66078" lon="-0.34962">
        <ele>15.04</ele>
        <time>2013-06-08T06:53:26Z</time>
      </trkpt>
      <trkpt lat="44.66101" lon="-0.34982">
        <ele>16</ele>
        <time>2013-06-08T06:53:42Z</time>
      </trkpt>
      <trkpt lat="44.66124" lon="-0.35002">
        <ele>15.52</ele>
        <time>2013-06-08T06:53:57Z</time>
      </trkpt>
      <trkpt lat="44.6615" lon="-0.35022">
        <ele>15.52</ele>
        <time>2013-06-08T06:54:14Z</time>
      </trkpt>
      <trkpt lat="44.66173" lon="-0.35041">
        <ele>15.52</ele>
        <time>2013-06-08T06:54:29Z</time>
      </trkpt>
      <trkpt lat="44.66185" lon="-0.35052">
        <ele>15.04</ele>
        <time>2013-06-08T06:54:39Z</time>
      </trkpt>
      <trkpt lat="44.66186" lon="-0.35051">
        <ele>14.56</ele>
        <time>2013-06-08T06:54:40Z</time>
      </trkpt>
      <trkpt lat="44.66205" lon="-0.35044">
        <ele>16</ele>
        <time>2013-06-08T06:54:58Z</time>
      </trkpt>
      <trkpt lat="44.66206" lon="-0.35045">
        <ele>16</ele>
        <time>2013-06-08T06:54:59Z</time>
      </trkpt>
      <trkpt lat="44.6623" lon="-0.35067">
        <ele>15.52</ele>
        <time>2013-06-08T06:55:16Z</time>
      </trkpt>
      <trkpt lat="44.66236" lon="-0.35075">
        <ele>16</ele>
        <time>2013-06-08T06:55:21Z</time>
      </trkpt>
      <trkpt lat="44.66235" lon="-0.35078">
        <ele>15.52</ele>
        <time>2013-06-08T06:55:22Z</time>
      </trkpt>
      <trkpt lat="44.66234" lon="-0.3508">
        <ele>16</ele>
        <time>2013-06-08T06:55:23Z</time>
      </trkpt>
      <trkpt lat="44.66233" lon="-0.35083">
        <ele>16</ele>
        <time>2013-06-08T06:55:24Z</time>
      </trkpt>
      <trkpt lat="44.66232" lon="-0.35085">
        <ele>16</ele>
        <time>2013-06-08T06:55:25Z</time>
      </trkpt>
      <trkpt lat="44.66231" lon="-0.35087">
        <ele>16</ele>
        <time>2013-06-08T06:55:26Z</time>
      </trkpt>
      <trkpt lat="44.66229" lon="-0.3509">
        <ele>16.48</ele>
        <time>2013-06-08T06:55:28Z</time>
      </trkpt>
      <trkpt lat="44.66228" lon="-0.35092">
        <ele>16.48</ele>
        <time>2013-06-08T06:55:29Z</time>
      </trkpt>
      <trkpt lat="44.66227" lon="-0.35094">
        <ele>16.48</ele>
        <time>2013-06-08T06:55:30Z</time>
      </trkpt>
      <trkpt lat="44.66223" lon="-0.35101">
        <ele>16.48</ele>
        <time>2013-06-08T06:55:34Z</time>
      </trkpt>
      <trkpt lat="44.66224" lon="-0.35103">
        <ele>16</ele>
        <time>2013-06-08T06:55:35Z</time>
      </trkpt>
      <trkpt lat="44.66226" lon="-0.35105">
        <ele>16.48</ele>
        <time>2013-06-08T06:55:36Z</time>
      </trkpt>
      <trkpt lat="44.66227" lon="-0.35106">
        <ele>16.48</ele>
        <time>2013-06-08T06:55:37Z</time>
      </trkpt>
      <trkpt lat="44.66229" lon="-0.35107">
        <ele>16.48</ele>
        <time>2013-06-08T06:55:38Z</time>
      </trkpt>
      <trkpt lat="44.6623" lon="-0.35107">
        <ele>16.48</ele>
        <time>2013-06-08T06:55:39Z</time>
      </trkpt>
      <trkpt lat="44.66255" lon="-0.35133">
        <ele>16.48</ele>
        <time>2013-06-08T06:55:56Z</time>
      </trkpt>
      <trkpt lat="44.66274" lon="-0.35154">
        <ele>16</ele>
        <time>2013-06-08T06:56:12Z</time>
      </trkpt>
      <trkpt lat="44.66278" lon="-0.35192">
        <ele>16</ele>
        <time>2013-06-08T06:56:26Z</time>
      </trkpt>
      <trkpt lat="44.66279" lon="-0.35194">
        <ele>15.52</ele>
        <time>2013-06-08T06:56:27Z</time>
      </trkpt>
      <trkpt lat="44.6628" lon="-0.35195">
        <ele>16.48</ele>
        <time>2013-06-08T06:56:28Z</time>
      </trkpt>
      <trkpt lat="44.66281" lon="-0.35197">
        <ele>16.96</ele>
        <time>2013-06-08T06:56:29Z</time>
      </trkpt>
      <trkpt lat="44.66282" lon="-0.35198">
        <ele>16.96</ele>
        <time>2013-06-08T06:56:30Z</time>
      </trkpt>
      <trkpt lat="44.66288" lon="-0.35197">
        <ele>16.48</ele>
        <time>2013-06-08T06:56:35Z</time>
      </trkpt>
      <trkpt lat="44.6629" lon="-0.35196">
        <ele>17.44</ele>
        <time>2013-06-08T06:56:36Z</time>
      </trkpt>
      <trkpt lat="44.66291" lon="-0.35196">
        <ele>17.44</ele>
        <time>2013-06-08T06:56:37Z</time>
      </trkpt>
      <trkpt lat="44.66293" lon="-0.35196">
        <ele>17.44</ele>
        <time>2013-06-08T06:56:38Z</time>
      </trkpt>
      <trkpt lat="44.66295" lon="-0.35197">
        <ele>17.92</ele>
        <time>2013-06-08T06:56:39Z</time>
      </trkpt>
      <trkpt lat="44.66296" lon="-0.35198">
        <ele>18.4</ele>
        <time>2013-06-08T06:56:40Z</time>
      </trkpt>
      <trkpt lat="44.66298" lon="-0.35199">
        <ele>17.92</ele>
        <time>2013-06-08T06:56:41Z</time>
      </trkpt>
      <trkpt lat="44.66299" lon="-0.352">
        <ele>17.92</ele>
        <time>2013-06-08T06:56:42Z</time>
      </trkpt>
      <trkpt lat="44.66301" lon="-0.35202">
        <ele>17.92</ele>
        <time>2013-06-08T06:56:43Z</time>
      </trkpt>
      <trkpt lat="44.66302" lon="-0.35204">
        <ele>17.44</ele>
        <time>2013-06-08T06:56:44Z</time>
      </trkpt>
      <trkpt lat="44.66304" lon="-0.35205">
        <ele>18.4</ele>
        <time>2013-06-08T06:56:45Z</time>
      </trkpt>
      <trkpt lat="44.66305" lon="-0.35207">
        <ele>18.4</ele>
        <time>2013-06-08T06:56:46Z</time>
      </trkpt>
      <trkpt lat="44.66306" lon="-0.35208">
        <ele>17.92</ele>
        <time>2013-06-08T06:56:47Z</time>
      </trkpt>
      <trkpt lat="44.66328" lon="-0.35226">
        <ele>18.4</ele>
        <time>2013-06-08T06:57:03Z</time>
      </trkpt>
      <trkpt lat="44.66334" lon="-0.35241">
        <ele>17.92</ele>
        <time>2013-06-08T06:57:09Z</time>
      </trkpt>
      <trkpt lat="44.66335" lon="-0.35244">
        <ele>18.4</ele>
        <time>2013-06-08T06:57:10Z</time>
      </trkpt>
      <trkpt lat="44.66336" lon="-0.35246">
        <ele>17.92</ele>
        <time>2013-06-08T06:57:11Z</time>
      </trkpt>
      <trkpt lat="44.66336" lon="-0.35248">
        <ele>17.92</ele>
        <time>2013-06-08T06:57:12Z</time>
      </trkpt>
      <trkpt lat="44.66335" lon="-0.3525">
        <ele>18.4</ele>
        <time>2013-06-08T06:57:13Z</time>
      </trkpt>
      <trkpt lat="44.66335" lon="-0.35252">
        <ele>17.92</ele>
        <time>2013-06-08T06:57:14Z</time>
      </trkpt>
      <trkpt lat="44.66336" lon="-0.35254">
        <ele>18.4</ele>
        <time>2013-06-08T06:57:15Z</time>
      </trkpt>
      <trkpt lat="44.66337" lon="-0.35256">
        <ele>18.4</ele>
        <time>2013-06-08T06:57:16Z</time>
      </trkpt>
      <trkpt lat="44.66338" lon="-0.35257">
        <ele>17.92</ele>
        <time>2013-06-08T06:57:17Z</time>
      </trkpt>
      <trkpt lat="44.66339" lon="-0.35259">
        <ele>17.44</ele>
        <time>2013-06-08T06:57:18Z</time>
      </trkpt>
      <trkpt lat="44.66341" lon="-0.3526">
        <ele>17.92</ele>
        <time>2013-06-08T06:57:19Z</time>
      </trkpt>
      <trkpt lat="44.66342" lon="-0.35261">
        <ele>17.92</ele>
        <time>2013-06-08T06:57:20Z</time>
      </trkpt>
      <trkpt lat="44.6635" lon="-0.35268">
        <ele>18.4</ele>
        <time>2013-06-08T06:57:26Z</time>
      </trkpt>
      <trkpt lat="44.66368" lon="-0.35277">
        <ele>18.4</ele>
        <time>2013-06-08T06:57:40Z</time>
      </trkpt>
      <trkpt lat="44.66394" lon="-0.35298">
        <ele>17.92</ele>
        <time>2013-06-08T06:57:58Z</time>
      </trkpt>
      <trkpt lat="44.66404" lon="-0.35305">
        <ele>17.92</ele>
        <time>2013-06-08T06:58:04Z</time>
      </trkpt>
      <trkpt lat="44.66404" lon="-0.35334">
        <ele>16.48</ele>
        <time>2013-06-08T06:58:16Z</time>
      </trkpt>
      <trkpt lat="44.66404" lon="-0.35336">
        <ele>16.48</ele>
        <time>2013-06-08T06:58:17Z</time>
      </trkpt>
      <trkpt lat="44.66431" lon="-0.35344">
        <ele>16</ele>
        <time>2013-06-08T06:58:36Z</time>
      </trkpt>
      <trkpt lat="44.66433" lon="-0.35345">
        <ele>16</ele>
        <time>2013-06-08T06:58:37Z</time>
      </trkpt>
      <trkpt lat="44.66441" lon="-0.35343">
        <ele>16.96</ele>
        <time>2013-06-08T06:58:44Z</time>
      </trkpt>
      <trkpt lat="44.66448" lon="-0.35303">
        <ele>17.44</ele>
        <time>2013-06-08T06:59:02Z</time>
      </trkpt>
      <trkpt lat="44.66452" lon="-0.35293">
        <ele>16.96</ele>
        <time>2013-06-08T06:59:08Z</time>
      </trkpt>
      <trkpt lat="44.6646" lon="-0.35251">
        <ele>17.44</ele>
        <time>2013-06-08T06:59:26Z</time>
      </trkpt>
      <trkpt lat="44.66462" lon="-0.3525">
        <ele>17.44</ele>
        <time>2013-06-08T06:59:27Z</time>
      </trkpt>
      <trkpt lat="44.66463" lon="-0.35249">
        <ele>17.92</ele>
        <time>2013-06-08T06:59:28Z</time>
      </trkpt>
      <trkpt lat="44.66464" lon="-0.35248">
        <ele>17.44</ele>
        <time>2013-06-08T06:59:29Z</time>
      </trkpt>
      <trkpt lat="44.66465" lon="-0.35247">
        <ele>17.44</ele>
        <time>2013-06-08T06:59:30Z</time>
      </trkpt>
      <trkpt lat="44.66472" lon="-0.35214">
        <ele>17.92</ele>
        <time>2013-06-08T06:59:44Z</time>
      </trkpt>
      <trkpt lat="44.66472" lon="-0.35175">
        <ele>18.4</ele>
        <time>2013-06-08T07:00:01Z</time>
      </trkpt>
      <trkpt lat="44.6647" lon="-0.35143">
        <ele>17.92</ele>
        <time>2013-06-08T07:00:16Z</time>
      </trkpt>
      <trkpt lat="44.66467" lon="-0.35133">
        <ele>17.92</ele>
        <time>2013-06-08T07:00:23Z</time>
      </trkpt>
      <trkpt lat="44.66465" lon="-0.35131">
        <ele>17.92</ele>
        <time>2013-06-08T07:00:24Z</time>
      </trkpt>
      <trkpt lat="44.66458" lon="-0.35125">
        <ele>17.92</ele>
        <time>2013-06-08T07:00:28Z</time>
      </trkpt>
      <trkpt lat="44.66456" lon="-0.35123">
        <ele>18.4</ele>
        <time>2013-06-08T07:00:29Z</time>
      </trkpt>
      <trkpt lat="44.66453" lon="-0.35086">
        <ele>17.44</ele>
        <time>2013-06-08T07:00:42Z</time>
      </trkpt>
      <trkpt lat="44.66473" lon="-0.3505">
        <ele>17.44</ele>
        <time>2013-06-08T07:00:59Z</time>
      </trkpt>
      <trkpt lat="44.66492" lon="-0.35008">
        <ele>17.92</ele>
        <time>2013-06-08T07:01:20Z</time>
      </trkpt>
      <trkpt lat="44.66509" lon="-0.34969">
        <ele>18.4</ele>
        <time>2013-06-08T07:01:39Z</time>
      </trkpt>
      <trkpt lat="44.66527" lon="-0.34937">
        <ele>18.88</ele>
        <time>2013-06-08T07:01:56Z</time>
      </trkpt>
      <trkpt lat="44.6654" lon="-0.34922">
        <ele>18.88</ele>
        <time>2013-06-08T07:02:13Z</time>
      </trkpt>
      <trkpt lat="44.66544" lon="-0.34904">
        <ele>19.36</ele>
        <time>2013-06-08T07:02:39Z</time>
      </trkpt>
      <trkpt lat="44.66554" lon="-0.34888">
        <ele>19.36</ele>
        <time>2013-06-08T07:02:52Z</time>
      </trkpt>
      <trkpt lat="44.66558" lon="-0.3489">
        <ele>19.84</ele>
        <time>2013-06-08T07:02:56Z</time>
      </trkpt>
      <trkpt lat="44.66574" lon="-0.34884">
        <ele>19.84</ele>
        <time>2013-06-08T07:03:06Z</time>
      </trkpt>
      <trkpt lat="44.66574" lon="-0.34882">
        <ele>19.36</ele>
        <time>2013-06-08T07:03:07Z</time>
      </trkpt>
      <trkpt lat="44.66573" lon="-0.34879">
        <ele>19.36</ele>
        <time>2013-06-08T07:03:08Z</time>
      </trkpt>
      <trkpt lat="44.66574" lon="-0.34876">
        <ele>19.36</ele>
        <time>2013-06-08T07:03:09Z</time>
      </trkpt>
      <trkpt lat="44.66574" lon="-0.34873">
        <ele>19.36</ele>
        <time>2013-06-08T07:03:10Z</time>
      </trkpt>
      <trkpt lat="44.66575" lon="-0.3487">
        <ele>19.36</ele>
        <time>2013-06-08T07:03:11Z</time>
      </trkpt>
      <trkpt lat="44.66594" lon="-0.34837">
        <ele>20.32</ele>
        <time>2013-06-08T07:03:29Z</time>
      </trkpt>
      <trkpt lat="44.66612" lon="-0.34804">
        <ele>20.81</ele>
        <time>2013-06-08T07:03:47Z</time>
      </trkpt>
      <trkpt lat="44.6663" lon="-0.34768">
        <ele>22.25</ele>
        <time>2013-06-08T07:04:06Z</time>
      </trkpt>
      <trkpt lat="44.66645" lon="-0.34737">
        <ele>23.21</ele>
        <time>2013-06-08T07:04:22Z</time>
      </trkpt>
      <trkpt lat="44.66662" lon="-0.347">
        <ele>24.65</ele>
        <time>2013-06-08T07:04:41Z</time>
      </trkpt>
      <trkpt lat="44.66678" lon="-0.3467">
        <ele>26.57</ele>
        <time>2013-06-08T07:04:57Z</time>
      </trkpt>
      <trkpt lat="44.66699" lon="-0.34638">
        <ele>28.98</ele>
        <time>2013-06-08T07:05:16Z</time>
      </trkpt>
      <trkpt lat="44.66718" lon="-0.34609">
        <ele>32.34</ele>
        <time>2013-06-08T07:05:33Z</time>
      </trkpt>
      <trkpt lat="44.66732" lon="-0.34583">
        <ele>35.71</ele>
        <time>2013-06-08T07:05:48Z</time>
      </trkpt>
      <trkpt lat="44.6675" lon="-0.34557">
        <ele>39.07</ele>
        <time>2013-06-08T07:06:04Z</time>
      </trkpt>
      <trkpt lat="44.66774" lon="-0.34521">
        <ele>42.44</ele>
        <time>2013-06-08T07:06:26Z</time>
      </trkpt>
      <trkpt lat="44.66788" lon="-0.34496">
        <ele>45.32</ele>
        <time>2013-06-08T07:06:40Z</time>
      </trkpt>
      <trkpt lat="44.66806" lon="-0.34466">
        <ele>48.2</ele>
        <time>2013-06-08T07:06:58Z</time>
      </trkpt>
      <trkpt lat="44.66824" lon="-0.34438">
        <ele>52.05</ele>
        <time>2013-06-08T07:07:15Z</time>
      </trkpt>
      <trkpt lat="44.66837" lon="-0.34415">
        <ele>54.93</ele>
        <time>2013-06-08T07:07:29Z</time>
      </trkpt>
      <trkpt lat="44.66845" lon="-0.34402">
        <ele>57.82</ele>
        <time>2013-06-08T07:07:38Z</time>
      </trkpt>
      <trkpt lat="44.66851" lon="-0.34398">
        <ele>58.3</ele>
        <time>2013-06-08T07:07:43Z</time>
      </trkpt>
      <trkpt lat="44.66864" lon="-0.34378">
        <ele>61.18</ele>
        <time>2013-06-08T07:07:58Z</time>
      </trkpt>
      <trkpt lat="44.66869" lon="-0.34371">
        <ele>63.1</ele>
        <time>2013-06-08T07:08:03Z</time>
      </trkpt>
      <trkpt lat="44.66875" lon="-0.34366">
        <ele>64.55</ele>
        <time>2013-06-08T07:08:09Z</time>
      </trkpt>
      <trkpt lat="44.6688" lon="-0.3436">
        <ele>65.51</ele>
        <time>2013-06-08T07:08:14Z</time>
      </trkpt>
      <trkpt lat="44.66891" lon="-0.3434">
        <ele>68.87</ele>
        <time>2013-06-08T07:08:28Z</time>
      </trkpt>
      <trkpt lat="44.66907" lon="-0.34315">
        <ele>69.83</ele>
        <time>2013-06-08T07:08:44Z</time>
      </trkpt>
      <trkpt lat="44.66937" lon="-0.34345">
        <ele>70.31</ele>
        <time>2013-06-08T07:09:04Z</time>
      </trkpt>
      <trkpt lat="44.66965" lon="-0.34372">
        <ele>72.24</ele>
        <time>2013-06-08T07:09:23Z</time>
      </trkpt>
      <trkpt lat="44.66988" lon="-0.3439">
        <ele>72.24</ele>
        <time>2013-06-08T07:09:38Z</time>
      </trkpt>
      <trkpt lat="44.67018" lon="-0.34407">
        <ele>72.72</ele>
        <time>2013-06-08T07:09:56Z</time>
      </trkpt>
      <trkpt lat="44.67048" lon="-0.34428">
        <ele>74.64</ele>
        <time>2013-06-08T07:10:15Z</time>
      </trkpt>
      <trkpt lat="44.67073" lon="-0.3445">
        <ele>74.64</ele>
        <time>2013-06-08T07:10:32Z</time>
      </trkpt>
      <trkpt lat="44.67103" lon="-0.34478">
        <ele>75.6</ele>
        <time>2013-06-08T07:10:52Z</time>
      </trkpt>
      <trkpt lat="44.67127" lon="-0.3451">
        <ele>75.6</ele>
        <time>2013-06-08T07:11:11Z</time>
      </trkpt>
      <trkpt lat="44.67148" lon="-0.34536">
        <ele>76.56</ele>
        <time>2013-06-08T07:11:29Z</time>
      </trkpt>
      <trkpt lat="44.67165" lon="-0.34558">
        <ele>77.04</ele>
        <time>2013-06-08T07:11:43Z</time>
      </trkpt>
      <trkpt lat="44.67187" lon="-0.34588">
        <ele>76.56</ele>
        <time>2013-06-08T07:12:00Z</time>
      </trkpt>
      <trkpt lat="44.67216" lon="-0.34624">
        <ele>78</ele>
        <time>2013-06-08T07:12:20Z</time>
      </trkpt>
      <trkpt lat="44.67235" lon="-0.34656">
        <ele>79.93</ele>
        <time>2013-06-08T07:12:38Z</time>
      </trkpt>
      <trkpt lat="44.67253" lon="-0.34685">
        <ele>80.89</ele>
        <time>2013-06-08T07:12:55Z</time>
      </trkpt>
      <trkpt lat="44.67271" lon="-0.3472">
        <ele>80.41</ele>
        <time>2013-06-08T07:13:13Z</time>
      </trkpt>
      <trkpt lat="44.67286" lon="-0.34739">
        <ele>79.93</ele>
        <time>2013-06-08T07:13:27Z</time>
      </trkpt>
      <trkpt lat="44.67304" lon="-0.34775">
        <ele>78.97</ele>
        <time>2013-06-08T07:13:45Z</time>
      </trkpt>
      <trkpt lat="44.67324" lon="-0.34815">
        <ele>78</ele>
        <time>2013-06-08T07:14:03Z</time>
      </trkpt>
      <trkpt lat="44.6734" lon="-0.34838">
        <ele>78.48</ele>
        <time>2013-06-08T07:14:19Z</time>
      </trkpt>
      <trkpt lat="44.67338" lon="-0.34837">
        <ele>78</ele>
        <time>2013-06-08T07:14:21Z</time>
      </trkpt>
      <trkpt lat="44.67337" lon="-0.34836">
        <ele>78.48</ele>
        <time>2013-06-08T07:14:22Z</time>
      </trkpt>
      <trkpt lat="44.67306" lon="-0.34813">
        <ele>76.08</ele>
        <time>2013-06-08T07:14:39Z</time>
      </trkpt>
      <trkpt lat="44.67278" lon="-0.34818">
        <ele>74.16</ele>
        <time>2013-06-08T07:14:56Z</time>
      </trkpt>
      <trkpt lat="44.67262" lon="-0.34839">
        <ele>71.27</ele>
        <time>2013-06-08T07:15:08Z</time>
      </trkpt>
      <trkpt lat="44.67255" lon="-0.34849">
        <ele>69.83</ele>
        <time>2013-06-08T07:15:14Z</time>
      </trkpt>
      <trkpt lat="44.67239" lon="-0.34866">
        <ele>66.47</ele>
        <time>2013-06-08T07:15:25Z</time>
      </trkpt>
      <trkpt lat="44.67226" lon="-0.34868">
        <ele>64.55</ele>
        <time>2013-06-08T07:15:32Z</time>
      </trkpt>
      <trkpt lat="44.67214" lon="-0.34883">
        <ele>61.18</ele>
        <time>2013-06-08T07:15:41Z</time>
      </trkpt>
      <trkpt lat="44.67203" lon="-0.349">
        <ele>57.82</ele>
        <time>2013-06-08T07:15:50Z</time>
      </trkpt>
      <trkpt lat="44.672" lon="-0.34905">
        <ele>56.86</ele>
        <time>2013-06-08T07:15:52Z</time>
      </trkpt>
      <trkpt lat="44.67186" lon="-0.34927">
        <ele>53.97</ele>
        <time>2013-06-08T07:16:03Z</time>
      </trkpt>
      <trkpt lat="44.67174" lon="-0.3495">
        <ele>50.61</ele>
        <time>2013-06-08T07:16:13Z</time>
      </trkpt>
      <trkpt lat="44.6716" lon="-0.34973">
        <ele>47.24</ele>
        <time>2013-06-08T07:16:27Z</time>
      </trkpt>
      <trkpt lat="44.67163" lon="-0.35002">
        <ele>45.8</ele>
        <time>2013-06-08T07:16:42Z</time>
      </trkpt>
      <trkpt lat="44.67193" lon="-0.35036">
        <ele>47.24</ele>
        <time>2013-06-08T07:17:03Z</time>
      </trkpt>
      <trkpt lat="44.67221" lon="-0.35066">
        <ele>47.24</ele>
        <time>2013-06-08T07:17:25Z</time>
      </trkpt>
      <trkpt lat="44.67242" lon="-0.35096">
        <ele>46.28</ele>
        <time>2013-06-08T07:17:46Z</time>
      </trkpt>
      <trkpt lat="44.67249" lon="-0.35101">
        <ele>46.28</ele>
        <time>2013-06-08T07:17:51Z</time>
      </trkpt>
      <trkpt lat="44.67271" lon="-0.3508">
        <ele>49.16</ele>
        <time>2013-06-08T07:18:08Z</time>
      </trkpt>
      <trkpt lat="44.67294" lon="-0.35096">
        <ele>50.13</ele>
        <time>2013-06-08T07:18:25Z</time>
      </trkpt>
      <trkpt lat="44.67321" lon="-0.35121">
        <ele>49.65</ele>
        <time>2013-06-08T07:18:44Z</time>
      </trkpt>
      <trkpt lat="44.67344" lon="-0.35143">
        <ele>50.13</ele>
        <time>2013-06-08T07:19:04Z</time>
      </trkpt>
      <trkpt lat="44.67374" lon="-0.3517">
        <ele>50.13</ele>
        <time>2013-06-08T07:19:26Z</time>
      </trkpt>
      <trkpt lat="44.674" lon="-0.35198">
        <ele>50.61</ele>
        <time>2013-06-08T07:19:47Z</time>
      </trkpt>
      <trkpt lat="44.67425" lon="-0.35224">
        <ele>50.13</ele>
        <time>2013-06-08T07:20:06Z</time>
      </trkpt>
      <trkpt lat="44.67453" lon="-0.35252">
        <ele>50.61</ele>
        <time>2013-06-08T07:20:27Z</time>
      </trkpt>
      <trkpt lat="44.67478" lon="-0.3525">
        <ele>51.09</ele>
        <time>2013-06-08T07:20:45Z</time>
      </trkpt>
      <trkpt lat="44.675" lon="-0.35224">
        <ele>52.05</ele>
        <time>2013-06-08T07:21:03Z</time>
      </trkpt>
      <trkpt lat="44.6752" lon="-0.35203">
        <ele>53.49</ele>
        <time>2013-06-08T07:21:20Z</time>
      </trkpt>
      <trkpt lat="44.67525" lon="-0.35206">
        <ele>53.01</ele>
        <time>2013-06-08T07:21:24Z</time>
      </trkpt>
      <trkpt lat="44.67532" lon="-0.35215">
        <ele>51.57</ele>
        <time>2013-06-08T07:21:31Z</time>
      </trkpt>
      <trkpt lat="44.67551" lon="-0.35237">
        <ele>48.68</ele>
        <time>2013-06-08T07:21:47Z</time>
      </trkpt>
      <trkpt lat="44.6756" lon="-0.3524">
        <ele>48.2</ele>
        <time>2013-06-08T07:21:52Z</time>
      </trkpt>
      <trkpt lat="44.67584" lon="-0.35263">
        <ele>46.28</ele>
        <time>2013-06-08T07:22:09Z</time>
      </trkpt>
      <trkpt lat="44.67608" lon="-0.35284">
        <ele>44.36</ele>
        <time>2013-06-08T07:22:27Z</time>
      </trkpt>
      <trkpt lat="44.67637" lon="-0.35284">
        <ele>42.92</ele>
        <time>2013-06-08T07:22:43Z</time>
      </trkpt>
      <trkpt lat="44.67661" lon="-0.35284">
        <ele>42.44</ele>
        <time>2013-06-08T07:22:57Z</time>
      </trkpt>
      <trkpt lat="44.67663" lon="-0.35291">
        <ele>42.92</ele>
        <time>2013-06-08T07:23:01Z</time>
      </trkpt>
      <trkpt lat="44.67667" lon="-0.353">
        <ele>41.95</ele>
        <time>2013-06-08T07:23:08Z</time>
      </trkpt>
      <trkpt lat="44.677" lon="-0.35298">
        <ele>43.4</ele>
        <time>2013-06-08T07:23:28Z</time>
      </trkpt>
      <trkpt lat="44.67718" lon="-0.35294">
        <ele>46.76</ele>
        <time>2013-06-08T07:23:41Z</time>
      </trkpt>
      <trkpt lat="44.67746" lon="-0.35276">
        <ele>48.2</ele>
        <time>2013-06-08T07:24:02Z</time>
      </trkpt>
      <trkpt lat="44.6776" lon="-0.35268">
        <ele>51.09</ele>
        <time>2013-06-08T07:24:13Z</time>
      </trkpt>
      <trkpt lat="44.67781" lon="-0.35259">
        <ele>54.45</ele>
        <time>2013-06-08T07:24:29Z</time>
      </trkpt>
      <trkpt lat="44.67797" lon="-0.35254">
        <ele>57.34</ele>
        <time>2013-06-08T07:24:41Z</time>
      </trkpt>
      <trkpt lat="44.67806" lon="-0.35254">
        <ele>59.26</ele>
        <time>2013-06-08T07:24:48Z</time>
      </trkpt>
      <trkpt lat="44.67818" lon="-0.353">
        <ele>60.7</ele>
        <time>2013-06-08T07:25:09Z</time>
      </trkpt>
      <trkpt lat="44.67826" lon="-0.35348">
        <ele>59.74</ele>
        <time>2013-06-08T07:25:30Z</time>
      </trkpt>
      <trkpt lat="44.67839" lon="-0.35391">
        <ele>59.26</ele>
        <time>2013-06-08T07:25:51Z</time>
      </trkpt>
      <trkpt lat="44.67856" lon="-0.35433">
        <ele>59.26</ele>
        <time>2013-06-08T07:26:11Z</time>
      </trkpt>
      <trkpt lat="44.67875" lon="-0.35465">
        <ele>60.22</ele>
        <time>2013-06-08T07:26:29Z</time>
      </trkpt>
      <trkpt lat="44.67888" lon="-0.355">
        <ele>59.74</ele>
        <time>2013-06-08T07:26:46Z</time>
      </trkpt>
      <trkpt lat="44.67897" lon="-0.35539">
        <ele>57.34</ele>
        <time>2013-06-08T07:27:04Z</time>
      </trkpt>
      <trkpt lat="44.67891" lon="-0.35578">
        <ele>54.45</ele>
        <time>2013-06-08T07:27:20Z</time>
      </trkpt>
      <trkpt lat="44.67882" lon="-0.35615">
        <ele>52.53</ele>
        <time>2013-06-08T07:27:37Z</time>
      </trkpt>
      <trkpt lat="44.67871" lon="-0.3565">
        <ele>51.57</ele>
        <time>2013-06-08T07:27:53Z</time>
      </trkpt>
      <trkpt lat="44.67869" lon="-0.35657">
        <ele>49.65</ele>
        <time>2013-06-08T07:27:56Z</time>
      </trkpt>
      <trkpt lat="44.67857" lon="-0.35692">
        <ele>48.2</ele>
        <time>2013-06-08T07:28:12Z</time>
      </trkpt>
      <trkpt lat="44.6786" lon="-0.35718">
        <ele>45.32</ele>
        <time>2013-06-08T07:28:25Z</time>
      </trkpt>
      <trkpt lat="44.67888" lon="-0.35744">
        <ele>43.88</ele>
        <time>2013-06-08T07:28:43Z</time>
      </trkpt>
      <trkpt lat="44.67911" lon="-0.35767">
        <ele>40.99</ele>
        <time>2013-06-08T07:28:59Z</time>
      </trkpt>
      <trkpt lat="44.67937" lon="-0.35795">
        <ele>39.55</ele>
        <time>2013-06-08T07:29:16Z</time>
      </trkpt>
      <trkpt lat="44.67959" lon="-0.35819">
        <ele>39.55</ele>
        <time>2013-06-08T07:29:31Z</time>
      </trkpt>
      <trkpt lat="44.67982" lon="-0.35842">
        <ele>38.11</ele>
        <time>2013-06-08T07:29:47Z</time>
      </trkpt>
      <trkpt lat="44.6799" lon="-0.35872">
        <ele>37.63</ele>
        <time>2013-06-08T07:30:00Z</time>
      </trkpt>
      <trkpt lat="44.68003" lon="-0.35901">
        <ele>37.15</ele>
        <time>2013-06-08T07:30:16Z</time>
      </trkpt>
      <trkpt lat="44.68028" lon="-0.35919">
        <ele>37.63</ele>
        <time>2013-06-08T07:30:31Z</time>
      </trkpt>
      <trkpt lat="44.68054" lon="-0.35942">
        <ele>36.19</ele>
        <time>2013-06-08T07:30:49Z</time>
      </trkpt>
      <trkpt lat="44.68067" lon="-0.35949">
        <ele>35.71</ele>
        <time>2013-06-08T07:31:01Z</time>
      </trkpt>
      <trkpt lat="44.68071" lon="-0.35951">
        <ele>35.23</ele>
        <time>2013-06-08T07:31:07Z</time>
      </trkpt>
      <trkpt lat="44.68073" lon="-0.35951">
        <ele>35.23</ele>
        <time>2013-06-08T07:31:09Z</time>
      </trkpt>
      <trkpt lat="44.68075" lon="-0.35951">
        <ele>35.23</ele>
        <time>2013-06-08T07:31:10Z</time>
      </trkpt>
      <trkpt lat="44.68076" lon="-0.35952">
        <ele>35.23</ele>
        <time>2013-06-08T07:31:11Z</time>
      </trkpt>
      <trkpt lat="44.68098" lon="-0.35964">
        <ele>34.74</ele>
        <time>2013-06-08T07:31:26Z</time>
      </trkpt>
      <trkpt lat="44.6812" lon="-0.35988">
        <ele>34.74</ele>
        <time>2013-06-08T07:31:44Z</time>
      </trkpt>
      <trkpt lat="44.68126" lon="-0.36003">
        <ele>34.26</ele>
        <time>2013-06-08T07:31:52Z</time>
      </trkpt>
      <trkpt lat="44.6815" lon="-0.36034">
        <ele>34.74</ele>
        <time>2013-06-08T07:32:10Z</time>
      </trkpt>
      <trkpt lat="44.6817" lon="-0.36053">
        <ele>35.23</ele>
        <time>2013-06-08T07:32:25Z</time>
      </trkpt>
      <trkpt lat="44.68195" lon="-0.36083">
        <ele>34.74</ele>
        <time>2013-06-08T07:32:45Z</time>
      </trkpt>
      <trkpt lat="44.68228" lon="-0.36111">
        <ele>35.71</ele>
        <time>2013-06-08T07:33:07Z</time>
      </trkpt>
      <trkpt lat="44.68257" lon="-0.3614">
        <ele>35.71</ele>
        <time>2013-06-08T07:33:28Z</time>
      </trkpt>
      <trkpt lat="44.68284" lon="-0.36163">
        <ele>35.23</ele>
        <time>2013-06-08T07:33:48Z</time>
      </trkpt>
      <trkpt lat="44.68308" lon="-0.36178">
        <ele>34.74</ele>
        <time>2013-06-08T07:34:03Z</time>
      </trkpt>
      <trkpt lat="44.68322" lon="-0.36211">
        <ele>33.78</ele>
        <time>2013-06-08T07:34:19Z</time>
      </trkpt>
      <trkpt lat="44.68314" lon="-0.3623">
        <ele>32.82</ele>
        <time>2013-06-08T07:34:28Z</time>
      </trkpt>
      <trkpt lat="44.68314" lon="-0.36232">
        <ele>32.82</ele>
        <time>2013-06-08T07:34:29Z</time>
      </trkpt>
      <trkpt lat="44.68313" lon="-0.36235">
        <ele>32.34</ele>
        <time>2013-06-08T07:34:30Z</time>
      </trkpt>
      <trkpt lat="44.68313" lon="-0.36237">
        <ele>32.34</ele>
        <time>2013-06-08T07:34:31Z</time>
      </trkpt>
      <trkpt lat="44.68315" lon="-0.36243">
        <ele>31.86</ele>
        <time>2013-06-08T07:34:36Z</time>
      </trkpt>
      <trkpt lat="44.68316" lon="-0.36244">
        <ele>31.38</ele>
        <time>2013-06-08T07:34:37Z</time>
      </trkpt>
      <trkpt lat="44.68318" lon="-0.36245">
        <ele>31.86</ele>
        <time>2013-06-08T07:34:38Z</time>
      </trkpt>
      <trkpt lat="44.68319" lon="-0.36246">
        <ele>31.86</ele>
        <time>2013-06-08T07:34:39Z</time>
      </trkpt>
      <trkpt lat="44.68321" lon="-0.36247">
        <ele>31.38</ele>
        <time>2013-06-08T07:34:40Z</time>
      </trkpt>
      <trkpt lat="44.68323" lon="-0.36248">
        <ele>31.86</ele>
        <time>2013-06-08T07:34:41Z</time>
      </trkpt>
      <trkpt lat="44.68355" lon="-0.36267">
        <ele>32.34</ele>
        <time>2013-06-08T07:35:00Z</time>
      </trkpt>
      <trkpt lat="44.68383" lon="-0.36288">
        <ele>32.34</ele>
        <time>2013-06-08T07:35:18Z</time>
      </trkpt>
      <trkpt lat="44.68408" lon="-0.36305">
        <ele>33.3</ele>
        <time>2013-06-08T07:35:34Z</time>
      </trkpt>
      <trkpt lat="44.68429" lon="-0.36322">
        <ele>30.9</ele>
        <time>2013-06-08T07:35:50Z</time>
      </trkpt>
      <trkpt lat="44.6844" lon="-0.36353">
        <ele>27.53</ele>
        <time>2013-06-08T07:36:03Z</time>
      </trkpt>
      <trkpt lat="44.68443" lon="-0.36362">
        <ele>26.57</ele>
        <time>2013-06-08T07:36:06Z</time>
      </trkpt>
      <trkpt lat="44.68445" lon="-0.36366">
        <ele>25.13</ele>
        <time>2013-06-08T07:36:08Z</time>
      </trkpt>
      <trkpt lat="44.68456" lon="-0.36374">
        <ele>21.77</ele>
        <time>2013-06-08T07:36:14Z</time>
      </trkpt>
      <trkpt lat="44.68474" lon="-0.36371">
        <ele>23.21</ele>
        <time>2013-06-08T07:36:29Z</time>
      </trkpt>
      <trkpt lat="44.68473" lon="-0.36365">
        <ele>23.21</ele>
        <time>2013-06-08T07:36:50Z</time>
      </trkpt>
      <trkpt lat="44.68467" lon="-0.36366">
        <ele>22.73</ele>
        <time>2013-06-08T07:36:52Z</time>
      </trkpt>
      <trkpt lat="44.68464" lon="-0.36368">
        <ele>22.73</ele>
        <time>2013-06-08T07:36:53Z</time>
      </trkpt>
      <trkpt lat="44.68462" lon="-0.36369">
        <ele>22.25</ele>
        <time>2013-06-08T07:36:54Z</time>
      </trkpt>
      <trkpt lat="44.6846" lon="-0.36369">
        <ele>21.77</ele>
        <time>2013-06-08T07:36:55Z</time>
      </trkpt>
      <trkpt lat="44.68459" lon="-0.3637">
        <ele>21.77</ele>
        <time>2013-06-08T07:36:56Z</time>
      </trkpt>
      <trkpt lat="44.68462" lon="-0.36369">
        <ele>20.32</ele>
        <time>2013-06-08T07:36:59Z</time>
      </trkpt>
      <trkpt lat="44.68464" lon="-0.36368">
        <ele>19.84</ele>
        <time>2013-06-08T07:37:00Z</time>
      </trkpt>
      <trkpt lat="44.68467" lon="-0.36368">
        <ele>18.4</ele>
        <time>2013-06-08T07:37:01Z</time>
      </trkpt>
      <trkpt lat="44.68471" lon="-0.36368">
        <ele>18.4</ele>
        <time>2013-06-08T07:37:02Z</time>
      </trkpt>
      <trkpt lat="44.68475" lon="-0.36367">
        <ele>17.92</ele>
        <time>2013-06-08T07:37:03Z</time>
      </trkpt>
      <trkpt lat="44.68479" lon="-0.36367">
        <ele>16.96</ele>
        <time>2013-06-08T07:37:04Z</time>
      </trkpt>
      <trkpt lat="44.68482" lon="-0.36368">
        <ele>16.48</ele>
        <time>2013-06-08T07:37:05Z</time>
      </trkpt>
      <trkpt lat="44.68486" lon="-0.36368">
        <ele>16.48</ele>
        <time>2013-06-08T07:37:06Z</time>
      </trkpt>
      <trkpt lat="44.68508" lon="-0.36381">
        <ele>13.6</ele>
        <time>2013-06-08T07:37:15Z</time>
      </trkpt>
      <trkpt lat="44.68525" lon="-0.36403">
        <ele>10.23</ele>
        <time>2013-06-08T07:37:29Z</time>
      </trkpt>
      <trkpt lat="44.68549" lon="-0.36417">
        <ele>9.75</ele>
        <time>2013-06-08T07:37:46Z</time>
      </trkpt>
      <trkpt lat="44.68564" lon="-0.36391">
        <ele>8.79</ele>
        <time>2013-06-08T07:38:00Z</time>
      </trkpt>
      <trkpt lat="44.68576" lon="-0.3637">
        <ele>8.79</ele>
        <time>2013-06-08T07:38:12Z</time>
      </trkpt>
      <trkpt lat="44.68578" lon="-0.36369">
        <ele>9.27</ele>
        <time>2013-06-08T07:38:13Z</time>
      </trkpt>
      <trkpt lat="44.68579" lon="-0.36369">
        <ele>8.79</ele>
        <time>2013-06-08T07:38:14Z</time>
      </trkpt>
      <trkpt lat="44.68605" lon="-0.36382">
        <ele>7.35</ele>
        <time>2013-06-08T07:38:30Z</time>
      </trkpt>
      <trkpt lat="44.68631" lon="-0.36402">
        <ele>7.83</ele>
        <time>2013-06-08T07:38:48Z</time>
      </trkpt>
      <trkpt lat="44.68634" lon="-0.36425">
        <ele>7.83</ele>
        <time>2013-06-08T07:39:00Z</time>
      </trkpt>
      <trkpt lat="44.68638" lon="-0.36428">
        <ele>8.31</ele>
        <time>2013-06-08T07:39:04Z</time>
      </trkpt>
      <trkpt lat="44.68668" lon="-0.36436">
        <ele>8.79</ele>
        <time>2013-06-08T07:39:21Z</time>
      </trkpt>
      <trkpt lat="44.68692" lon="-0.36442">
        <ele>11.19</ele>
        <time>2013-06-08T07:39:37Z</time>
      </trkpt>
      <trkpt lat="44.68713" lon="-0.36456">
        <ele>14.08</ele>
        <time>2013-06-08T07:39:53Z</time>
      </trkpt>
      <trkpt lat="44.68719" lon="-0.36458">
        <ele>15.52</ele>
        <time>2013-06-08T07:39:57Z</time>
      </trkpt>
      <trkpt lat="44.6872" lon="-0.36457">
        <ele>16</ele>
        <time>2013-06-08T07:39:58Z</time>
      </trkpt>
      <trkpt lat="44.68721" lon="-0.36455">
        <ele>16.48</ele>
        <time>2013-06-08T07:39:59Z</time>
      </trkpt>
      <trkpt lat="44.68722" lon="-0.36454">
        <ele>16</ele>
        <time>2013-06-08T07:40:00Z</time>
      </trkpt>
      <trkpt lat="44.68723" lon="-0.36452">
        <ele>16.48</ele>
        <time>2013-06-08T07:40:01Z</time>
      </trkpt>
      <trkpt lat="44.68723" lon="-0.3645">
        <ele>16.96</ele>
        <time>2013-06-08T07:40:02Z</time>
      </trkpt>
      <trkpt lat="44.68723" lon="-0.36448">
        <ele>16.96</ele>
        <time>2013-06-08T07:40:03Z</time>
      </trkpt>
      <trkpt lat="44.68723" lon="-0.36446">
        <ele>16.96</ele>
        <time>2013-06-08T07:40:04Z</time>
      </trkpt>
      <trkpt lat="44.68724" lon="-0.36444">
        <ele>17.44</ele>
        <time>2013-06-08T07:40:05Z</time>
      </trkpt>
      <trkpt lat="44.68734" lon="-0.36418">
        <ele>20.32</ele>
        <time>2013-06-08T07:40:19Z</time>
      </trkpt>
      <trkpt lat="44.68748" lon="-0.36407">
        <ele>23.69</ele>
        <time>2013-06-08T07:40:33Z</time>
      </trkpt>
      <trkpt lat="44.68753" lon="-0.36412">
        <ele>24.65</ele>
        <time>2013-06-08T07:40:38Z</time>
      </trkpt>
      <trkpt lat="44.68754" lon="-0.36413">
        <ele>25.13</ele>
        <time>2013-06-08T07:40:39Z</time>
      </trkpt>
      <trkpt lat="44.68755" lon="-0.36414">
        <ele>24.65</ele>
        <time>2013-06-08T07:40:40Z</time>
      </trkpt>
      <trkpt lat="44.68767" lon="-0.36429">
        <ele>28.02</ele>
        <time>2013-06-08T07:40:52Z</time>
      </trkpt>
      <trkpt lat="44.68785" lon="-0.3645">
        <ele>30.9</ele>
        <time>2013-06-08T07:41:06Z</time>
      </trkpt>
      <trkpt lat="44.68797" lon="-0.36467">
        <ele>34.26</ele>
        <time>2013-06-08T07:41:21Z</time>
      </trkpt>
      <trkpt lat="44.68807" lon="-0.36486">
        <ele>36.19</ele>
        <time>2013-06-08T07:41:32Z</time>
      </trkpt>
      <trkpt lat="44.6883" lon="-0.36508">
        <ele>39.55</ele>
        <time>2013-06-08T07:41:48Z</time>
      </trkpt>
      <trkpt lat="44.68831" lon="-0.36502">
        <ele>40.03</ele>
        <time>2013-06-08T07:41:51Z</time>
      </trkpt>
      <trkpt lat="44.6883" lon="-0.36496">
        <ele>40.03</ele>
        <time>2013-06-08T07:41:54Z</time>
      </trkpt>
      <trkpt lat="44.68817" lon="-0.36463">
        <ele>41.47</ele>
        <time>2013-06-08T07:42:11Z</time>
      </trkpt>
      <trkpt lat="44.68829" lon="-0.36437">
        <ele>43.88</ele>
        <time>2013-06-08T07:42:25Z</time>
      </trkpt>
      <trkpt lat="44.68851" lon="-0.36422">
        <ele>46.76</ele>
        <time>2013-06-08T07:42:40Z</time>
      </trkpt>
      <trkpt lat="44.68881" lon="-0.36411">
        <ele>49.16</ele>
        <time>2013-06-08T07:43:00Z</time>
      </trkpt>
      <trkpt lat="44.68903" lon="-0.364">
        <ele>52.53</ele>
        <time>2013-06-08T07:43:15Z</time>
      </trkpt>
      <trkpt lat="44.68933" lon="-0.36383">
        <ele>54.93</ele>
        <time>2013-06-08T07:43:35Z</time>
      </trkpt>
      <trkpt lat="44.68952" lon="-0.36362">
        <ele>58.3</ele>
        <time>2013-06-08T07:43:50Z</time>
      </trkpt>
      <trkpt lat="44.6897" lon="-0.36339">
        <ele>61.18</ele>
        <time>2013-06-08T07:44:07Z</time>
      </trkpt>
      <trkpt lat="44.6898" lon="-0.36326">
        <ele>64.07</ele>
        <time>2013-06-08T07:44:16Z</time>
      </trkpt>
      <trkpt lat="44.69001" lon="-0.36294">
        <ele>67.43</ele>
        <time>2013-06-08T07:44:38Z</time>
      </trkpt>
      <trkpt lat="44.69023" lon="-0.36272">
        <ele>68.39</ele>
        <time>2013-06-08T07:44:56Z</time>
      </trkpt>
      <trkpt lat="44.69049" lon="-0.36258">
        <ele>68.87</ele>
        <time>2013-06-08T07:45:13Z</time>
      </trkpt>
      <trkpt lat="44.69061" lon="-0.36249">
        <ele>69.35</ele>
        <time>2013-06-08T07:45:23Z</time>
      </trkpt>
      <trkpt lat="44.69062" lon="-0.36248">
        <ele>69.35</ele>
        <time>2013-06-08T07:45:24Z</time>
      </trkpt>
      <trkpt lat="44.69086" lon="-0.36237">
        <ele>69.83</ele>
        <time>2013-06-08T07:45:40Z</time>
      </trkpt>
      <trkpt lat="44.69114" lon="-0.36238">
        <ele>72.72</ele>
        <time>2013-06-08T07:45:57Z</time>
      </trkpt>
      <trkpt lat="44.6914" lon="-0.36235">
        <ele>72.72</ele>
        <time>2013-06-08T07:46:13Z</time>
      </trkpt>
      <trkpt lat="44.69151" lon="-0.36248">
        <ele>76.08</ele>
        <time>2013-06-08T07:46:23Z</time>
      </trkpt>
      <trkpt lat="44.69161" lon="-0.36258">
        <ele>78.97</ele>
        <time>2013-06-08T07:46:36Z</time>
      </trkpt>
      <trkpt lat="44.69169" lon="-0.36265">
        <ele>78.97</ele>
        <time>2013-06-08T07:46:43Z</time>
      </trkpt>
      <trkpt lat="44.69178" lon="-0.36262">
        <ele>78.97</ele>
        <time>2013-06-08T07:46:49Z</time>
      </trkpt>
      <trkpt lat="44.6918" lon="-0.36261">
        <ele>78.97</ele>
        <time>2013-06-08T07:46:50Z</time>
      </trkpt>
      <trkpt lat="44.69203" lon="-0.36247">
        <ele>79.93</ele>
        <time>2013-06-08T07:47:05Z</time>
      </trkpt>
      <trkpt lat="44.6923" lon="-0.36229">
        <ele>79.93</ele>
        <time>2013-06-08T07:47:22Z</time>
      </trkpt>
      <trkpt lat="44.69256" lon="-0.36214">
        <ele>79.45</ele>
        <time>2013-06-08T07:47:38Z</time>
      </trkpt>
      <trkpt lat="44.69282" lon="-0.36223">
        <ele>79.93</ele>
        <time>2013-06-08T07:47:54Z</time>
      </trkpt>
      <trkpt lat="44.69301" lon="-0.36252">
        <ele>82.33</ele>
        <time>2013-06-08T07:48:11Z</time>
      </trkpt>
      <trkpt lat="44.69322" lon="-0.36281">
        <ele>83.29</ele>
        <time>2013-06-08T07:48:30Z</time>
      </trkpt>
      <trkpt lat="44.69344" lon="-0.36296">
        <ele>83.77</ele>
        <time>2013-06-08T07:48:45Z</time>
      </trkpt>
      <trkpt lat="44.69369" lon="-0.36307">
        <ele>84.25</ele>
        <time>2013-06-08T07:49:00Z</time>
      </trkpt>
      <trkpt lat="44.69395" lon="-0.36311">
        <ele>83.29</ele>
        <time>2013-06-08T07:49:16Z</time>
      </trkpt>
      <trkpt lat="44.69421" lon="-0.36318">
        <ele>82.81</ele>
        <time>2013-06-08T07:49:31Z</time>
      </trkpt>
      <trkpt lat="44.69448" lon="-0.36338">
        <ele>80.89</ele>
        <time>2013-06-08T07:49:48Z</time>
      </trkpt>
      <trkpt lat="44.69469" lon="-0.36367">
        <ele>78.97</ele>
        <time>2013-06-08T07:50:05Z</time>
      </trkpt>
      <trkpt lat="44.6949" lon="-0.36398">
        <ele>77.52</ele>
        <time>2013-06-08T07:50:21Z</time>
      </trkpt>
      <trkpt lat="44.69503" lon="-0.36443">
        <ele>76.56</ele>
        <time>2013-06-08T07:50:40Z</time>
      </trkpt>
      <trkpt lat="44.69519" lon="-0.36481">
        <ele>78</ele>
        <time>2013-06-08T07:51:00Z</time>
      </trkpt>
      <trkpt lat="44.69527" lon="-0.36523">
        <ele>79.93</ele>
        <time>2013-06-08T07:51:18Z</time>
      </trkpt>
      <trkpt lat="44.6953" lon="-0.36542">
        <ele>80.41</ele>
        <time>2013-06-08T07:51:26Z</time>
      </trkpt>
      <trkpt lat="44.6953" lon="-0.36543">
        <ele>79.93</ele>
        <time>2013-06-08T07:51:27Z</time>
      </trkpt>
      <trkpt lat="44.69531" lon="-0.36545">
        <ele>79.93</ele>
        <time>2013-06-08T07:51:28Z</time>
      </trkpt>
      <trkpt lat="44.69532" lon="-0.36546">
        <ele>79.93</ele>
        <time>2013-06-08T07:51:29Z</time>
      </trkpt>
      <trkpt lat="44.69533" lon="-0.36548">
        <ele>79.93</ele>
        <time>2013-06-08T07:51:30Z</time>
      </trkpt>
      <trkpt lat="44.69558" lon="-0.3658">
        <ele>79.45</ele>
        <time>2013-06-08T07:51:50Z</time>
      </trkpt>
      <trkpt lat="44.69586" lon="-0.36612">
        <ele>78.48</ele>
        <time>2013-06-08T07:52:11Z</time>
      </trkpt>
      <trkpt lat="44.69614" lon="-0.36646">
        <ele>78</ele>
        <time>2013-06-08T07:52:33Z</time>
      </trkpt>
      <trkpt lat="44.69634" lon="-0.36685">
        <ele>78.48</ele>
        <time>2013-06-08T07:52:53Z</time>
      </trkpt>
      <trkpt lat="44.69654" lon="-0.36732">
        <ele>78.48</ele>
        <time>2013-06-08T07:53:16Z</time>
      </trkpt>
      <trkpt lat="44.69668" lon="-0.36763">
        <ele>79.93</ele>
        <time>2013-06-08T07:53:33Z</time>
      </trkpt>
      <trkpt lat="44.69683" lon="-0.36793">
        <ele>80.41</ele>
        <time>2013-06-08T07:53:48Z</time>
      </trkpt>
      <trkpt lat="44.69698" lon="-0.36824">
        <ele>79.93</ele>
        <time>2013-06-08T07:54:04Z</time>
      </trkpt>
      <trkpt lat="44.69714" lon="-0.36858">
        <ele>78.48</ele>
        <time>2013-06-08T07:54:21Z</time>
      </trkpt>
      <trkpt lat="44.69737" lon="-0.36872">
        <ele>78</ele>
        <time>2013-06-08T07:54:37Z</time>
      </trkpt>
      <trkpt lat="44.69762" lon="-0.36884">
        <ele>77.52</ele>
        <time>2013-06-08T07:54:54Z</time>
      </trkpt>
      <trkpt lat="44.69763" lon="-0.36884">
        <ele>77.52</ele>
        <time>2013-06-08T07:54:55Z</time>
      </trkpt>
      <trkpt lat="44.69764" lon="-0.36885">
        <ele>78</ele>
        <time>2013-06-08T07:54:56Z</time>
      </trkpt>
      <trkpt lat="44.69769" lon="-0.36884">
        <ele>78</ele>
        <time>2013-06-08T07:55:12Z</time>
      </trkpt>
      <trkpt lat="44.69768" lon="-0.36885">
        <ele>78</ele>
        <time>2013-06-08T07:55:28Z</time>
      </trkpt>
      <trkpt lat="44.69767" lon="-0.36881">
        <ele>77.52</ele>
        <time>2013-06-08T07:55:42Z</time>
      </trkpt>
      <trkpt lat="44.69766" lon="-0.36878">
        <ele>78</ele>
        <time>2013-06-08T07:55:44Z</time>
      </trkpt>
      <trkpt lat="44.69765" lon="-0.36876">
        <ele>78</ele>
        <time>2013-06-08T07:55:45Z</time>
      </trkpt>
      <trkpt lat="44.69765" lon="-0.36873">
        <ele>77.52</ele>
        <time>2013-06-08T07:55:46Z</time>
      </trkpt>
      <trkpt lat="44.69761" lon="-0.36836">
        <ele>77.52</ele>
        <time>2013-06-08T07:56:03Z</time>
      </trkpt>
      <trkpt lat="44.69752" lon="-0.36797">
        <ele>77.52</ele>
        <time>2013-06-08T07:56:21Z</time>
      </trkpt>
      <trkpt lat="44.69743" lon="-0.36761">
        <ele>77.04</ele>
        <time>2013-06-08T07:56:38Z</time>
      </trkpt>
      <trkpt lat="44.69732" lon="-0.36726">
        <ele>76.08</ele>
        <time>2013-06-08T07:56:54Z</time>
      </trkpt>
      <trkpt lat="44.69722" lon="-0.36691">
        <ele>75.12</ele>
        <time>2013-06-08T07:57:13Z</time>
      </trkpt>
      <trkpt lat="44.69704" lon="-0.36655">
        <ele>73.68</ele>
        <time>2013-06-08T07:57:30Z</time>
      </trkpt>
      <trkpt lat="44.69687" lon="-0.36627">
        <ele>73.2</ele>
        <time>2013-06-08T07:57:45Z</time>
      </trkpt>
      <trkpt lat="44.69679" lon="-0.36598">
        <ele>69.83</ele>
        <time>2013-06-08T07:57:58Z</time>
      </trkpt>
      <trkpt lat="44.69669" lon="-0.36561">
        <ele>67.91</ele>
        <time>2013-06-08T07:58:17Z</time>
      </trkpt>
      <trkpt lat="44.69655" lon="-0.36517">
        <ele>65.03</ele>
        <time>2013-06-08T07:58:36Z</time>
      </trkpt>
      <trkpt lat="44.69655" lon="-0.36513">
        <ele>65.03</ele>
        <time>2013-06-08T07:58:38Z</time>
      </trkpt>
      <trkpt lat="44.69657" lon="-0.36508">
        <ele>63.58</ele>
        <time>2013-06-08T07:58:41Z</time>
      </trkpt>
      <trkpt lat="44.69678" lon="-0.3648">
        <ele>59.74</ele>
        <time>2013-06-08T07:58:54Z</time>
      </trkpt>
      <trkpt lat="44.69681" lon="-0.36476">
        <ele>59.26</ele>
        <time>2013-06-08T07:58:55Z</time>
      </trkpt>
      <trkpt lat="44.69695" lon="-0.36455">
        <ele>55.89</ele>
        <time>2013-06-08T07:59:04Z</time>
      </trkpt>
      <trkpt lat="44.69706" lon="-0.36442">
        <ele>52.05</ele>
        <time>2013-06-08T07:59:10Z</time>
      </trkpt>
      <trkpt lat="44.6973" lon="-0.36405">
        <ele>48.2</ele>
        <time>2013-06-08T07:59:25Z</time>
      </trkpt>
      <trkpt lat="44.69749" lon="-0.3638">
        <ele>45.8</ele>
        <time>2013-06-08T07:59:36Z</time>
      </trkpt>
      <trkpt lat="44.69765" lon="-0.36359">
        <ele>44.36</ele>
        <time>2013-06-08T07:59:47Z</time>
      </trkpt>
      <trkpt lat="44.69782" lon="-0.36341">
        <ele>43.4</ele>
        <time>2013-06-08T08:00:02Z</time>
      </trkpt>
      <trkpt lat="44.69782" lon="-0.36321">
        <ele>43.4</ele>
        <time>2013-06-08T08:00:12Z</time>
      </trkpt>
      <trkpt lat="44.69777" lon="-0.36273">
        <ele>43.4</ele>
        <time>2013-06-08T08:00:33Z</time>
      </trkpt>
      <trkpt lat="44.69776" lon="-0.36271">
        <ele>43.4</ele>
        <time>2013-06-08T08:00:34Z</time>
      </trkpt>
      <trkpt lat="44.69774" lon="-0.36226">
        <ele>42.92</ele>
        <time>2013-06-08T08:00:52Z</time>
      </trkpt>
      <trkpt lat="44.69755" lon="-0.36191">
        <ele>41.47</ele>
        <time>2013-06-08T08:01:14Z</time>
      </trkpt>
      <trkpt lat="44.69752" lon="-0.36175">
        <ele>40.99</ele>
        <time>2013-06-08T08:01:20Z</time>
      </trkpt>
      <trkpt lat="44.69755" lon="-0.36125">
        <ele>40.51</ele>
        <time>2013-06-08T08:01:40Z</time>
      </trkpt>
      <trkpt lat="44.69753" lon="-0.36084">
        <ele>40.03</ele>
        <time>2013-06-08T08:01:58Z</time>
      </trkpt>
      <trkpt lat="44.69752" lon="-0.36045">
        <ele>39.55</ele>
        <time>2013-06-08T08:02:14Z</time>
      </trkpt>
      <trkpt lat="44.69754" lon="-0.36012">
        <ele>39.07</ele>
        <time>2013-06-08T08:02:30Z</time>
      </trkpt>
      <trkpt lat="44.69755" lon="-0.35964">
        <ele>37.63</ele>
        <time>2013-06-08T08:02:50Z</time>
      </trkpt>
      <trkpt lat="44.69755" lon="-0.35927">
        <ele>37.15</ele>
        <time>2013-06-08T08:03:07Z</time>
      </trkpt>
      <trkpt lat="44.69759" lon="-0.35895">
        <ele>35.71</ele>
        <time>2013-06-08T08:03:20Z</time>
      </trkpt>
      <trkpt lat="44.6975" lon="-0.35875">
        <ele>34.74</ele>
        <time>2013-06-08T08:03:30Z</time>
      </trkpt>
      <trkpt lat="44.69764" lon="-0.35851">
        <ele>33.78</ele>
        <time>2013-06-08T08:03:43Z</time>
      </trkpt>
      <trkpt lat="44.69792" lon="-0.35828">
        <ele>36.67</ele>
        <time>2013-06-08T08:04:02Z</time>
      </trkpt>
      <trkpt lat="44.69817" lon="-0.35814">
        <ele>38.59</ele>
        <time>2013-06-08T08:04:19Z</time>
      </trkpt>
      <trkpt lat="44.69839" lon="-0.35816">
        <ele>41.95</ele>
        <time>2013-06-08T08:04:33Z</time>
      </trkpt>
      <trkpt lat="44.69867" lon="-0.35825">
        <ele>43.88</ele>
        <time>2013-06-08T08:04:51Z</time>
      </trkpt>
      <trkpt lat="44.69896" lon="-0.35827">
        <ele>43.88</ele>
        <time>2013-06-08T08:05:10Z</time>
      </trkpt>
      <trkpt lat="44.69922" lon="-0.35827">
        <ele>44.84</ele>
        <time>2013-06-08T08:05:27Z</time>
      </trkpt>
      <trkpt lat="44.69946" lon="-0.35823">
        <ele>45.32</ele>
        <time>2013-06-08T08:05:42Z</time>
      </trkpt>
      <trkpt lat="44.69968" lon="-0.35814">
        <ele>45.8</ele>
        <time>2013-06-08T08:05:56Z</time>
      </trkpt>
      <trkpt lat="44.69989" lon="-0.35806">
        <ele>46.76</ele>
        <time>2013-06-08T08:06:09Z</time>
      </trkpt>
      <trkpt lat="44.70014" lon="-0.35795">
        <ele>47.72</ele>
        <time>2013-06-08T08:06:25Z</time>
      </trkpt>
      <trkpt lat="44.70033" lon="-0.35772">
        <ele>48.68</ele>
        <time>2013-06-08T08:06:40Z</time>
      </trkpt>
      <trkpt lat="44.70053" lon="-0.35748">
        <ele>49.65</ele>
        <time>2013-06-08T08:06:56Z</time>
      </trkpt>
      <trkpt lat="44.70075" lon="-0.35717">
        <ele>50.13</ele>
        <time>2013-06-08T08:07:16Z</time>
      </trkpt>
      <trkpt lat="44.70089" lon="-0.35688">
        <ele>50.61</ele>
        <time>2013-06-08T08:07:31Z</time>
      </trkpt>
      <trkpt lat="44.70106" lon="-0.35665">
        <ele>50.13</ele>
        <time>2013-06-08T08:07:45Z</time>
      </trkpt>
      <trkpt lat="44.70127" lon="-0.35645">
        <ele>48.2</ele>
        <time>2013-06-08T08:08:02Z</time>
      </trkpt>
      <trkpt lat="44.70136" lon="-0.35637">
        <ele>46.76</ele>
        <time>2013-06-08T08:08:09Z</time>
      </trkpt>
      <trkpt lat="44.70138" lon="-0.35637">
        <ele>46.28</ele>
        <time>2013-06-08T08:08:10Z</time>
      </trkpt>
      <trkpt lat="44.7014" lon="-0.35636">
        <ele>45.32</ele>
        <time>2013-06-08T08:08:11Z</time>
      </trkpt>
      <trkpt lat="44.70142" lon="-0.35636">
        <ele>45.8</ele>
        <time>2013-06-08T08:08:12Z</time>
      </trkpt>
      <trkpt lat="44.70151" lon="-0.35631">
        <ele>43.88</ele>
        <time>2013-06-08T08:08:16Z</time>
      </trkpt>
      <trkpt lat="44.70162" lon="-0.35623">
        <ele>42.92</ele>
        <time>2013-06-08T08:08:22Z</time>
      </trkpt>
      <trkpt lat="44.70169" lon="-0.35614">
        <ele>40.99</ele>
        <time>2013-06-08T08:08:29Z</time>
      </trkpt>
      <trkpt lat="44.7017" lon="-0.35612">
        <ele>40.99</ele>
        <time>2013-06-08T08:08:30Z</time>
      </trkpt>
      <trkpt lat="44.70165" lon="-0.35595">
        <ele>37.63</ele>
        <time>2013-06-08T08:08:36Z</time>
      </trkpt>
      <trkpt lat="44.70158" lon="-0.35552">
        <ele>35.23</ele>
        <time>2013-06-08T08:08:53Z</time>
      </trkpt>
      <trkpt lat="44.70157" lon="-0.35532">
        <ele>33.78</ele>
        <time>2013-06-08T08:09:09Z</time>
      </trkpt>
      <trkpt lat="44.70157" lon="-0.35529">
        <ele>34.74</ele>
        <time>2013-06-08T08:09:11Z</time>
      </trkpt>
      <trkpt lat="44.70157" lon="-0.35534">
        <ele>35.23</ele>
        <time>2013-06-08T08:09:26Z</time>
      </trkpt>
      <trkpt lat="44.70176" lon="-0.35543">
        <ele>38.59</ele>
        <time>2013-06-08T08:09:41Z</time>
      </trkpt>
      <trkpt lat="44.70186" lon="-0.3555">
        <ele>40.03</ele>
        <time>2013-06-08T08:09:48Z</time>
      </trkpt>
      <trkpt lat="44.70188" lon="-0.35563">
        <ele>40.51</ele>
        <time>2013-06-08T08:09:54Z</time>
      </trkpt>
      <trkpt lat="44.70205" lon="-0.35578">
        <ele>42.92</ele>
        <time>2013-06-08T08:10:12Z</time>
      </trkpt>
      <trkpt lat="44.70219" lon="-0.35585">
        <ele>43.4</ele>
        <time>2013-06-08T08:10:22Z</time>
      </trkpt>
      <trkpt lat="44.70223" lon="-0.35584">
        <ele>43.4</ele>
        <time>2013-06-08T08:10:24Z</time>
      </trkpt>
      <trkpt lat="44.70232" lon="-0.35599">
        <ele>44.84</ele>
        <time>2013-06-08T08:10:37Z</time>
      </trkpt>
      <trkpt lat="44.70231" lon="-0.35609">
        <ele>44.36</ele>
        <time>2013-06-08T08:10:42Z</time>
      </trkpt>
      <trkpt lat="44.70231" lon="-0.35633">
        <ele>43.88</ele>
        <time>2013-06-08T08:10:54Z</time>
      </trkpt>
      <trkpt lat="44.70241" lon="-0.35663">
        <ele>43.88</ele>
        <time>2013-06-08T08:11:11Z</time>
      </trkpt>
      <trkpt lat="44.70243" lon="-0.35666">
        <ele>43.4</ele>
        <time>2013-06-08T08:11:13Z</time>
      </trkpt>
      <trkpt lat="44.7026" lon="-0.35693">
        <ele>44.36</ele>
        <time>2013-06-08T08:11:31Z</time>
      </trkpt>
      <trkpt lat="44.70275" lon="-0.35729">
        <ele>44.84</ele>
        <time>2013-06-08T08:11:48Z</time>
      </trkpt>
      <trkpt lat="44.70292" lon="-0.35761">
        <ele>44.84</ele>
        <time>2013-06-08T08:12:05Z</time>
      </trkpt>
      <trkpt lat="44.70312" lon="-0.35793">
        <ele>45.32</ele>
        <time>2013-06-08T08:12:23Z</time>
      </trkpt>
      <trkpt lat="44.70331" lon="-0.35827">
        <ele>45.32</ele>
        <time>2013-06-08T08:12:42Z</time>
      </trkpt>
      <trkpt lat="44.70344" lon="-0.35862">
        <ele>46.28</ele>
        <time>2013-06-08T08:12:59Z</time>
      </trkpt>
      <trkpt lat="44.70357" lon="-0.35896">
        <ele>47.72</ele>
        <time>2013-06-08T08:13:15Z</time>
      </trkpt>
      <trkpt lat="44.70362" lon="-0.3593">
        <ele>47.24</ele>
        <time>2013-06-08T08:13:30Z</time>
      </trkpt>
      <trkpt lat="44.70371" lon="-0.35962">
        <ele>46.76</ele>
        <time>2013-06-08T08:13:45Z</time>
      </trkpt>
      <trkpt lat="44.70382" lon="-0.35994">
        <ele>47.24</ele>
        <time>2013-06-08T08:14:00Z</time>
      </trkpt>
      <trkpt lat="44.70383" lon="-0.35994">
        <ele>46.28</ele>
        <time>2013-06-08T08:14:01Z</time>
      </trkpt>
      <trkpt lat="44.70412" lon="-0.35986">
        <ele>48.2</ele>
        <time>2013-06-08T08:14:19Z</time>
      </trkpt>
      <trkpt lat="44.70438" lon="-0.35989">
        <ele>49.16</ele>
        <time>2013-06-08T08:14:35Z</time>
      </trkpt>
      <trkpt lat="44.70456" lon="-0.35996">
        <ele>49.65</ele>
        <time>2013-06-08T08:14:47Z</time>
      </trkpt>
      <trkpt lat="44.70457" lon="-0.35999">
        <ele>49.65</ele>
        <time>2013-06-08T08:14:48Z</time>
      </trkpt>
      <trkpt lat="44.70459" lon="-0.36021">
        <ele>50.61</ele>
        <time>2013-06-08T08:14:58Z</time>
      </trkpt>
      <trkpt lat="44.70475" lon="-0.36056">
        <ele>54.45</ele>
        <time>2013-06-08T08:15:16Z</time>
      </trkpt>
      <trkpt lat="44.70486" lon="-0.36081">
        <ele>57.82</ele>
        <time>2013-06-08T08:15:31Z</time>
      </trkpt>
      <trkpt lat="44.7049" lon="-0.36087">
        <ele>58.78</ele>
        <time>2013-06-08T08:15:35Z</time>
      </trkpt>
      <trkpt lat="44.70503" lon="-0.36107">
        <ele>61.66</ele>
        <time>2013-06-08T08:15:49Z</time>
      </trkpt>
      <trkpt lat="44.70525" lon="-0.36137">
        <ele>65.03</ele>
        <time>2013-06-08T08:16:10Z</time>
      </trkpt>
      <trkpt lat="44.70544" lon="-0.36162">
        <ele>67.91</ele>
        <time>2013-06-08T08:16:27Z</time>
      </trkpt>
      <trkpt lat="44.7056" lon="-0.36185">
        <ele>71.27</ele>
        <time>2013-06-08T08:16:42Z</time>
      </trkpt>
      <trkpt lat="44.70575" lon="-0.36206">
        <ele>74.64</ele>
        <time>2013-06-08T08:16:56Z</time>
      </trkpt>
      <trkpt lat="44.70593" lon="-0.36231">
        <ele>77.52</ele>
        <time>2013-06-08T08:17:14Z</time>
      </trkpt>
      <trkpt lat="44.7061" lon="-0.3626">
        <ele>80.89</ele>
        <time>2013-06-08T08:17:31Z</time>
      </trkpt>
      <trkpt lat="44.70628" lon="-0.36285">
        <ele>83.77</ele>
        <time>2013-06-08T08:17:48Z</time>
      </trkpt>
      <trkpt lat="44.70654" lon="-0.36314">
        <ele>85.21</ele>
        <time>2013-06-08T08:18:09Z</time>
      </trkpt>
      <trkpt lat="44.70668" lon="-0.36339">
        <ele>86.66</ele>
        <time>2013-06-08T08:18:26Z</time>
      </trkpt>
      <trkpt lat="44.70655" lon="-0.3636">
        <ele>85.69</ele>
        <time>2013-06-08T08:18:40Z</time>
      </trkpt>
      <trkpt lat="44.70632" lon="-0.36386">
        <ele>85.69</ele>
        <time>2013-06-08T08:18:58Z</time>
      </trkpt>
      <trkpt lat="44.70626" lon="-0.36405">
        <ele>85.21</ele>
        <time>2013-06-08T08:19:08Z</time>
      </trkpt>
      <trkpt lat="44.70627" lon="-0.36406">
        <ele>85.69</ele>
        <time>2013-06-08T08:19:09Z</time>
      </trkpt>
      <trkpt lat="44.70647" lon="-0.36434">
        <ele>87.62</ele>
        <time>2013-06-08T08:19:25Z</time>
      </trkpt>
      <trkpt lat="44.70665" lon="-0.36463">
        <ele>88.58</ele>
        <time>2013-06-08T08:19:42Z</time>
      </trkpt>
      <trkpt lat="44.70686" lon="-0.36494">
        <ele>88.58</ele>
        <time>2013-06-08T08:20:00Z</time>
      </trkpt>
      <trkpt lat="44.70705" lon="-0.36522">
        <ele>87.14</ele>
        <time>2013-06-08T08:20:17Z</time>
      </trkpt>
      <trkpt lat="44.70722" lon="-0.36548">
        <ele>86.66</ele>
        <time>2013-06-08T08:20:32Z</time>
      </trkpt>
      <trkpt lat="44.70742" lon="-0.36563">
        <ele>85.21</ele>
        <time>2013-06-08T08:20:48Z</time>
      </trkpt>
      <trkpt lat="44.70743" lon="-0.36561">
        <ele>84.73</ele>
        <time>2013-06-08T08:20:49Z</time>
      </trkpt>
      <trkpt lat="44.70748" lon="-0.36554">
        <ele>84.25</ele>
        <time>2013-06-08T08:20:53Z</time>
      </trkpt>
      <trkpt lat="44.70766" lon="-0.36528">
        <ele>82.33</ele>
        <time>2013-06-08T08:21:09Z</time>
      </trkpt>
      <trkpt lat="44.70781" lon="-0.36497">
        <ele>81.37</ele>
        <time>2013-06-08T08:21:25Z</time>
      </trkpt>
      <trkpt lat="44.70799" lon="-0.3647">
        <ele>79.93</ele>
        <time>2013-06-08T08:21:40Z</time>
      </trkpt>
      <trkpt lat="44.70818" lon="-0.36443">
        <ele>78.97</ele>
        <time>2013-06-08T08:21:57Z</time>
      </trkpt>
      <trkpt lat="44.70839" lon="-0.36415">
        <ele>78.97</ele>
        <time>2013-06-08T08:22:13Z</time>
      </trkpt>
      <trkpt lat="44.70859" lon="-0.36394">
        <ele>77.04</ele>
        <time>2013-06-08T08:22:28Z</time>
      </trkpt>
      <trkpt lat="44.70872" lon="-0.3638">
        <ele>75.6</ele>
        <time>2013-06-08T08:22:38Z</time>
      </trkpt>
      <trkpt lat="44.70878" lon="-0.36376">
        <ele>75.12</ele>
        <time>2013-06-08T08:22:42Z</time>
      </trkpt>
      <trkpt lat="44.70894" lon="-0.36395">
        <ele>71.76</ele>
        <time>2013-06-08T08:22:55Z</time>
      </trkpt>
      <trkpt lat="44.70909" lon="-0.36425">
        <ele>68.39</ele>
        <time>2013-06-08T08:23:10Z</time>
      </trkpt>
      <trkpt lat="44.7092" lon="-0.36443">
        <ele>66.95</ele>
        <time>2013-06-08T08:23:21Z</time>
      </trkpt>
      <trkpt lat="44.70939" lon="-0.3647">
        <ele>64.55</ele>
        <time>2013-06-08T08:23:37Z</time>
      </trkpt>
      <trkpt lat="44.7096" lon="-0.36499">
        <ele>62.62</ele>
        <time>2013-06-08T08:23:54Z</time>
      </trkpt>
      <trkpt lat="44.7098" lon="-0.36531">
        <ele>63.58</ele>
        <time>2013-06-08T08:24:12Z</time>
      </trkpt>
      <trkpt lat="44.71002" lon="-0.36559">
        <ele>62.62</ele>
        <time>2013-06-08T08:24:29Z</time>
      </trkpt>
      <trkpt lat="44.71018" lon="-0.36574">
        <ele>61.66</ele>
        <time>2013-06-08T08:24:42Z</time>
      </trkpt>
      <trkpt lat="44.7104" lon="-0.36549">
        <ele>62.62</ele>
        <time>2013-06-08T08:24:58Z</time>
      </trkpt>
      <trkpt lat="44.71058" lon="-0.36524">
        <ele>65.03</ele>
        <time>2013-06-08T08:25:14Z</time>
      </trkpt>
      <trkpt lat="44.71079" lon="-0.365">
        <ele>67.43</ele>
        <time>2013-06-08T08:25:32Z</time>
      </trkpt>
      <trkpt lat="44.71097" lon="-0.36482">
        <ele>69.35</ele>
        <time>2013-06-08T08:25:47Z</time>
      </trkpt>
      <trkpt lat="44.71116" lon="-0.36457">
        <ele>72.24</ele>
        <time>2013-06-08T08:26:04Z</time>
      </trkpt>
      <trkpt lat="44.71125" lon="-0.36444">
        <ele>73.68</ele>
        <time>2013-06-08T08:26:13Z</time>
      </trkpt>
      <trkpt lat="44.71143" lon="-0.36415">
        <ele>76.56</ele>
        <time>2013-06-08T08:26:32Z</time>
      </trkpt>
      <trkpt lat="44.71164" lon="-0.36388">
        <ele>78</ele>
        <time>2013-06-08T08:26:49Z</time>
      </trkpt>
      <trkpt lat="44.71171" lon="-0.36381">
        <ele>77.52</ele>
        <time>2013-06-08T08:26:56Z</time>
      </trkpt>
      <trkpt lat="44.71169" lon="-0.36374">
        <ele>78</ele>
        <time>2013-06-08T08:27:00Z</time>
      </trkpt>
      <trkpt lat="44.71159" lon="-0.36334">
        <ele>79.93</ele>
        <time>2013-06-08T08:27:20Z</time>
      </trkpt>
      <trkpt lat="44.71159" lon="-0.36293">
        <ele>78</ele>
        <time>2013-06-08T08:27:37Z</time>
      </trkpt>
      <trkpt lat="44.71156" lon="-0.36254">
        <ele>77.52</ele>
        <time>2013-06-08T08:27:53Z</time>
      </trkpt>
      <trkpt lat="44.71148" lon="-0.36219">
        <ele>76.56</ele>
        <time>2013-06-08T08:28:08Z</time>
      </trkpt>
      <trkpt lat="44.71148" lon="-0.36214">
        <ele>76.08</ele>
        <time>2013-06-08T08:28:10Z</time>
      </trkpt>
      <trkpt lat="44.71141" lon="-0.3618">
        <ele>75.6</ele>
        <time>2013-06-08T08:28:25Z</time>
      </trkpt>
      <trkpt lat="44.71141" lon="-0.36152">
        <ele>75.6</ele>
        <time>2013-06-08T08:28:38Z</time>
      </trkpt>
      <trkpt lat="44.71138" lon="-0.36122">
        <ele>75.6</ele>
        <time>2013-06-08T08:28:53Z</time>
      </trkpt>
      <trkpt lat="44.71126" lon="-0.36102">
        <ele>76.56</ele>
        <time>2013-06-08T08:29:06Z</time>
      </trkpt>
      <trkpt lat="44.71115" lon="-0.36069">
        <ele>79.45</ele>
        <time>2013-06-08T08:29:23Z</time>
      </trkpt>
      <trkpt lat="44.71105" lon="-0.36043">
        <ele>82.33</ele>
        <time>2013-06-08T08:29:39Z</time>
      </trkpt>
      <trkpt lat="44.71101" lon="-0.3602">
        <ele>85.69</ele>
        <time>2013-06-08T08:29:51Z</time>
      </trkpt>
      <trkpt lat="44.711" lon="-0.35995">
        <ele>88.58</ele>
        <time>2013-06-08T08:30:03Z</time>
      </trkpt>
      <trkpt lat="44.71098" lon="-0.35966">
        <ele>91.46</ele>
        <time>2013-06-08T08:30:18Z</time>
      </trkpt>
      <trkpt lat="44.71092" lon="-0.35963">
        <ele>91.94</ele>
        <time>2013-06-08T08:30:23Z</time>
      </trkpt>
      <trkpt lat="44.71082" lon="-0.35926">
        <ele>93.39</ele>
        <time>2013-06-08T08:30:42Z</time>
      </trkpt>
      <trkpt lat="44.71067" lon="-0.35893">
        <ele>94.35</ele>
        <time>2013-06-08T08:30:59Z</time>
      </trkpt>
      <trkpt lat="44.71062" lon="-0.35865">
        <ele>93.87</ele>
        <time>2013-06-08T08:31:13Z</time>
      </trkpt>
      <trkpt lat="44.71055" lon="-0.35835">
        <ele>95.31</ele>
        <time>2013-06-08T08:31:27Z</time>
      </trkpt>
      <trkpt lat="44.71046" lon="-0.35793">
        <ele>94.35</ele>
        <time>2013-06-08T08:31:45Z</time>
      </trkpt>
      <trkpt lat="44.71051" lon="-0.35764">
        <ele>94.35</ele>
        <time>2013-06-08T08:31:58Z</time>
      </trkpt>
      <trkpt lat="44.71048" lon="-0.35723">
        <ele>93.87</ele>
        <time>2013-06-08T08:32:16Z</time>
      </trkpt>
      <trkpt lat="44.71049" lon="-0.35703">
        <ele>92.42</ele>
        <time>2013-06-08T08:32:26Z</time>
      </trkpt>
      <trkpt lat="44.71075" lon="-0.35695">
        <ele>90.98</ele>
        <time>2013-06-08T08:32:42Z</time>
      </trkpt>
      <trkpt lat="44.71079" lon="-0.35695">
        <ele>90.5</ele>
        <time>2013-06-08T08:32:44Z</time>
      </trkpt>
      <trkpt lat="44.71106" lon="-0.35691">
        <ele>88.58</ele>
        <time>2013-06-08T08:32:59Z</time>
      </trkpt>
      <trkpt lat="44.71125" lon="-0.35689">
        <ele>86.66</ele>
        <time>2013-06-08T08:33:12Z</time>
      </trkpt>
      <trkpt lat="44.71147" lon="-0.35685">
        <ele>83.77</ele>
        <time>2013-06-08T08:33:26Z</time>
      </trkpt>
      <trkpt lat="44.71159" lon="-0.35683">
        <ele>82.33</ele>
        <time>2013-06-08T08:33:33Z</time>
      </trkpt>
      <trkpt lat="44.71184" lon="-0.3567">
        <ele>80.89</ele>
        <time>2013-06-08T08:33:48Z</time>
      </trkpt>
      <trkpt lat="44.71208" lon="-0.35655">
        <ele>78</ele>
        <time>2013-06-08T08:34:05Z</time>
      </trkpt>
      <trkpt lat="44.71234" lon="-0.35637">
        <ele>76.56</ele>
        <time>2013-06-08T08:34:20Z</time>
      </trkpt>
      <trkpt lat="44.71258" lon="-0.3562">
        <ele>76.56</ele>
        <time>2013-06-08T08:34:35Z</time>
      </trkpt>
      <trkpt lat="44.71283" lon="-0.35606">
        <ele>75.6</ele>
        <time>2013-06-08T08:34:53Z</time>
      </trkpt>
      <trkpt lat="44.71302" lon="-0.35587">
        <ele>76.56</ele>
        <time>2013-06-08T08:35:08Z</time>
      </trkpt>
      <trkpt lat="44.71323" lon="-0.35567">
        <ele>76.56</ele>
        <time>2013-06-08T08:35:25Z</time>
      </trkpt>
      <trkpt lat="44.71345" lon="-0.35552">
        <ele>76.56</ele>
        <time>2013-06-08T08:35:42Z</time>
      </trkpt>
      <trkpt lat="44.7136" lon="-0.35537">
        <ele>76.08</ele>
        <time>2013-06-08T08:35:56Z</time>
      </trkpt>
      <trkpt lat="44.71365" lon="-0.35529">
        <ele>75.6</ele>
        <time>2013-06-08T08:36:01Z</time>
      </trkpt>
      <trkpt lat="44.7139" lon="-0.35515">
        <ele>73.2</ele>
        <time>2013-06-08T08:36:19Z</time>
      </trkpt>
      <trkpt lat="44.71413" lon="-0.35504">
        <ele>71.76</ele>
        <time>2013-06-08T08:36:32Z</time>
      </trkpt>
      <trkpt lat="44.7142" lon="-0.35481">
        <ele>67.43</ele>
        <time>2013-06-08T08:36:43Z</time>
      </trkpt>
      <trkpt lat="44.71423" lon="-0.35454">
        <ele>64.55</ele>
        <time>2013-06-08T08:36:53Z</time>
      </trkpt>
      <trkpt lat="44.71423" lon="-0.35425">
        <ele>60.22</ele>
        <time>2013-06-08T08:37:03Z</time>
      </trkpt>
      <trkpt lat="44.71421" lon="-0.35402">
        <ele>56.86</ele>
        <time>2013-06-08T08:37:11Z</time>
      </trkpt>
      <trkpt lat="44.71419" lon="-0.35386">
        <ele>54.93</ele>
        <time>2013-06-08T08:37:16Z</time>
      </trkpt>
      <trkpt lat="44.71427" lon="-0.35346">
        <ele>53.01</ele>
        <time>2013-06-08T08:37:30Z</time>
      </trkpt>
      <trkpt lat="44.71451" lon="-0.35312">
        <ele>52.53</ele>
        <time>2013-06-08T08:37:50Z</time>
      </trkpt>
      <trkpt lat="44.71457" lon="-0.35307">
        <ele>52.53</ele>
        <time>2013-06-08T08:37:54Z</time>
      </trkpt>
      <trkpt lat="44.71458" lon="-0.35304">
        <ele>52.53</ele>
        <time>2013-06-08T08:37:56Z</time>
      </trkpt>
      <trkpt lat="44.71482" lon="-0.35289">
        <ele>53.49</ele>
        <time>2013-06-08T08:38:11Z</time>
      </trkpt>
      <trkpt lat="44.715" lon="-0.35275">
        <ele>56.37</ele>
        <time>2013-06-08T08:38:26Z</time>
      </trkpt>
      <trkpt lat="44.71512" lon="-0.35262">
        <ele>58.3</ele>
        <time>2013-06-08T08:38:37Z</time>
      </trkpt>
      <trkpt lat="44.71522" lon="-0.35254">
        <ele>61.66</ele>
        <time>2013-06-08T08:38:49Z</time>
      </trkpt>
      <trkpt lat="44.71534" lon="-0.35257">
        <ele>63.58</ele>
        <time>2013-06-08T08:38:59Z</time>
      </trkpt>
      <trkpt lat="44.71544" lon="-0.35261">
        <ele>64.55</ele>
        <time>2013-06-08T08:39:05Z</time>
      </trkpt>
      <trkpt lat="44.71559" lon="-0.35255">
        <ele>67.43</ele>
        <time>2013-06-08T08:39:19Z</time>
      </trkpt>
      <trkpt lat="44.7156" lon="-0.35254">
        <ele>67.43</ele>
        <time>2013-06-08T08:39:20Z</time>
      </trkpt>
      <trkpt lat="44.71567" lon="-0.35238">
        <ele>70.31</ele>
        <time>2013-06-08T08:39:32Z</time>
      </trkpt>
      <trkpt lat="44.71575" lon="-0.35222">
        <ele>72.72</ele>
        <time>2013-06-08T08:39:43Z</time>
      </trkpt>
      <trkpt lat="44.71588" lon="-0.35204">
        <ele>76.08</ele>
        <time>2013-06-08T08:39:57Z</time>
      </trkpt>
      <trkpt lat="44.71593" lon="-0.35189">
        <ele>77.52</ele>
        <time>2013-06-08T08:40:09Z</time>
      </trkpt>
      <trkpt lat="44.71593" lon="-0.35185">
        <ele>78.48</ele>
        <time>2013-06-08T08:40:11Z</time>
      </trkpt>
      <trkpt lat="44.7159" lon="-0.35174">
        <ele>79.45</ele>
        <time>2013-06-08T08:40:17Z</time>
      </trkpt>
      <trkpt lat="44.71596" lon="-0.35169">
        <ele>79.45</ele>
        <time>2013-06-08T08:40:21Z</time>
      </trkpt>
      <trkpt lat="44.71621" lon="-0.3515">
        <ele>79.45</ele>
        <time>2013-06-08T08:40:39Z</time>
      </trkpt>
      <trkpt lat="44.7163" lon="-0.35126">
        <ele>79.45</ele>
        <time>2013-06-08T08:40:52Z</time>
      </trkpt>
      <trkpt lat="44.7165" lon="-0.35112">
        <ele>77.52</ele>
        <time>2013-06-08T08:41:05Z</time>
      </trkpt>
      <trkpt lat="44.71673" lon="-0.35096">
        <ele>74.16</ele>
        <time>2013-06-08T08:41:21Z</time>
      </trkpt>
      <trkpt lat="44.71695" lon="-0.35077">
        <ele>72.24</ele>
        <time>2013-06-08T08:41:37Z</time>
      </trkpt>
      <trkpt lat="44.71695" lon="-0.35075">
        <ele>71.76</ele>
        <time>2013-06-08T08:41:38Z</time>
      </trkpt>
      <trkpt lat="44.71695" lon="-0.35074">
        <ele>71.76</ele>
        <time>2013-06-08T08:41:39Z</time>
      </trkpt>
      <trkpt lat="44.71696" lon="-0.35072">
        <ele>70.79</ele>
        <time>2013-06-08T08:41:40Z</time>
      </trkpt>
      <trkpt lat="44.71696" lon="-0.3507">
        <ele>71.76</ele>
        <time>2013-06-08T08:41:41Z</time>
      </trkpt>
      <trkpt lat="44.71707" lon="-0.35045">
        <ele>67.91</ele>
        <time>2013-06-08T08:41:55Z</time>
      </trkpt>
      <trkpt lat="44.71706" lon="-0.35013">
        <ele>65.99</ele>
        <time>2013-06-08T08:42:09Z</time>
      </trkpt>
      <trkpt lat="44.71704" lon="-0.35004">
        <ele>65.51</ele>
        <time>2013-06-08T08:42:13Z</time>
      </trkpt>
      <trkpt lat="44.71701" lon="-0.34988">
        <ele>65.51</ele>
        <time>2013-06-08T08:42:20Z</time>
      </trkpt>
      <trkpt lat="44.71694" lon="-0.34952">
        <ele>65.51</ele>
        <time>2013-06-08T08:42:36Z</time>
      </trkpt>
      <trkpt lat="44.71693" lon="-0.34938">
        <ele>65.51</ele>
        <time>2013-06-08T08:42:42Z</time>
      </trkpt>
      <trkpt lat="44.71712" lon="-0.34929">
        <ele>63.58</ele>
        <time>2013-06-08T08:42:54Z</time>
      </trkpt>
      <trkpt lat="44.71723" lon="-0.34928">
        <ele>62.14</ele>
        <time>2013-06-08T08:43:01Z</time>
      </trkpt>
      <trkpt lat="44.71742" lon="-0.34899">
        <ele>61.18</ele>
        <time>2013-06-08T08:43:18Z</time>
      </trkpt>
      <trkpt lat="44.71757" lon="-0.34872">
        <ele>60.22</ele>
        <time>2013-06-08T08:43:33Z</time>
      </trkpt>
      <trkpt lat="44.71765" lon="-0.34843">
        <ele>59.26</ele>
        <time>2013-06-08T08:43:46Z</time>
      </trkpt>
      <trkpt lat="44.71766" lon="-0.34809">
        <ele>57.82</ele>
        <time>2013-06-08T08:44:01Z</time>
      </trkpt>
      <trkpt lat="44.71774" lon="-0.34795">
        <ele>56.86</ele>
        <time>2013-06-08T08:44:08Z</time>
      </trkpt>
      <trkpt lat="44.71775" lon="-0.34793">
        <ele>57.34</ele>
        <time>2013-06-08T08:44:09Z</time>
      </trkpt>
      <trkpt lat="44.71776" lon="-0.34791">
        <ele>56.86</ele>
        <time>2013-06-08T08:44:10Z</time>
      </trkpt>
      <trkpt lat="44.71777" lon="-0.34762">
        <ele>58.3</ele>
        <time>2013-06-08T08:44:23Z</time>
      </trkpt>
      <trkpt lat="44.71773" lon="-0.34728">
        <ele>59.26</ele>
        <time>2013-06-08T08:44:39Z</time>
      </trkpt>
      <trkpt lat="44.71768" lon="-0.34695">
        <ele>59.26</ele>
        <time>2013-06-08T08:44:54Z</time>
      </trkpt>
      <trkpt lat="44.71761" lon="-0.34658">
        <ele>59.26</ele>
        <time>2013-06-08T08:45:10Z</time>
      </trkpt>
      <trkpt lat="44.71761" lon="-0.34642">
        <ele>58.78</ele>
        <time>2013-06-08T08:45:17Z</time>
      </trkpt>
      <trkpt lat="44.71762" lon="-0.3464">
        <ele>58.78</ele>
        <time>2013-06-08T08:45:18Z</time>
      </trkpt>
      <trkpt lat="44.71785" lon="-0.34634">
        <ele>55.89</ele>
        <time>2013-06-08T08:45:32Z</time>
      </trkpt>
      <trkpt lat="44.71808" lon="-0.34622">
        <ele>54.93</ele>
        <time>2013-06-08T08:45:47Z</time>
      </trkpt>
      <trkpt lat="44.71832" lon="-0.34606">
        <ele>53.01</ele>
        <time>2013-06-08T08:46:03Z</time>
      </trkpt>
      <trkpt lat="44.71854" lon="-0.34594">
        <ele>52.05</ele>
        <time>2013-06-08T08:46:17Z</time>
      </trkpt>
      <trkpt lat="44.71874" lon="-0.34582">
        <ele>49.65</ele>
        <time>2013-06-08T08:46:31Z</time>
      </trkpt>
      <trkpt lat="44.71893" lon="-0.34569">
        <ele>47.72</ele>
        <time>2013-06-08T08:46:44Z</time>
      </trkpt>
      <trkpt lat="44.71903" lon="-0.34562">
        <ele>46.76</ele>
        <time>2013-06-08T08:46:51Z</time>
      </trkpt>
      <trkpt lat="44.71923" lon="-0.3455">
        <ele>45.32</ele>
        <time>2013-06-08T08:47:04Z</time>
      </trkpt>
      <trkpt lat="44.71947" lon="-0.34535">
        <ele>44.36</ele>
        <time>2013-06-08T08:47:20Z</time>
      </trkpt>
      <trkpt lat="44.71971" lon="-0.34514">
        <ele>42.92</ele>
        <time>2013-06-08T08:47:36Z</time>
      </trkpt>
      <trkpt lat="44.71992" lon="-0.34506">
        <ele>42.44</ele>
        <time>2013-06-08T08:47:49Z</time>
      </trkpt>
      <trkpt lat="44.72015" lon="-0.34499">
        <ele>41.47</ele>
        <time>2013-06-08T08:48:04Z</time>
      </trkpt>
      <trkpt lat="44.72024" lon="-0.34496">
        <ele>41.47</ele>
        <time>2013-06-08T08:48:10Z</time>
      </trkpt>
      <trkpt lat="44.72037" lon="-0.345">
        <ele>41.47</ele>
        <time>2013-06-08T08:48:19Z</time>
      </trkpt>
      <trkpt lat="44.72045" lon="-0.34466">
        <ele>40.03</ele>
        <time>2013-06-08T08:48:35Z</time>
      </trkpt>
      <trkpt lat="44.72056" lon="-0.34441">
        <ele>40.51</ele>
        <time>2013-06-08T08:48:49Z</time>
      </trkpt>
      <trkpt lat="44.72068" lon="-0.3441">
        <ele>40.99</ele>
        <time>2013-06-08T08:49:04Z</time>
      </trkpt>
      <trkpt lat="44.72078" lon="-0.34384">
        <ele>43.88</ele>
        <time>2013-06-08T08:49:18Z</time>
      </trkpt>
      <trkpt lat="44.72083" lon="-0.34367">
        <ele>47.24</ele>
        <time>2013-06-08T08:49:30Z</time>
      </trkpt>
      <trkpt lat="44.72083" lon="-0.34338">
        <ele>47.72</ele>
        <time>2013-06-08T08:49:43Z</time>
      </trkpt>
      <trkpt lat="44.72098" lon="-0.34301">
        <ele>48.68</ele>
        <time>2013-06-08T08:50:02Z</time>
      </trkpt>
      <trkpt lat="44.72098" lon="-0.34295">
        <ele>48.68</ele>
        <time>2013-06-08T08:50:05Z</time>
      </trkpt>
      <trkpt lat="44.72099" lon="-0.34282">
        <ele>49.16</ele>
        <time>2013-06-08T08:50:11Z</time>
      </trkpt>
      <trkpt lat="44.72095" lon="-0.34238">
        <ele>49.65</ele>
        <time>2013-06-08T08:50:31Z</time>
      </trkpt>
      <trkpt lat="44.72088" lon="-0.34197">
        <ele>50.13</ele>
        <time>2013-06-08T08:50:50Z</time>
      </trkpt>
      <trkpt lat="44.72083" lon="-0.34163">
        <ele>52.05</ele>
        <time>2013-06-08T08:51:04Z</time>
      </trkpt>
      <trkpt lat="44.72076" lon="-0.3413">
        <ele>53.49</ele>
        <time>2013-06-08T08:51:21Z</time>
      </trkpt>
      <trkpt lat="44.72071" lon="-0.34087">
        <ele>54.45</ele>
        <time>2013-06-08T08:51:41Z</time>
      </trkpt>
      <trkpt lat="44.72065" lon="-0.34056">
        <ele>54.45</ele>
        <time>2013-06-08T08:51:55Z</time>
      </trkpt>
      <trkpt lat="44.72056" lon="-0.34032">
        <ele>56.37</ele>
        <time>2013-06-08T08:52:08Z</time>
      </trkpt>
      <trkpt lat="44.72044" lon="-0.3403">
        <ele>57.82</ele>
        <time>2013-06-08T08:52:18Z</time>
      </trkpt>
      <trkpt lat="44.72034" lon="-0.34022">
        <ele>59.26</ele>
        <time>2013-06-08T08:52:27Z</time>
      </trkpt>
      <trkpt lat="44.72015" lon="-0.33987">
        <ele>61.66</ele>
        <time>2013-06-08T08:52:44Z</time>
      </trkpt>
      <trkpt lat="44.71993" lon="-0.33976">
        <ele>64.07</ele>
        <time>2013-06-08T08:53:03Z</time>
      </trkpt>
      <trkpt lat="44.71971" lon="-0.33964">
        <ele>66.47</ele>
        <time>2013-06-08T08:53:22Z</time>
      </trkpt>
      <trkpt lat="44.71949" lon="-0.33954">
        <ele>69.83</ele>
        <time>2013-06-08T08:53:40Z</time>
      </trkpt>
      <trkpt lat="44.71925" lon="-0.33948">
        <ele>72.72</ele>
        <time>2013-06-08T08:54:00Z</time>
      </trkpt>
      <trkpt lat="44.71905" lon="-0.33953">
        <ele>76.08</ele>
        <time>2013-06-08T08:54:17Z</time>
      </trkpt>
      <trkpt lat="44.71896" lon="-0.33974">
        <ele>78.97</ele>
        <time>2013-06-08T08:54:33Z</time>
      </trkpt>
      <trkpt lat="44.71883" lon="-0.33984">
        <ele>80.41</ele>
        <time>2013-06-08T08:54:42Z</time>
      </trkpt>
      <trkpt lat="44.71879" lon="-0.33986">
        <ele>80.89</ele>
        <time>2013-06-08T08:54:45Z</time>
      </trkpt>
      <trkpt lat="44.71848" lon="-0.33982">
        <ele>83.29</ele>
        <time>2013-06-08T08:55:05Z</time>
      </trkpt>
      <trkpt lat="44.71822" lon="-0.33962">
        <ele>86.18</ele>
        <time>2013-06-08T08:55:26Z</time>
      </trkpt>
      <trkpt lat="44.71815" lon="-0.33955">
        <ele>86.66</ele>
        <time>2013-06-08T08:55:32Z</time>
      </trkpt>
      <trkpt lat="44.71795" lon="-0.33929">
        <ele>88.58</ele>
        <time>2013-06-08T08:55:53Z</time>
      </trkpt>
      <trkpt lat="44.71777" lon="-0.33907">
        <ele>90.5</ele>
        <time>2013-06-08T08:56:10Z</time>
      </trkpt>
      <trkpt lat="44.71753" lon="-0.3388">
        <ele>92.9</ele>
        <time>2013-06-08T08:56:30Z</time>
      </trkpt>
      <trkpt lat="44.7173" lon="-0.33869">
        <ele>94.35</ele>
        <time>2013-06-08T08:56:48Z</time>
      </trkpt>
      <trkpt lat="44.71729" lon="-0.33868">
        <ele>94.83</ele>
        <time>2013-06-08T08:56:49Z</time>
      </trkpt>
      <trkpt lat="44.71697" lon="-0.33857">
        <ele>95.31</ele>
        <time>2013-06-08T08:57:10Z</time>
      </trkpt>
      <trkpt lat="44.71673" lon="-0.3385">
        <ele>97.23</ele>
        <time>2013-06-08T08:57:27Z</time>
      </trkpt>
      <trkpt lat="44.71669" lon="-0.33845">
        <ele>97.23</ele>
        <time>2013-06-08T08:57:30Z</time>
      </trkpt>
      <trkpt lat="44.71661" lon="-0.3384">
        <ele>97.71</ele>
        <time>2013-06-08T08:57:36Z</time>
      </trkpt>
      <trkpt lat="44.71653" lon="-0.33842">
        <ele>97.71</ele>
        <time>2013-06-08T08:57:42Z</time>
      </trkpt>
      <trkpt lat="44.71628" lon="-0.3386">
        <ele>94.35</ele>
        <time>2013-06-08T08:57:59Z</time>
      </trkpt>
      <trkpt lat="44.71602" lon="-0.33858">
        <ele>91.94</ele>
        <time>2013-06-08T08:58:15Z</time>
      </trkpt>
      <trkpt lat="44.71576" lon="-0.33846">
        <ele>90.02</ele>
        <time>2013-06-08T08:58:31Z</time>
      </trkpt>
      <trkpt lat="44.71573" lon="-0.33841">
        <ele>89.54</ele>
        <time>2013-06-08T08:58:34Z</time>
      </trkpt>
      <trkpt lat="44.71559" lon="-0.33802">
        <ele>91.94</ele>
        <time>2013-06-08T08:58:53Z</time>
      </trkpt>
      <trkpt lat="44.71551" lon="-0.33771">
        <ele>90.98</ele>
        <time>2013-06-08T08:59:09Z</time>
      </trkpt>
      <trkpt lat="44.71544" lon="-0.33737">
        <ele>89.54</ele>
        <time>2013-06-08T08:59:25Z</time>
      </trkpt>
      <trkpt lat="44.71534" lon="-0.337">
        <ele>88.1</ele>
        <time>2013-06-08T08:59:42Z</time>
      </trkpt>
      <trkpt lat="44.71533" lon="-0.33693">
        <ele>87.62</ele>
        <time>2013-06-08T08:59:45Z</time>
      </trkpt>
      <trkpt lat="44.7154" lon="-0.33672">
        <ele>90.98</ele>
        <time>2013-06-08T08:59:57Z</time>
      </trkpt>
      <trkpt lat="44.71531" lon="-0.3364">
        <ele>93.87</ele>
        <time>2013-06-08T09:00:13Z</time>
      </trkpt>
      <trkpt lat="44.71521" lon="-0.33606">
        <ele>97.23</ele>
        <time>2013-06-08T09:00:31Z</time>
      </trkpt>
      <trkpt lat="44.7151" lon="-0.33569">
        <ele>98.67</ele>
        <time>2013-06-08T09:00:52Z</time>
      </trkpt>
      <trkpt lat="44.71497" lon="-0.33528">
        <ele>99.63</ele>
        <time>2013-06-08T09:01:14Z</time>
      </trkpt>
      <trkpt lat="44.7148" lon="-0.33507">
        <ele>99.63</ele>
        <time>2013-06-08T09:01:31Z</time>
      </trkpt>
      <trkpt lat="44.71478" lon="-0.33507">
        <ele>99.63</ele>
        <time>2013-06-08T09:01:32Z</time>
      </trkpt>
      <trkpt lat="44.71468" lon="-0.33491">
        <ele>99.63</ele>
        <time>2013-06-08T09:01:41Z</time>
      </trkpt>
      <trkpt lat="44.71457" lon="-0.33452">
        <ele>99.15</ele>
        <time>2013-06-08T09:01:59Z</time>
      </trkpt>
      <trkpt lat="44.71447" lon="-0.33418">
        <ele>97.23</ele>
        <time>2013-06-08T09:02:15Z</time>
      </trkpt>
      <trkpt lat="44.71437" lon="-0.33383">
        <ele>96.27</ele>
        <time>2013-06-08T09:02:32Z</time>
      </trkpt>
      <trkpt lat="44.71426" lon="-0.33353">
        <ele>96.27</ele>
        <time>2013-06-08T09:02:47Z</time>
      </trkpt>
      <trkpt lat="44.71417" lon="-0.33317">
        <ele>96.75</ele>
        <time>2013-06-08T09:03:04Z</time>
      </trkpt>
      <trkpt lat="44.71407" lon="-0.33282">
        <ele>96.27</ele>
        <time>2013-06-08T09:03:21Z</time>
      </trkpt>
      <trkpt lat="44.71396" lon="-0.33251">
        <ele>96.75</ele>
        <time>2013-06-08T09:03:37Z</time>
      </trkpt>
      <trkpt lat="44.71384" lon="-0.3321">
        <ele>95.79</ele>
        <time>2013-06-08T09:03:57Z</time>
      </trkpt>
      <trkpt lat="44.71372" lon="-0.3317">
        <ele>97.23</ele>
        <time>2013-06-08T09:04:17Z</time>
      </trkpt>
      <trkpt lat="44.71364" lon="-0.33147">
        <ele>96.75</ele>
        <time>2013-06-08T09:04:30Z</time>
      </trkpt>
      <trkpt lat="44.71347" lon="-0.3315">
        <ele>96.27</ele>
        <time>2013-06-08T09:04:41Z</time>
      </trkpt>
      <trkpt lat="44.71345" lon="-0.3314">
        <ele>96.27</ele>
        <time>2013-06-08T09:04:45Z</time>
      </trkpt>
      <trkpt lat="44.71341" lon="-0.33095">
        <ele>96.27</ele>
        <time>2013-06-08T09:05:05Z</time>
      </trkpt>
      <trkpt lat="44.71339" lon="-0.3306">
        <ele>96.27</ele>
        <time>2013-06-08T09:05:21Z</time>
      </trkpt>
      <trkpt lat="44.71333" lon="-0.33033">
        <ele>96.75</ele>
        <time>2013-06-08T09:05:36Z</time>
      </trkpt>
      <trkpt lat="44.71306" lon="-0.33038">
        <ele>95.79</ele>
        <time>2013-06-08T09:05:53Z</time>
      </trkpt>
      <trkpt lat="44.71285" lon="-0.33009">
        <ele>95.31</ele>
        <time>2013-06-08T09:06:12Z</time>
      </trkpt>
      <trkpt lat="44.71283" lon="-0.33006">
        <ele>95.31</ele>
        <time>2013-06-08T09:06:26Z</time>
      </trkpt>
      <trkpt lat="44.71284" lon="-0.33005">
        <ele>95.79</ele>
        <time>2013-06-08T09:06:44Z</time>
      </trkpt>
      <trkpt lat="44.71284" lon="-0.33006">
        <ele>95.79</ele>
        <time>2013-06-08T09:07:03Z</time>
      </trkpt>
      <trkpt lat="44.71283" lon="-0.33005">
        <ele>95.79</ele>
        <time>2013-06-08T09:07:20Z</time>
      </trkpt>
      <trkpt lat="44.71284" lon="-0.33003">
        <ele>95.79</ele>
        <time>2013-06-08T09:07:37Z</time>
      </trkpt>
      <trkpt lat="44.71284" lon="-0.33003">
        <ele>95.79</ele>
        <time>2013-06-08T09:07:56Z</time>
      </trkpt>
      <trkpt lat="44.71284" lon="-0.33004">
        <ele>96.27</ele>
        <time>2013-06-08T09:08:18Z</time>
      </trkpt>
      <trkpt lat="44.71284" lon="-0.33005">
        <ele>95.79</ele>
        <time>2013-06-08T09:08:39Z</time>
      </trkpt>
      <trkpt lat="44.71286" lon="-0.33004">
        <ele>96.75</ele>
        <time>2013-06-08T09:08:55Z</time>
      </trkpt>
      <trkpt lat="44.71287" lon="-0.33004">
        <ele>96.75</ele>
        <time>2013-06-08T09:08:57Z</time>
      </trkpt>
      <trkpt lat="44.71288" lon="-0.32988">
        <ele>96.75</ele>
        <time>2013-06-08T09:09:06Z</time>
      </trkpt>
      <trkpt lat="44.71288" lon="-0.32948">
        <ele>96.27</ele>
        <time>2013-06-08T09:09:26Z</time>
      </trkpt>
      <trkpt lat="44.71297" lon="-0.32914">
        <ele>96.27</ele>
        <time>2013-06-08T09:09:42Z</time>
      </trkpt>
      <trkpt lat="44.71312" lon="-0.32877">
        <ele>97.71</ele>
        <time>2013-06-08T09:10:01Z</time>
      </trkpt>
      <trkpt lat="44.71323" lon="-0.32843">
        <ele>98.67</ele>
        <time>2013-06-08T09:10:17Z</time>
      </trkpt>
      <trkpt lat="44.71336" lon="-0.32812">
        <ele>98.67</ele>
        <time>2013-06-08T09:10:33Z</time>
      </trkpt>
      <trkpt lat="44.71341" lon="-0.32802">
        <ele>99.15</ele>
        <time>2013-06-08T09:10:39Z</time>
      </trkpt>
      <trkpt lat="44.71359" lon="-0.32772">
        <ele>99.15</ele>
        <time>2013-06-08T09:10:57Z</time>
      </trkpt>
      <trkpt lat="44.7137" lon="-0.32751">
        <ele>96.75</ele>
        <time>2013-06-08T09:11:08Z</time>
      </trkpt>
      <trkpt lat="44.71382" lon="-0.32727">
        <ele>94.83</ele>
        <time>2013-06-08T09:11:22Z</time>
      </trkpt>
      <trkpt lat="44.71393" lon="-0.32697">
        <ele>93.39</ele>
        <time>2013-06-08T09:11:37Z</time>
      </trkpt>
      <trkpt lat="44.71402" lon="-0.3267">
        <ele>91.46</ele>
        <time>2013-06-08T09:11:50Z</time>
      </trkpt>
      <trkpt lat="44.71414" lon="-0.32646">
        <ele>90.02</ele>
        <time>2013-06-08T09:12:03Z</time>
      </trkpt>
      <trkpt lat="44.7143" lon="-0.32623">
        <ele>88.58</ele>
        <time>2013-06-08T09:12:18Z</time>
      </trkpt>
      <trkpt lat="44.71434" lon="-0.32618">
        <ele>88.1</ele>
        <time>2013-06-08T09:12:22Z</time>
      </trkpt>
      <trkpt lat="44.71436" lon="-0.32617">
        <ele>87.62</ele>
        <time>2013-06-08T09:12:23Z</time>
      </trkpt>
      <trkpt lat="44.71438" lon="-0.32615">
        <ele>87.14</ele>
        <time>2013-06-08T09:12:24Z</time>
      </trkpt>
      <trkpt lat="44.71439" lon="-0.32614">
        <ele>87.14</ele>
        <time>2013-06-08T09:12:25Z</time>
      </trkpt>
      <trkpt lat="44.7144" lon="-0.32612">
        <ele>86.66</ele>
        <time>2013-06-08T09:12:26Z</time>
      </trkpt>
      <trkpt lat="44.71441" lon="-0.32611">
        <ele>87.14</ele>
        <time>2013-06-08T09:12:27Z</time>
      </trkpt>
      <trkpt lat="44.71442" lon="-0.32609">
        <ele>87.14</ele>
        <time>2013-06-08T09:12:28Z</time>
      </trkpt>
      <trkpt lat="44.71443" lon="-0.32608">
        <ele>86.66</ele>
        <time>2013-06-08T09:12:29Z</time>
      </trkpt>
      <trkpt lat="44.71444" lon="-0.32606">
        <ele>86.66</ele>
        <time>2013-06-08T09:12:30Z</time>
      </trkpt>
      <trkpt lat="44.71448" lon="-0.326">
        <ele>86.66</ele>
        <time>2013-06-08T09:12:34Z</time>
      </trkpt>
      <trkpt lat="44.71449" lon="-0.32598">
        <ele>86.18</ele>
        <time>2013-06-08T09:12:35Z</time>
      </trkpt>
      <trkpt lat="44.71451" lon="-0.32596">
        <ele>86.66</ele>
        <time>2013-06-08T09:12:36Z</time>
      </trkpt>
      <trkpt lat="44.71452" lon="-0.32595">
        <ele>86.18</ele>
        <time>2013-06-08T09:12:37Z</time>
      </trkpt>
      <trkpt lat="44.71453" lon="-0.32594">
        <ele>86.18</ele>
        <time>2013-06-08T09:12:38Z</time>
      </trkpt>
      <trkpt lat="44.71454" lon="-0.32593">
        <ele>85.69</ele>
        <time>2013-06-08T09:12:39Z</time>
      </trkpt>
      <trkpt lat="44.71455" lon="-0.32591">
        <ele>85.69</ele>
        <time>2013-06-08T09:12:40Z</time>
      </trkpt>
      <trkpt lat="44.71456" lon="-0.32589">
        <ele>86.18</ele>
        <time>2013-06-08T09:12:41Z</time>
      </trkpt>
      <trkpt lat="44.71457" lon="-0.32587">
        <ele>85.69</ele>
        <time>2013-06-08T09:12:42Z</time>
      </trkpt>
      <trkpt lat="44.71459" lon="-0.32586">
        <ele>85.69</ele>
        <time>2013-06-08T09:12:43Z</time>
      </trkpt>
      <trkpt lat="44.71475" lon="-0.32565">
        <ele>83.29</ele>
        <time>2013-06-08T09:12:57Z</time>
      </trkpt>
      <trkpt lat="44.71485" lon="-0.32556">
        <ele>83.29</ele>
        <time>2013-06-08T09:13:04Z</time>
      </trkpt>
      <trkpt lat="44.71486" lon="-0.32554">
        <ele>83.29</ele>
        <time>2013-06-08T09:13:05Z</time>
      </trkpt>
      <trkpt lat="44.71487" lon="-0.32552">
        <ele>83.29</ele>
        <time>2013-06-08T09:13:06Z</time>
      </trkpt>
      <trkpt lat="44.71488" lon="-0.32551">
        <ele>82.81</ele>
        <time>2013-06-08T09:13:07Z</time>
      </trkpt>
      <trkpt lat="44.71489" lon="-0.32549">
        <ele>82.81</ele>
        <time>2013-06-08T09:13:08Z</time>
      </trkpt>
      <trkpt lat="44.71503" lon="-0.32529">
        <ele>81.85</ele>
        <time>2013-06-08T09:13:21Z</time>
      </trkpt>
      <trkpt lat="44.71505" lon="-0.32527">
        <ele>81.85</ele>
        <time>2013-06-08T09:13:22Z</time>
      </trkpt>
      <trkpt lat="44.71506" lon="-0.32526">
        <ele>82.33</ele>
        <time>2013-06-08T09:13:23Z</time>
      </trkpt>
      <trkpt lat="44.71508" lon="-0.32524">
        <ele>81.37</ele>
        <time>2013-06-08T09:13:24Z</time>
      </trkpt>
      <trkpt lat="44.71509" lon="-0.32522">
        <ele>81.85</ele>
        <time>2013-06-08T09:13:25Z</time>
      </trkpt>
      <trkpt lat="44.7151" lon="-0.32521">
        <ele>81.37</ele>
        <time>2013-06-08T09:13:26Z</time>
      </trkpt>
      <trkpt lat="44.71524" lon="-0.32499">
        <ele>80.41</ele>
        <time>2013-06-08T09:13:39Z</time>
      </trkpt>
      <trkpt lat="44.71532" lon="-0.32479">
        <ele>80.41</ele>
        <time>2013-06-08T09:13:49Z</time>
      </trkpt>
      <trkpt lat="44.71533" lon="-0.32478">
        <ele>79.93</ele>
        <time>2013-06-08T09:13:50Z</time>
      </trkpt>
      <trkpt lat="44.71549" lon="-0.3245">
        <ele>78.48</ele>
        <time>2013-06-08T09:14:06Z</time>
      </trkpt>
      <trkpt lat="44.71566" lon="-0.32427">
        <ele>78</ele>
        <time>2013-06-08T09:14:21Z</time>
      </trkpt>
      <trkpt lat="44.71585" lon="-0.324">
        <ele>77.52</ele>
        <time>2013-06-08T09:14:38Z</time>
      </trkpt>
      <trkpt lat="44.71593" lon="-0.32388">
        <ele>76.56</ele>
        <time>2013-06-08T09:14:46Z</time>
      </trkpt>
      <trkpt lat="44.71594" lon="-0.32386">
        <ele>76.08</ele>
        <time>2013-06-08T09:14:47Z</time>
      </trkpt>
      <trkpt lat="44.71595" lon="-0.32385">
        <ele>76.56</ele>
        <time>2013-06-08T09:14:48Z</time>
      </trkpt>
      <trkpt lat="44.71597" lon="-0.32384">
        <ele>76.56</ele>
        <time>2013-06-08T09:14:49Z</time>
      </trkpt>
      <trkpt lat="44.71599" lon="-0.32383">
        <ele>75.6</ele>
        <time>2013-06-08T09:14:50Z</time>
      </trkpt>
      <trkpt lat="44.716" lon="-0.32382">
        <ele>75.6</ele>
        <time>2013-06-08T09:14:51Z</time>
      </trkpt>
      <trkpt lat="44.71623" lon="-0.32364">
        <ele>73.68</ele>
        <time>2013-06-08T09:15:07Z</time>
      </trkpt>
      <trkpt lat="44.71641" lon="-0.32355">
        <ele>72.24</ele>
        <time>2013-06-08T09:15:19Z</time>
      </trkpt>
      <trkpt lat="44.71662" lon="-0.32345">
        <ele>70.31</ele>
        <time>2013-06-08T09:15:34Z</time>
      </trkpt>
      <trkpt lat="44.71682" lon="-0.32337">
        <ele>68.87</ele>
        <time>2013-06-08T09:15:47Z</time>
      </trkpt>
      <trkpt lat="44.7169" lon="-0.32338">
        <ele>68.87</ele>
        <time>2013-06-08T09:15:52Z</time>
      </trkpt>
      <trkpt lat="44.71691" lon="-0.32337">
        <ele>68.39</ele>
        <time>2013-06-08T09:15:53Z</time>
      </trkpt>
      <trkpt lat="44.71693" lon="-0.32336">
        <ele>68.39</ele>
        <time>2013-06-08T09:15:54Z</time>
      </trkpt>
      <trkpt lat="44.71711" lon="-0.32331">
        <ele>67.43</ele>
        <time>2013-06-08T09:16:07Z</time>
      </trkpt>
      <trkpt lat="44.71733" lon="-0.32322">
        <ele>65.51</ele>
        <time>2013-06-08T09:16:20Z</time>
      </trkpt>
      <trkpt lat="44.7175" lon="-0.32315">
        <ele>64.07</ele>
        <time>2013-06-08T09:16:32Z</time>
      </trkpt>
      <trkpt lat="44.71771" lon="-0.32298">
        <ele>62.14</ele>
        <time>2013-06-08T09:16:47Z</time>
      </trkpt>
      <trkpt lat="44.71788" lon="-0.32289">
        <ele>60.7</ele>
        <time>2013-06-08T09:17:00Z</time>
      </trkpt>
      <trkpt lat="44.71792" lon="-0.32287">
        <ele>60.7</ele>
        <time>2013-06-08T09:17:03Z</time>
      </trkpt>
      <trkpt lat="44.71808" lon="-0.32278">
        <ele>59.26</ele>
        <time>2013-06-08T09:17:14Z</time>
      </trkpt>
      <trkpt lat="44.71815" lon="-0.32273">
        <ele>58.78</ele>
        <time>2013-06-08T09:17:19Z</time>
      </trkpt>
      <trkpt lat="44.71817" lon="-0.32272">
        <ele>58.3</ele>
        <time>2013-06-08T09:17:20Z</time>
      </trkpt>
      <trkpt lat="44.71825" lon="-0.32269">
        <ele>57.34</ele>
        <time>2013-06-08T09:17:25Z</time>
      </trkpt>
      <trkpt lat="44.71827" lon="-0.32267">
        <ele>57.34</ele>
        <time>2013-06-08T09:17:26Z</time>
      </trkpt>
      <trkpt lat="44.71828" lon="-0.32266">
        <ele>57.34</ele>
        <time>2013-06-08T09:17:27Z</time>
      </trkpt>
      <trkpt lat="44.71831" lon="-0.32263">
        <ele>56.86</ele>
        <time>2013-06-08T09:17:30Z</time>
      </trkpt>
      <trkpt lat="44.71839" lon="-0.32261">
        <ele>56.37</ele>
        <time>2013-06-08T09:17:35Z</time>
      </trkpt>
      <trkpt lat="44.71856" lon="-0.32252">
        <ele>54.45</ele>
        <time>2013-06-08T09:17:47Z</time>
      </trkpt>
      <trkpt lat="44.71858" lon="-0.32251">
        <ele>54.45</ele>
        <time>2013-06-08T09:17:48Z</time>
      </trkpt>
      <trkpt lat="44.7188" lon="-0.32251">
        <ele>52.53</ele>
        <time>2013-06-08T09:18:02Z</time>
      </trkpt>
      <trkpt lat="44.71904" lon="-0.32254">
        <ele>50.61</ele>
        <time>2013-06-08T09:18:16Z</time>
      </trkpt>
      <trkpt lat="44.71915" lon="-0.32254">
        <ele>50.61</ele>
        <time>2013-06-08T09:18:25Z</time>
      </trkpt>
      <trkpt lat="44.71915" lon="-0.32249">
        <ele>51.09</ele>
        <time>2013-06-08T09:18:29Z</time>
      </trkpt>
      <trkpt lat="44.71915" lon="-0.32247">
        <ele>51.09</ele>
        <time>2013-06-08T09:18:30Z</time>
      </trkpt>
      <trkpt lat="44.71914" lon="-0.32246">
        <ele>51.09</ele>
        <time>2013-06-08T09:18:31Z</time>
      </trkpt>
      <trkpt lat="44.71913" lon="-0.32245">
        <ele>51.57</ele>
        <time>2013-06-08T09:18:32Z</time>
      </trkpt>
      <trkpt lat="44.71912" lon="-0.32243">
        <ele>51.57</ele>
        <time>2013-06-08T09:18:33Z</time>
      </trkpt>
      <trkpt lat="44.71912" lon="-0.32242">
        <ele>51.57</ele>
        <time>2013-06-08T09:18:34Z</time>
      </trkpt>
      <trkpt lat="44.71901" lon="-0.32218">
        <ele>52.53</ele>
        <time>2013-06-08T09:18:48Z</time>
      </trkpt>
      <trkpt lat="44.71887" lon="-0.32191">
        <ele>55.89</ele>
        <time>2013-06-08T09:19:03Z</time>
      </trkpt>
      <trkpt lat="44.71877" lon="-0.32164">
        <ele>58.3</ele>
        <time>2013-06-08T09:19:21Z</time>
      </trkpt>
      <trkpt lat="44.71866" lon="-0.32138">
        <ele>59.74</ele>
        <time>2013-06-08T09:19:39Z</time>
      </trkpt>
      <trkpt lat="44.71855" lon="-0.32109">
        <ele>61.66</ele>
        <time>2013-06-08T09:19:57Z</time>
      </trkpt>
      <trkpt lat="44.71844" lon="-0.32079">
        <ele>64.07</ele>
        <time>2013-06-08T09:20:12Z</time>
      </trkpt>
      <trkpt lat="44.71843" lon="-0.32077">
        <ele>64.07</ele>
        <time>2013-06-08T09:20:13Z</time>
      </trkpt>
      <trkpt lat="44.71836" lon="-0.32052">
        <ele>65.51</ele>
        <time>2013-06-08T09:20:24Z</time>
      </trkpt>
      <trkpt lat="44.71832" lon="-0.32036">
        <ele>67.91</ele>
        <time>2013-06-08T09:20:37Z</time>
      </trkpt>
      <trkpt lat="44.7183" lon="-0.32034">
        <ele>68.87</ele>
        <time>2013-06-08T09:20:41Z</time>
      </trkpt>
      <trkpt lat="44.71828" lon="-0.32033">
        <ele>69.35</ele>
        <time>2013-06-08T09:20:42Z</time>
      </trkpt>
      <trkpt lat="44.71818" lon="-0.32021">
        <ele>70.79</ele>
        <time>2013-06-08T09:20:54Z</time>
      </trkpt>
      <trkpt lat="44.71802" lon="-0.32">
        <ele>72.24</ele>
        <time>2013-06-08T09:21:12Z</time>
      </trkpt>
      <trkpt lat="44.71789" lon="-0.31976">
        <ele>73.68</ele>
        <time>2013-06-08T09:21:28Z</time>
      </trkpt>
      <trkpt lat="44.71782" lon="-0.31949">
        <ele>74.16</ele>
        <time>2013-06-08T09:21:42Z</time>
      </trkpt>
      <trkpt lat="44.71771" lon="-0.3192">
        <ele>75.6</ele>
        <time>2013-06-08T09:21:58Z</time>
      </trkpt>
      <trkpt lat="44.71761" lon="-0.31892">
        <ele>78.48</ele>
        <time>2013-06-08T09:22:13Z</time>
      </trkpt>
      <trkpt lat="44.71754" lon="-0.31861">
        <ele>78.97</ele>
        <time>2013-06-08T09:22:30Z</time>
      </trkpt>
      <trkpt lat="44.71752" lon="-0.31856">
        <ele>79.45</ele>
        <time>2013-06-08T09:22:34Z</time>
      </trkpt>
      <trkpt lat="44.71751" lon="-0.31854">
        <ele>79.45</ele>
        <time>2013-06-08T09:22:35Z</time>
      </trkpt>
      <trkpt lat="44.71741" lon="-0.31833">
        <ele>82.81</ele>
        <time>2013-06-08T09:22:51Z</time>
      </trkpt>
      <trkpt lat="44.71724" lon="-0.31812">
        <ele>83.29</ele>
        <time>2013-06-08T09:23:06Z</time>
      </trkpt>
      <trkpt lat="44.7171" lon="-0.31802">
        <ele>86.18</ele>
        <time>2013-06-08T09:23:21Z</time>
      </trkpt>
      <trkpt lat="44.71694" lon="-0.3179">
        <ele>89.54</ele>
        <time>2013-06-08T09:23:36Z</time>
      </trkpt>
      <trkpt lat="44.71682" lon="-0.31782">
        <ele>90.98</ele>
        <time>2013-06-08T09:23:45Z</time>
      </trkpt>
      <trkpt lat="44.71675" lon="-0.31778">
        <ele>91.94</ele>
        <time>2013-06-08T09:23:52Z</time>
      </trkpt>
      <trkpt lat="44.71666" lon="-0.31775">
        <ele>92.42</ele>
        <time>2013-06-08T09:23:59Z</time>
      </trkpt>
      <trkpt lat="44.71651" lon="-0.31765">
        <ele>95.31</ele>
        <time>2013-06-08T09:24:14Z</time>
      </trkpt>
      <trkpt lat="44.71632" lon="-0.31749">
        <ele>97.71</ele>
        <time>2013-06-08T09:24:33Z</time>
      </trkpt>
      <trkpt lat="44.71611" lon="-0.31727">
        <ele>98.67</ele>
        <time>2013-06-08T09:24:50Z</time>
      </trkpt>
      <trkpt lat="44.71593" lon="-0.31706">
        <ele>99.63</ele>
        <time>2013-06-08T09:25:05Z</time>
      </trkpt>
      <trkpt lat="44.71581" lon="-0.31693">
        <ele>100.11</ele>
        <time>2013-06-08T09:25:17Z</time>
      </trkpt>
      <trkpt lat="44.7158" lon="-0.31692">
        <ele>99.63</ele>
        <time>2013-06-08T09:25:18Z</time>
      </trkpt>
      <trkpt lat="44.71579" lon="-0.31691">
        <ele>100.11</ele>
        <time>2013-06-08T09:25:19Z</time>
      </trkpt>
      <trkpt lat="44.71578" lon="-0.31689">
        <ele>99.63</ele>
        <time>2013-06-08T09:25:20Z</time>
      </trkpt>
      <trkpt lat="44.71577" lon="-0.31688">
        <ele>100.6</ele>
        <time>2013-06-08T09:25:21Z</time>
      </trkpt>
      <trkpt lat="44.71564" lon="-0.3167">
        <ele>100.11</ele>
        <time>2013-06-08T09:25:34Z</time>
      </trkpt>
      <trkpt lat="44.71545" lon="-0.31651">
        <ele>100.11</ele>
        <time>2013-06-08T09:25:49Z</time>
      </trkpt>
      <trkpt lat="44.71519" lon="-0.31634">
        <ele>99.63</ele>
        <time>2013-06-08T09:26:08Z</time>
      </trkpt>
      <trkpt lat="44.71493" lon="-0.31618">
        <ele>98.67</ele>
        <time>2013-06-08T09:26:27Z</time>
      </trkpt>
      <trkpt lat="44.71467" lon="-0.31606">
        <ele>98.67</ele>
        <time>2013-06-08T09:26:46Z</time>
      </trkpt>
      <trkpt lat="44.71447" lon="-0.31599">
        <ele>98.67</ele>
        <time>2013-06-08T09:27:00Z</time>
      </trkpt>
      <trkpt lat="44.71424" lon="-0.31589">
        <ele>98.67</ele>
        <time>2013-06-08T09:27:17Z</time>
      </trkpt>
      <trkpt lat="44.71402" lon="-0.31582">
        <ele>99.15</ele>
        <time>2013-06-08T09:27:32Z</time>
      </trkpt>
      <trkpt lat="44.71393" lon="-0.31578">
        <ele>98.67</ele>
        <time>2013-06-08T09:27:46Z</time>
      </trkpt>
      <trkpt lat="44.71392" lon="-0.31577">
        <ele>98.67</ele>
        <time>2013-06-08T09:28:08Z</time>
      </trkpt>
      <trkpt lat="44.71392" lon="-0.31578">
        <ele>98.67</ele>
        <time>2013-06-08T09:28:33Z</time>
      </trkpt>
      <trkpt lat="44.71388" lon="-0.31578">
        <ele>98.67</ele>
        <time>2013-06-08T09:28:57Z</time>
      </trkpt>
      <trkpt lat="44.71368" lon="-0.31568">
        <ele>99.15</ele>
        <time>2013-06-08T09:29:13Z</time>
      </trkpt>
      <trkpt lat="44.71343" lon="-0.31554">
        <ele>99.63</ele>
        <time>2013-06-08T09:29:30Z</time>
      </trkpt>
      <trkpt lat="44.71313" lon="-0.3155">
        <ele>100.11</ele>
        <time>2013-06-08T09:29:49Z</time>
      </trkpt>
      <trkpt lat="44.71282" lon="-0.31539">
        <ele>101.08</ele>
        <time>2013-06-08T09:30:09Z</time>
      </trkpt>
      <trkpt lat="44.71253" lon="-0.31524">
        <ele>101.56</ele>
        <time>2013-06-08T09:30:29Z</time>
      </trkpt>
      <trkpt lat="44.71225" lon="-0.31528">
        <ele>101.56</ele>
        <time>2013-06-08T09:30:48Z</time>
      </trkpt>
      <trkpt lat="44.71224" lon="-0.31529">
        <ele>101.56</ele>
        <time>2013-06-08T09:30:49Z</time>
      </trkpt>
      <trkpt lat="44.71223" lon="-0.31531">
        <ele>101.56</ele>
        <time>2013-06-08T09:30:50Z</time>
      </trkpt>
      <trkpt lat="44.71213" lon="-0.31571">
        <ele>100.11</ele>
        <time>2013-06-08T09:31:09Z</time>
      </trkpt>
      <trkpt lat="44.71204" lon="-0.31607">
        <ele>99.15</ele>
        <time>2013-06-08T09:31:26Z</time>
      </trkpt>
      <trkpt lat="44.71195" lon="-0.31648">
        <ele>97.71</ele>
        <time>2013-06-08T09:31:45Z</time>
      </trkpt>
      <trkpt lat="44.71185" lon="-0.31688">
        <ele>97.71</ele>
        <time>2013-06-08T09:32:04Z</time>
      </trkpt>
      <trkpt lat="44.71177" lon="-0.31726">
        <ele>98.19</ele>
        <time>2013-06-08T09:32:22Z</time>
      </trkpt>
      <trkpt lat="44.71168" lon="-0.31771">
        <ele>98.67</ele>
        <time>2013-06-08T09:32:43Z</time>
      </trkpt>
      <trkpt lat="44.7116" lon="-0.31819">
        <ele>99.15</ele>
        <time>2013-06-08T09:33:07Z</time>
      </trkpt>
      <trkpt lat="44.7115" lon="-0.31861">
        <ele>100.11</ele>
        <time>2013-06-08T09:33:27Z</time>
      </trkpt>
      <trkpt lat="44.71141" lon="-0.31903">
        <ele>100.6</ele>
        <time>2013-06-08T09:33:48Z</time>
      </trkpt>
      <trkpt lat="44.71133" lon="-0.31946">
        <ele>101.08</ele>
        <time>2013-06-08T09:34:09Z</time>
      </trkpt>
      <trkpt lat="44.71124" lon="-0.31974">
        <ele>102.04</ele>
        <time>2013-06-08T09:34:25Z</time>
      </trkpt>
      <trkpt lat="44.71123" lon="-0.31974">
        <ele>101.56</ele>
        <time>2013-06-08T09:34:26Z</time>
      </trkpt>
      <trkpt lat="44.71121" lon="-0.31974">
        <ele>101.08</ele>
        <time>2013-06-08T09:34:27Z</time>
      </trkpt>
      <trkpt lat="44.71091" lon="-0.3196">
        <ele>99.63</ele>
        <time>2013-06-08T09:34:48Z</time>
      </trkpt>
      <trkpt lat="44.71065" lon="-0.31947">
        <ele>99.15</ele>
        <time>2013-06-08T09:35:07Z</time>
      </trkpt>
      <trkpt lat="44.71044" lon="-0.31933">
        <ele>99.15</ele>
        <time>2013-06-08T09:35:23Z</time>
      </trkpt>
      <trkpt lat="44.71022" lon="-0.31922">
        <ele>99.63</ele>
        <time>2013-06-08T09:35:38Z</time>
      </trkpt>
      <trkpt lat="44.71" lon="-0.31904">
        <ele>99.63</ele>
        <time>2013-06-08T09:35:55Z</time>
      </trkpt>
      <trkpt lat="44.7099" lon="-0.31879">
        <ele>99.63</ele>
        <time>2013-06-08T09:36:08Z</time>
      </trkpt>
      <trkpt lat="44.7098" lon="-0.31847">
        <ele>100.6</ele>
        <time>2013-06-08T09:36:25Z</time>
      </trkpt>
      <trkpt lat="44.70971" lon="-0.31811">
        <ele>101.56</ele>
        <time>2013-06-08T09:36:42Z</time>
      </trkpt>
      <trkpt lat="44.70959" lon="-0.31774">
        <ele>101.56</ele>
        <time>2013-06-08T09:37:02Z</time>
      </trkpt>
      <trkpt lat="44.7094" lon="-0.31776">
        <ele>103.96</ele>
        <time>2013-06-08T09:37:15Z</time>
      </trkpt>
      <trkpt lat="44.70912" lon="-0.31777">
        <ele>103.48</ele>
        <time>2013-06-08T09:37:33Z</time>
      </trkpt>
      <trkpt lat="44.70887" lon="-0.31775">
        <ele>103.48</ele>
        <time>2013-06-08T09:37:51Z</time>
      </trkpt>
      <trkpt lat="44.7086" lon="-0.31772">
        <ele>102.04</ele>
        <time>2013-06-08T09:38:09Z</time>
      </trkpt>
      <trkpt lat="44.70831" lon="-0.31769">
        <ele>101.56</ele>
        <time>2013-06-08T09:38:28Z</time>
      </trkpt>
      <trkpt lat="44.70801" lon="-0.31765">
        <ele>100.6</ele>
        <time>2013-06-08T09:38:48Z</time>
      </trkpt>
      <trkpt lat="44.70771" lon="-0.31762">
        <ele>100.11</ele>
        <time>2013-06-08T09:39:08Z</time>
      </trkpt>
      <trkpt lat="44.7074" lon="-0.31758">
        <ele>99.63</ele>
        <time>2013-06-08T09:39:28Z</time>
      </trkpt>
      <trkpt lat="44.70713" lon="-0.31764">
        <ele>99.15</ele>
        <time>2013-06-08T09:39:47Z</time>
      </trkpt>
      <trkpt lat="44.70712" lon="-0.31765">
        <ele>99.15</ele>
        <time>2013-06-08T09:39:48Z</time>
      </trkpt>
      <trkpt lat="44.70681" lon="-0.31765">
        <ele>98.67</ele>
        <time>2013-06-08T09:40:08Z</time>
      </trkpt>
      <trkpt lat="44.70651" lon="-0.31764">
        <ele>97.71</ele>
        <time>2013-06-08T09:40:28Z</time>
      </trkpt>
      <trkpt lat="44.70622" lon="-0.31766">
        <ele>97.23</ele>
        <time>2013-06-08T09:40:48Z</time>
      </trkpt>
      <trkpt lat="44.70595" lon="-0.3177">
        <ele>97.71</ele>
        <time>2013-06-08T09:41:08Z</time>
      </trkpt>
      <trkpt lat="44.70562" lon="-0.31769">
        <ele>99.15</ele>
        <time>2013-06-08T09:41:30Z</time>
      </trkpt>
      <trkpt lat="44.70528" lon="-0.31764">
        <ele>101.08</ele>
        <time>2013-06-08T09:41:52Z</time>
      </trkpt>
      <trkpt lat="44.70497" lon="-0.3176">
        <ele>102.52</ele>
        <time>2013-06-08T09:42:14Z</time>
      </trkpt>
      <trkpt lat="44.70487" lon="-0.31758">
        <ele>102.52</ele>
        <time>2013-06-08T09:42:21Z</time>
      </trkpt>
      <trkpt lat="44.70484" lon="-0.31721">
        <ele>103</ele>
        <time>2013-06-08T09:42:38Z</time>
      </trkpt>
      <trkpt lat="44.7048" lon="-0.31675">
        <ele>103.96</ele>
        <time>2013-06-08T09:43:00Z</time>
      </trkpt>
      <trkpt lat="44.70473" lon="-0.31626">
        <ele>103.96</ele>
        <time>2013-06-08T09:43:23Z</time>
      </trkpt>
      <trkpt lat="44.70467" lon="-0.31581">
        <ele>104.92</ele>
        <time>2013-06-08T09:43:44Z</time>
      </trkpt>
      <trkpt lat="44.70463" lon="-0.31545">
        <ele>104.92</ele>
        <time>2013-06-08T09:44:01Z</time>
      </trkpt>
      <trkpt lat="44.70455" lon="-0.31502">
        <ele>104.44</ele>
        <time>2013-06-08T09:44:22Z</time>
      </trkpt>
      <trkpt lat="44.7045" lon="-0.31472">
        <ele>103.96</ele>
        <time>2013-06-08T09:44:36Z</time>
      </trkpt>
      <trkpt lat="44.70451" lon="-0.31441">
        <ele>104.44</ele>
        <time>2013-06-08T09:44:51Z</time>
      </trkpt>
      <trkpt lat="44.70437" lon="-0.31428">
        <ele>103.96</ele>
        <time>2013-06-08T09:45:04Z</time>
      </trkpt>
      <trkpt lat="44.70411" lon="-0.31421">
        <ele>102.52</ele>
        <time>2013-06-08T09:45:22Z</time>
      </trkpt>
      <trkpt lat="44.7039" lon="-0.31419">
        <ele>103</ele>
        <time>2013-06-08T09:45:37Z</time>
      </trkpt>
      <trkpt lat="44.70364" lon="-0.31411">
        <ele>102.04</ele>
        <time>2013-06-08T09:45:53Z</time>
      </trkpt>
      <trkpt lat="44.70335" lon="-0.31405">
        <ele>103.48</ele>
        <time>2013-06-08T09:46:13Z</time>
      </trkpt>
      <trkpt lat="44.70308" lon="-0.31399">
        <ele>102.52</ele>
        <time>2013-06-08T09:46:31Z</time>
      </trkpt>
      <trkpt lat="44.70282" lon="-0.31388">
        <ele>103.48</ele>
        <time>2013-06-08T09:46:51Z</time>
      </trkpt>
      <trkpt lat="44.7027" lon="-0.31356">
        <ele>103</ele>
        <time>2013-06-08T09:47:10Z</time>
      </trkpt>
      <trkpt lat="44.70261" lon="-0.31324">
        <ele>104.92</ele>
        <time>2013-06-08T09:47:28Z</time>
      </trkpt>
      <trkpt lat="44.70246" lon="-0.31278">
        <ele>106.36</ele>
        <time>2013-06-08T09:47:52Z</time>
      </trkpt>
      <trkpt lat="44.70233" lon="-0.31237">
        <ele>107.81</ele>
        <time>2013-06-08T09:48:13Z</time>
      </trkpt>
      <trkpt lat="44.7022" lon="-0.31199">
        <ele>108.29</ele>
        <time>2013-06-08T09:48:34Z</time>
      </trkpt>
      <trkpt lat="44.7021" lon="-0.31163">
        <ele>108.77</ele>
        <time>2013-06-08T09:48:53Z</time>
      </trkpt>
      <trkpt lat="44.70197" lon="-0.31124">
        <ele>109.25</ele>
        <time>2013-06-08T09:49:13Z</time>
      </trkpt>
      <trkpt lat="44.70186" lon="-0.31088">
        <ele>108.77</ele>
        <time>2013-06-08T09:49:33Z</time>
      </trkpt>
      <trkpt lat="44.7018" lon="-0.31069">
        <ele>107.81</ele>
        <time>2013-06-08T09:49:43Z</time>
      </trkpt>
      <trkpt lat="44.70173" lon="-0.31066">
        <ele>107.81</ele>
        <time>2013-06-08T09:49:48Z</time>
      </trkpt>
      <trkpt lat="44.70167" lon="-0.31065">
        <ele>107.32</ele>
        <time>2013-06-08T09:50:03Z</time>
      </trkpt>
      <trkpt lat="44.70166" lon="-0.31065">
        <ele>107.32</ele>
        <time>2013-06-08T09:50:24Z</time>
      </trkpt>
      <trkpt lat="44.70166" lon="-0.31062">
        <ele>107.32</ele>
        <time>2013-06-08T09:50:28Z</time>
      </trkpt>
      <trkpt lat="44.70166" lon="-0.31024">
        <ele>108.77</ele>
        <time>2013-06-08T09:50:46Z</time>
      </trkpt>
      <trkpt lat="44.70169" lon="-0.30981">
        <ele>108.77</ele>
        <time>2013-06-08T09:51:06Z</time>
      </trkpt>
      <trkpt lat="44.7017" lon="-0.30946">
        <ele>108.77</ele>
        <time>2013-06-08T09:51:22Z</time>
      </trkpt>
      <trkpt lat="44.70174" lon="-0.30901">
        <ele>108.77</ele>
        <time>2013-06-08T09:51:42Z</time>
      </trkpt>
      <trkpt lat="44.70176" lon="-0.30861">
        <ele>107.32</ele>
        <time>2013-06-08T09:52:01Z</time>
      </trkpt>
      <trkpt lat="44.7017" lon="-0.30834">
        <ele>106.84</ele>
        <time>2013-06-08T09:52:16Z</time>
      </trkpt>
      <trkpt lat="44.70142" lon="-0.30828">
        <ele>107.32</ele>
        <time>2013-06-08T09:52:34Z</time>
      </trkpt>
      <trkpt lat="44.70112" lon="-0.30824">
        <ele>107.81</ele>
        <time>2013-06-08T09:52:54Z</time>
      </trkpt>
      <trkpt lat="44.70081" lon="-0.30819">
        <ele>107.81</ele>
        <time>2013-06-08T09:53:15Z</time>
      </trkpt>
      <trkpt lat="44.70053" lon="-0.30813">
        <ele>107.32</ele>
        <time>2013-06-08T09:53:34Z</time>
      </trkpt>
      <trkpt lat="44.70036" lon="-0.30806">
        <ele>106.84</ele>
        <time>2013-06-08T09:53:46Z</time>
      </trkpt>
      <trkpt lat="44.70036" lon="-0.30798">
        <ele>106.36</ele>
        <time>2013-06-08T09:54:02Z</time>
      </trkpt>
      <trkpt lat="44.70038" lon="-0.3079">
        <ele>106.36</ele>
        <time>2013-06-08T09:54:18Z</time>
      </trkpt>
      <trkpt lat="44.70038" lon="-0.3077">
        <ele>106.84</ele>
        <time>2013-06-08T09:54:33Z</time>
      </trkpt>
      <trkpt lat="44.70037" lon="-0.30757">
        <ele>106.36</ele>
        <time>2013-06-08T09:54:40Z</time>
      </trkpt>
      <trkpt lat="44.70039" lon="-0.3071">
        <ele>105.4</ele>
        <time>2013-06-08T09:55:01Z</time>
      </trkpt>
      <trkpt lat="44.70041" lon="-0.30663">
        <ele>103.96</ele>
        <time>2013-06-08T09:55:23Z</time>
      </trkpt>
      <trkpt lat="44.70041" lon="-0.30627">
        <ele>103.48</ele>
        <time>2013-06-08T09:55:41Z</time>
      </trkpt>
      <trkpt lat="44.70013" lon="-0.30621">
        <ele>103.48</ele>
        <time>2013-06-08T09:56:00Z</time>
      </trkpt>
      <trkpt lat="44.69977" lon="-0.30615">
        <ele>103.48</ele>
        <time>2013-06-08T09:56:24Z</time>
      </trkpt>
      <trkpt lat="44.69945" lon="-0.30611">
        <ele>102.52</ele>
        <time>2013-06-08T09:56:45Z</time>
      </trkpt>
      <trkpt lat="44.69918" lon="-0.30614">
        <ele>102.04</ele>
        <time>2013-06-08T09:57:03Z</time>
      </trkpt>
      <trkpt lat="44.69916" lon="-0.30648">
        <ele>101.56</ele>
        <time>2013-06-08T09:57:19Z</time>
      </trkpt>
      <trkpt lat="44.69915" lon="-0.3069">
        <ele>102.52</ele>
        <time>2013-06-08T09:57:38Z</time>
      </trkpt>
      <trkpt lat="44.6991" lon="-0.30735">
        <ele>103</ele>
        <time>2013-06-08T09:57:59Z</time>
      </trkpt>
      <trkpt lat="44.69888" lon="-0.30758">
        <ele>102.52</ele>
        <time>2013-06-08T09:58:17Z</time>
      </trkpt>
      <trkpt lat="44.69863" lon="-0.30776">
        <ele>102.04</ele>
        <time>2013-06-08T09:58:35Z</time>
      </trkpt>
      <trkpt lat="44.69836" lon="-0.30795">
        <ele>102.52</ele>
        <time>2013-06-08T09:58:54Z</time>
      </trkpt>
      <trkpt lat="44.69807" lon="-0.30811">
        <ele>102.52</ele>
        <time>2013-06-08T09:59:14Z</time>
      </trkpt>
      <trkpt lat="44.69783" lon="-0.30796">
        <ele>103.48</ele>
        <time>2013-06-08T09:59:31Z</time>
      </trkpt>
      <trkpt lat="44.69766" lon="-0.3076">
        <ele>103.96</ele>
        <time>2013-06-08T09:59:50Z</time>
      </trkpt>
      <trkpt lat="44.6975" lon="-0.30719">
        <ele>104.92</ele>
        <time>2013-06-08T10:00:12Z</time>
      </trkpt>
      <trkpt lat="44.69735" lon="-0.30689">
        <ele>105.4</ele>
        <time>2013-06-08T10:00:30Z</time>
      </trkpt>
      <trkpt lat="44.69712" lon="-0.30671">
        <ele>105.88</ele>
        <time>2013-06-08T10:00:48Z</time>
      </trkpt>
      <trkpt lat="44.69684" lon="-0.30672">
        <ele>105.88</ele>
        <time>2013-06-08T10:01:05Z</time>
      </trkpt>
      <trkpt lat="44.69654" lon="-0.30673">
        <ele>106.36</ele>
        <time>2013-06-08T10:01:24Z</time>
      </trkpt>
      <trkpt lat="44.69622" lon="-0.30675">
        <ele>106.36</ele>
        <time>2013-06-08T10:01:45Z</time>
      </trkpt>
      <trkpt lat="44.6959" lon="-0.30676">
        <ele>106.84</ele>
        <time>2013-06-08T10:02:06Z</time>
      </trkpt>
      <trkpt lat="44.69565" lon="-0.30674">
        <ele>106.36</ele>
        <time>2013-06-08T10:02:23Z</time>
      </trkpt>
      <trkpt lat="44.69555" lon="-0.30658">
        <ele>105.4</ele>
        <time>2013-06-08T10:02:32Z</time>
      </trkpt>
      <trkpt lat="44.69536" lon="-0.30636">
        <ele>104.92</ele>
        <time>2013-06-08T10:02:48Z</time>
      </trkpt>
      <trkpt lat="44.69514" lon="-0.30603">
        <ele>105.4</ele>
        <time>2013-06-08T10:03:09Z</time>
      </trkpt>
      <trkpt lat="44.69495" lon="-0.30566">
        <ele>105.88</ele>
        <time>2013-06-08T10:03:31Z</time>
      </trkpt>
      <trkpt lat="44.69479" lon="-0.30529">
        <ele>106.36</ele>
        <time>2013-06-08T10:03:51Z</time>
      </trkpt>
      <trkpt lat="44.69463" lon="-0.30488">
        <ele>106.36</ele>
        <time>2013-06-08T10:04:14Z</time>
      </trkpt>
      <trkpt lat="44.69448" lon="-0.30455">
        <ele>106.84</ele>
        <time>2013-06-08T10:04:33Z</time>
      </trkpt>
      <trkpt lat="44.69432" lon="-0.3042">
        <ele>108.29</ele>
        <time>2013-06-08T10:04:53Z</time>
      </trkpt>
      <trkpt lat="44.69412" lon="-0.30394">
        <ele>108.29</ele>
        <time>2013-06-08T10:05:12Z</time>
      </trkpt>
      <trkpt lat="44.69392" lon="-0.30412">
        <ele>107.81</ele>
        <time>2013-06-08T10:05:28Z</time>
      </trkpt>
      <trkpt lat="44.69367" lon="-0.30432">
        <ele>106.36</ele>
        <time>2013-06-08T10:05:47Z</time>
      </trkpt>
      <trkpt lat="44.69344" lon="-0.3045">
        <ele>104.44</ele>
        <time>2013-06-08T10:06:05Z</time>
      </trkpt>
      <trkpt lat="44.69332" lon="-0.3046">
        <ele>103.96</ele>
        <time>2013-06-08T10:06:14Z</time>
      </trkpt>
      <trkpt lat="44.69322" lon="-0.3045">
        <ele>104.44</ele>
        <time>2013-06-08T10:06:22Z</time>
      </trkpt>
      <trkpt lat="44.69301" lon="-0.3041">
        <ele>104.92</ele>
        <time>2013-06-08T10:06:45Z</time>
      </trkpt>
      <trkpt lat="44.6928" lon="-0.30373">
        <ele>106.36</ele>
        <time>2013-06-08T10:07:08Z</time>
      </trkpt>
      <trkpt lat="44.69261" lon="-0.30332">
        <ele>106.84</ele>
        <time>2013-06-08T10:07:31Z</time>
      </trkpt>
      <trkpt lat="44.69241" lon="-0.30292">
        <ele>107.81</ele>
        <time>2013-06-08T10:07:55Z</time>
      </trkpt>
      <trkpt lat="44.69226" lon="-0.3026">
        <ele>108.77</ele>
        <time>2013-06-08T10:08:14Z</time>
      </trkpt>
      <trkpt lat="44.6921" lon="-0.30229">
        <ele>109.25</ele>
        <time>2013-06-08T10:08:34Z</time>
      </trkpt>
      <trkpt lat="44.69195" lon="-0.30193">
        <ele>110.21</ele>
        <time>2013-06-08T10:08:55Z</time>
      </trkpt>
      <trkpt lat="44.69186" lon="-0.30173">
        <ele>110.69</ele>
        <time>2013-06-08T10:09:07Z</time>
      </trkpt>
      <trkpt lat="44.69192" lon="-0.30161">
        <ele>110.21</ele>
        <time>2013-06-08T10:09:14Z</time>
      </trkpt>
      <trkpt lat="44.69213" lon="-0.30144">
        <ele>111.65</ele>
        <time>2013-06-08T10:09:29Z</time>
      </trkpt>
      <trkpt lat="44.69237" lon="-0.30117">
        <ele>112.61</ele>
        <time>2013-06-08T10:09:50Z</time>
      </trkpt>
      <trkpt lat="44.69255" lon="-0.30098">
        <ele>110.69</ele>
        <time>2013-06-08T10:10:05Z</time>
      </trkpt>
      <trkpt lat="44.69277" lon="-0.30076">
        <ele>110.21</ele>
        <time>2013-06-08T10:10:22Z</time>
      </trkpt>
      <trkpt lat="44.69298" lon="-0.30058">
        <ele>109.25</ele>
        <time>2013-06-08T10:10:38Z</time>
      </trkpt>
      <trkpt lat="44.69316" lon="-0.3004">
        <ele>107.32</ele>
        <time>2013-06-08T10:10:52Z</time>
      </trkpt>
      <trkpt lat="44.6934" lon="-0.30016">
        <ele>106.36</ele>
        <time>2013-06-08T10:11:12Z</time>
      </trkpt>
      <trkpt lat="44.69365" lon="-0.29993">
        <ele>104.44</ele>
        <time>2013-06-08T10:11:32Z</time>
      </trkpt>
      <trkpt lat="44.69391" lon="-0.2997">
        <ele>103</ele>
        <time>2013-06-08T10:11:53Z</time>
      </trkpt>
      <trkpt lat="44.69415" lon="-0.29951">
        <ele>103</ele>
        <time>2013-06-08T10:12:11Z</time>
      </trkpt>
      <trkpt lat="44.69437" lon="-0.29932">
        <ele>102.04</ele>
        <time>2013-06-08T10:12:29Z</time>
      </trkpt>
      <trkpt lat="44.69454" lon="-0.29917">
        <ele>101.56</ele>
        <time>2013-06-08T10:12:44Z</time>
      </trkpt>
      <trkpt lat="44.69474" lon="-0.29899">
        <ele>98.67</ele>
        <time>2013-06-08T10:13:01Z</time>
      </trkpt>
      <trkpt lat="44.69475" lon="-0.29899">
        <ele>103</ele>
        <time>2013-06-08T10:13:03Z</time>
      </trkpt>
      <trkpt lat="44.69475" lon="-0.29899">
        <ele>99.15</ele>
        <time>2013-06-08T10:13:04Z</time>
      </trkpt>
      <trkpt lat="44.69475" lon="-0.299">
        <ele>103.96</ele>
        <time>2013-06-08T10:13:06Z</time>
      </trkpt>
      <trkpt lat="44.69474" lon="-0.299">
        <ele>100.6</ele>
        <time>2013-06-08T10:13:07Z</time>
      </trkpt>
      <trkpt lat="44.69488" lon="-0.29886">
        <ele>99.63</ele>
        <time>2013-06-08T10:13:21Z</time>
      </trkpt>
      <trkpt lat="44.69506" lon="-0.29867">
        <ele>98.67</ele>
        <time>2013-06-08T10:13:34Z</time>
      </trkpt>
      <trkpt lat="44.69524" lon="-0.29847">
        <ele>96.75</ele>
        <time>2013-06-08T10:13:50Z</time>
      </trkpt>
      <trkpt lat="44.69539" lon="-0.29834">
        <ele>93.87</ele>
        <time>2013-06-08T10:14:05Z</time>
      </trkpt>
      <trkpt lat="44.69545" lon="-0.29829">
        <ele>93.87</ele>
        <time>2013-06-08T10:14:11Z</time>
      </trkpt>
      <trkpt lat="44.69564" lon="-0.29806">
        <ele>90.02</ele>
        <time>2013-06-08T10:14:24Z</time>
      </trkpt>
      <trkpt lat="44.69572" lon="-0.29796">
        <ele>88.58</ele>
        <time>2013-06-08T10:14:31Z</time>
      </trkpt>
      <trkpt lat="44.69593" lon="-0.2978">
        <ele>87.62</ele>
        <time>2013-06-08T10:14:46Z</time>
      </trkpt>
      <trkpt lat="44.69595" lon="-0.29778">
        <ele>86.18</ele>
        <time>2013-06-08T10:14:48Z</time>
      </trkpt>
      <trkpt lat="44.69604" lon="-0.29778">
        <ele>85.21</ele>
        <time>2013-06-08T10:14:55Z</time>
      </trkpt>
      <trkpt lat="44.69621" lon="-0.29799">
        <ele>85.21</ele>
        <time>2013-06-08T10:15:11Z</time>
      </trkpt>
      <trkpt lat="44.69628" lon="-0.29812">
        <ele>84.73</ele>
        <time>2013-06-08T10:15:19Z</time>
      </trkpt>
      <trkpt lat="44.69644" lon="-0.29799">
        <ele>82.81</ele>
        <time>2013-06-08T10:15:35Z</time>
      </trkpt>
      <trkpt lat="44.6966" lon="-0.2978">
        <ele>80.41</ele>
        <time>2013-06-08T10:15:50Z</time>
      </trkpt>
      <trkpt lat="44.69665" lon="-0.29771">
        <ele>78.97</ele>
        <time>2013-06-08T10:15:55Z</time>
      </trkpt>
      <trkpt lat="44.69679" lon="-0.29756">
        <ele>77.52</ele>
        <time>2013-06-08T10:16:06Z</time>
      </trkpt>
      <trkpt lat="44.69693" lon="-0.29733">
        <ele>74.64</ele>
        <time>2013-06-08T10:16:21Z</time>
      </trkpt>
      <trkpt lat="44.69711" lon="-0.29715">
        <ele>72.72</ele>
        <time>2013-06-08T10:16:35Z</time>
      </trkpt>
      <trkpt lat="44.69728" lon="-0.29709">
        <ele>69.35</ele>
        <time>2013-06-08T10:16:47Z</time>
      </trkpt>
      <trkpt lat="44.6975" lon="-0.29699">
        <ele>67.43</ele>
        <time>2013-06-08T10:17:03Z</time>
      </trkpt>
      <trkpt lat="44.69772" lon="-0.29681">
        <ele>66.95</ele>
        <time>2013-06-08T10:17:18Z</time>
      </trkpt>
      <trkpt lat="44.69785" lon="-0.29659">
        <ele>66.47</ele>
        <time>2013-06-08T10:17:34Z</time>
      </trkpt>
      <trkpt lat="44.69797" lon="-0.29634">
        <ele>65.51</ele>
        <time>2013-06-08T10:17:49Z</time>
      </trkpt>
      <trkpt lat="44.69806" lon="-0.29606">
        <ele>64.07</ele>
        <time>2013-06-08T10:18:04Z</time>
      </trkpt>
      <trkpt lat="44.69815" lon="-0.29573">
        <ele>64.55</ele>
        <time>2013-06-08T10:18:21Z</time>
      </trkpt>
      <trkpt lat="44.69825" lon="-0.29549">
        <ele>64.55</ele>
        <time>2013-06-08T10:18:37Z</time>
      </trkpt>
      <trkpt lat="44.69829" lon="-0.29545">
        <ele>64.55</ele>
        <time>2013-06-08T10:18:53Z</time>
      </trkpt>
      <trkpt lat="44.69829" lon="-0.29544">
        <ele>64.55</ele>
        <time>2013-06-08T10:19:14Z</time>
      </trkpt>
      <trkpt lat="44.69829" lon="-0.29541">
        <ele>65.03</ele>
        <time>2013-06-08T10:19:42Z</time>
      </trkpt>
      <trkpt lat="44.69833" lon="-0.29533">
        <ele>64.07</ele>
        <time>2013-06-08T10:19:57Z</time>
      </trkpt>
      <trkpt lat="44.69848" lon="-0.29506">
        <ele>63.1</ele>
        <time>2013-06-08T10:20:13Z</time>
      </trkpt>
      <trkpt lat="44.69859" lon="-0.2948">
        <ele>65.03</ele>
        <time>2013-06-08T10:20:29Z</time>
      </trkpt>
      <trkpt lat="44.69866" lon="-0.29462">
        <ele>64.07</ele>
        <time>2013-06-08T10:20:41Z</time>
      </trkpt>
      <trkpt lat="44.69866" lon="-0.2946">
        <ele>64.07</ele>
        <time>2013-06-08T10:20:42Z</time>
      </trkpt>
      <trkpt lat="44.69867" lon="-0.29453">
        <ele>64.55</ele>
        <time>2013-06-08T10:20:46Z</time>
      </trkpt>
      <trkpt lat="44.69869" lon="-0.29432">
        <ele>63.58</ele>
        <time>2013-06-08T10:20:55Z</time>
      </trkpt>
      <trkpt lat="44.69874" lon="-0.29395">
        <ele>63.58</ele>
        <time>2013-06-08T10:21:13Z</time>
      </trkpt>
      <trkpt lat="44.69879" lon="-0.29354">
        <ele>65.03</ele>
        <time>2013-06-08T10:21:32Z</time>
      </trkpt>
      <trkpt lat="44.69884" lon="-0.29307">
        <ele>65.51</ele>
        <time>2013-06-08T10:21:55Z</time>
      </trkpt>
      <trkpt lat="44.6989" lon="-0.29266">
        <ele>65.99</ele>
        <time>2013-06-08T10:22:14Z</time>
      </trkpt>
      <trkpt lat="44.69895" lon="-0.29227">
        <ele>67.91</ele>
        <time>2013-06-08T10:22:33Z</time>
      </trkpt>
      <trkpt lat="44.69902" lon="-0.29182">
        <ele>69.35</ele>
        <time>2013-06-08T10:22:55Z</time>
      </trkpt>
      <trkpt lat="44.69907" lon="-0.29143">
        <ele>71.27</ele>
        <time>2013-06-08T10:23:13Z</time>
      </trkpt>
      <trkpt lat="44.69914" lon="-0.29109">
        <ele>71.27</ele>
        <time>2013-06-08T10:23:29Z</time>
      </trkpt>
      <trkpt lat="44.69918" lon="-0.29069">
        <ele>72.24</ele>
        <time>2013-06-08T10:23:48Z</time>
      </trkpt>
      <trkpt lat="44.69923" lon="-0.29038">
        <ele>73.2</ele>
        <time>2013-06-08T10:24:04Z</time>
      </trkpt>
      <trkpt lat="44.69926" lon="-0.28997">
        <ele>74.64</ele>
        <time>2013-06-08T10:24:24Z</time>
      </trkpt>
      <trkpt lat="44.69929" lon="-0.28955">
        <ele>72.72</ele>
        <time>2013-06-08T10:24:44Z</time>
      </trkpt>
      <trkpt lat="44.69931" lon="-0.28909">
        <ele>71.76</ele>
        <time>2013-06-08T10:25:05Z</time>
      </trkpt>
      <trkpt lat="44.69931" lon="-0.2887">
        <ele>70.79</ele>
        <time>2013-06-08T10:25:23Z</time>
      </trkpt>
      <trkpt lat="44.69924" lon="-0.28835">
        <ele>70.79</ele>
        <time>2013-06-08T10:25:40Z</time>
      </trkpt>
      <trkpt lat="44.69903" lon="-0.28803">
        <ele>70.79</ele>
        <time>2013-06-08T10:26:00Z</time>
      </trkpt>
      <trkpt lat="44.69882" lon="-0.2877">
        <ele>71.76</ele>
        <time>2013-06-08T10:26:20Z</time>
      </trkpt>
      <trkpt lat="44.69871" lon="-0.28731">
        <ele>73.2</ele>
        <time>2013-06-08T10:26:40Z</time>
      </trkpt>
      <trkpt lat="44.69864" lon="-0.28693">
        <ele>72.24</ele>
        <time>2013-06-08T10:26:58Z</time>
      </trkpt>
      <trkpt lat="44.69844" lon="-0.28668">
        <ele>69.83</ele>
        <time>2013-06-08T10:27:16Z</time>
      </trkpt>
      <trkpt lat="44.69826" lon="-0.28642">
        <ele>67.43</ele>
        <time>2013-06-08T10:27:33Z</time>
      </trkpt>
      <trkpt lat="44.69826" lon="-0.28609">
        <ele>65.03</ele>
        <time>2013-06-08T10:27:48Z</time>
      </trkpt>
      <trkpt lat="44.6983" lon="-0.28563">
        <ele>64.55</ele>
        <time>2013-06-08T10:28:08Z</time>
      </trkpt>
      <trkpt lat="44.69839" lon="-0.2853">
        <ele>64.55</ele>
        <time>2013-06-08T10:28:24Z</time>
      </trkpt>
      <trkpt lat="44.69849" lon="-0.28493">
        <ele>65.03</ele>
        <time>2013-06-08T10:28:42Z</time>
      </trkpt>
      <trkpt lat="44.69856" lon="-0.28455">
        <ele>67.91</ele>
        <time>2013-06-08T10:29:00Z</time>
      </trkpt>
      <trkpt lat="44.69856" lon="-0.28453">
        <ele>67.91</ele>
        <time>2013-06-08T10:29:01Z</time>
      </trkpt>
      <trkpt lat="44.69857" lon="-0.28413">
        <ele>69.35</ele>
        <time>2013-06-08T10:29:21Z</time>
      </trkpt>
      <trkpt lat="44.69859" lon="-0.28372">
        <ele>69.83</ele>
        <time>2013-06-08T10:29:40Z</time>
      </trkpt>
      <trkpt lat="44.69845" lon="-0.28344">
        <ele>69.35</ele>
        <time>2013-06-08T10:29:56Z</time>
      </trkpt>
      <trkpt lat="44.69833" lon="-0.2832">
        <ele>69.83</ele>
        <time>2013-06-08T10:30:11Z</time>
      </trkpt>
      <trkpt lat="44.69833" lon="-0.28318">
        <ele>70.31</ele>
        <time>2013-06-08T10:30:12Z</time>
      </trkpt>
      <trkpt lat="44.69846" lon="-0.28295">
        <ele>72.72</ele>
        <time>2013-06-08T10:30:27Z</time>
      </trkpt>
      <trkpt lat="44.69867" lon="-0.28285">
        <ele>74.16</ele>
        <time>2013-06-08T10:30:44Z</time>
      </trkpt>
      <trkpt lat="44.69893" lon="-0.28274">
        <ele>77.52</ele>
        <time>2013-06-08T10:31:02Z</time>
      </trkpt>
      <trkpt lat="44.69918" lon="-0.28267">
        <ele>79.93</ele>
        <time>2013-06-08T10:31:22Z</time>
      </trkpt>
      <trkpt lat="44.69927" lon="-0.28261">
        <ele>82.81</ele>
        <time>2013-06-08T10:31:32Z</time>
      </trkpt>
      <trkpt lat="44.69938" lon="-0.28254">
        <ele>84.25</ele>
        <time>2013-06-08T10:31:45Z</time>
      </trkpt>
      <trkpt lat="44.69941" lon="-0.28254">
        <ele>85.21</ele>
        <time>2013-06-08T10:31:56Z</time>
      </trkpt>
      <trkpt lat="44.69943" lon="-0.28252">
        <ele>84.73</ele>
        <time>2013-06-08T10:32:01Z</time>
      </trkpt>
      <trkpt lat="44.69949" lon="-0.2825">
        <ele>86.18</ele>
        <time>2013-06-08T10:32:08Z</time>
      </trkpt>
      <trkpt lat="44.69962" lon="-0.2824">
        <ele>88.58</ele>
        <time>2013-06-08T10:32:23Z</time>
      </trkpt>
      <trkpt lat="44.69975" lon="-0.28232">
        <ele>91.94</ele>
        <time>2013-06-08T10:32:38Z</time>
      </trkpt>
      <trkpt lat="44.6999" lon="-0.28222">
        <ele>94.83</ele>
        <time>2013-06-08T10:32:55Z</time>
      </trkpt>
      <trkpt lat="44.69992" lon="-0.28221">
        <ele>94.83</ele>
        <time>2013-06-08T10:32:57Z</time>
      </trkpt>
      <trkpt lat="44.70005" lon="-0.28207">
        <ele>98.19</ele>
        <time>2013-06-08T10:33:15Z</time>
      </trkpt>
      <trkpt lat="44.70006" lon="-0.28207">
        <ele>98.19</ele>
        <time>2013-06-08T10:33:16Z</time>
      </trkpt>
      <trkpt lat="44.70008" lon="-0.28204">
        <ele>98.19</ele>
        <time>2013-06-08T10:33:20Z</time>
      </trkpt>
      <trkpt lat="44.7001" lon="-0.28199">
        <ele>98.67</ele>
        <time>2013-06-08T10:33:24Z</time>
      </trkpt>
      <trkpt lat="44.70014" lon="-0.28196">
        <ele>100.11</ele>
        <time>2013-06-08T10:33:28Z</time>
      </trkpt>
      <trkpt lat="44.70015" lon="-0.28195">
        <ele>99.63</ele>
        <time>2013-06-08T10:33:29Z</time>
      </trkpt>
      <trkpt lat="44.70017" lon="-0.28193">
        <ele>99.63</ele>
        <time>2013-06-08T10:33:31Z</time>
      </trkpt>
      <trkpt lat="44.70033" lon="-0.28171">
        <ele>99.15</ele>
        <time>2013-06-08T10:33:48Z</time>
      </trkpt>
      <trkpt lat="44.70034" lon="-0.28166">
        <ele>98.19</ele>
        <time>2013-06-08T10:33:54Z</time>
      </trkpt>
      <trkpt lat="44.7003" lon="-0.28154">
        <ele>98.67</ele>
        <time>2013-06-08T10:34:02Z</time>
      </trkpt>
      <trkpt lat="44.70024" lon="-0.28128">
        <ele>96.27</ele>
        <time>2013-06-08T10:34:16Z</time>
      </trkpt>
      <trkpt lat="44.70022" lon="-0.28123">
        <ele>96.75</ele>
        <time>2013-06-08T10:34:19Z</time>
      </trkpt>
      <trkpt lat="44.69995" lon="-0.28121">
        <ele>97.71</ele>
        <time>2013-06-08T10:34:39Z</time>
      </trkpt>
      <trkpt lat="44.69974" lon="-0.28128">
        <ele>98.19</ele>
        <time>2013-06-08T10:34:56Z</time>
      </trkpt>
      <trkpt lat="44.6995" lon="-0.28137">
        <ele>95.31</ele>
        <time>2013-06-08T10:35:15Z</time>
      </trkpt>
      <trkpt lat="44.69937" lon="-0.28143">
        <ele>92.42</ele>
        <time>2013-06-08T10:35:28Z</time>
      </trkpt>
      <trkpt lat="44.69922" lon="-0.28147">
        <ele>89.06</ele>
        <time>2013-06-08T10:35:40Z</time>
      </trkpt>
      <trkpt lat="44.69904" lon="-0.28154">
        <ele>85.69</ele>
        <time>2013-06-08T10:35:54Z</time>
      </trkpt>
      <trkpt lat="44.69884" lon="-0.28161">
        <ele>82.33</ele>
        <time>2013-06-08T10:36:09Z</time>
      </trkpt>
      <trkpt lat="44.69869" lon="-0.28143">
        <ele>79.93</ele>
        <time>2013-06-08T10:36:22Z</time>
      </trkpt>
      <trkpt lat="44.69866" lon="-0.28141">
        <ele>78.48</ele>
        <time>2013-06-08T10:36:25Z</time>
      </trkpt>
      <trkpt lat="44.69841" lon="-0.28147">
        <ele>76.08</ele>
        <time>2013-06-08T10:36:44Z</time>
      </trkpt>
      <trkpt lat="44.69836" lon="-0.28152">
        <ele>75.12</ele>
        <time>2013-06-08T10:36:49Z</time>
      </trkpt>
      <trkpt lat="44.69826" lon="-0.28123">
        <ele>72.24</ele>
        <time>2013-06-08T10:37:05Z</time>
      </trkpt>
      <trkpt lat="44.69814" lon="-0.2809">
        <ele>72.72</ele>
        <time>2013-06-08T10:37:22Z</time>
      </trkpt>
      <trkpt lat="44.69801" lon="-0.28048">
        <ele>72.24</ele>
        <time>2013-06-08T10:37:43Z</time>
      </trkpt>
      <trkpt lat="44.69798" lon="-0.28006">
        <ele>70.79</ele>
        <time>2013-06-08T10:38:03Z</time>
      </trkpt>
      <trkpt lat="44.69799" lon="-0.27965">
        <ele>69.83</ele>
        <time>2013-06-08T10:38:22Z</time>
      </trkpt>
      <trkpt lat="44.69799" lon="-0.27925">
        <ele>69.35</ele>
        <time>2013-06-08T10:38:41Z</time>
      </trkpt>
      <trkpt lat="44.69798" lon="-0.27879">
        <ele>69.35</ele>
        <time>2013-06-08T10:39:02Z</time>
      </trkpt>
      <trkpt lat="44.69793" lon="-0.27853">
        <ele>68.87</ele>
        <time>2013-06-08T10:39:17Z</time>
      </trkpt>
      <trkpt lat="44.69783" lon="-0.27852">
        <ele>67.43</ele>
        <time>2013-06-08T10:39:24Z</time>
      </trkpt>
      <trkpt lat="44.6977" lon="-0.27854">
        <ele>67.43</ele>
        <time>2013-06-08T10:39:33Z</time>
      </trkpt>
      <trkpt lat="44.69762" lon="-0.27822">
        <ele>66.95</ele>
        <time>2013-06-08T10:39:49Z</time>
      </trkpt>
      <trkpt lat="44.69758" lon="-0.27783">
        <ele>66.95</ele>
        <time>2013-06-08T10:40:09Z</time>
      </trkpt>
      <trkpt lat="44.69753" lon="-0.27745">
        <ele>67.43</ele>
        <time>2013-06-08T10:40:29Z</time>
      </trkpt>
      <trkpt lat="44.69743" lon="-0.27707">
        <ele>67.43</ele>
        <time>2013-06-08T10:40:49Z</time>
      </trkpt>
      <trkpt lat="44.69731" lon="-0.27672">
        <ele>65.99</ele>
        <time>2013-06-08T10:41:07Z</time>
      </trkpt>
      <trkpt lat="44.69716" lon="-0.27637">
        <ele>65.51</ele>
        <time>2013-06-08T10:41:29Z</time>
      </trkpt>
      <trkpt lat="44.69713" lon="-0.27603">
        <ele>64.07</ele>
        <time>2013-06-08T10:41:47Z</time>
      </trkpt>
      <trkpt lat="44.69718" lon="-0.27597">
        <ele>64.07</ele>
        <time>2013-06-08T10:41:51Z</time>
      </trkpt>
      <trkpt lat="44.69718" lon="-0.27582">
        <ele>63.58</ele>
        <time>2013-06-08T10:41:58Z</time>
      </trkpt>
      <trkpt lat="44.69717" lon="-0.27547">
        <ele>61.66</ele>
        <time>2013-06-08T10:42:15Z</time>
      </trkpt>
      <trkpt lat="44.69713" lon="-0.27516">
        <ele>59.74</ele>
        <time>2013-06-08T10:42:31Z</time>
      </trkpt>
      <trkpt lat="44.69699" lon="-0.27502">
        <ele>59.74</ele>
        <time>2013-06-08T10:42:44Z</time>
      </trkpt>
      <trkpt lat="44.69676" lon="-0.27505">
        <ele>60.7</ele>
        <time>2013-06-08T10:43:01Z</time>
      </trkpt>
      <trkpt lat="44.69649" lon="-0.27511">
        <ele>61.66</ele>
        <time>2013-06-08T10:43:20Z</time>
      </trkpt>
      <trkpt lat="44.69623" lon="-0.27521">
        <ele>61.66</ele>
        <time>2013-06-08T10:43:39Z</time>
      </trkpt>
      <trkpt lat="44.69598" lon="-0.27529">
        <ele>61.18</ele>
        <time>2013-06-08T10:43:57Z</time>
      </trkpt>
      <trkpt lat="44.69593" lon="-0.27532">
        <ele>60.22</ele>
        <time>2013-06-08T10:44:02Z</time>
      </trkpt>
      <trkpt lat="44.69585" lon="-0.27537">
        <ele>60.22</ele>
        <time>2013-06-08T10:44:09Z</time>
      </trkpt>
      <trkpt lat="44.69562" lon="-0.27551">
        <ele>57.82</ele>
        <time>2013-06-08T10:44:26Z</time>
      </trkpt>
      <trkpt lat="44.69546" lon="-0.27561">
        <ele>55.41</ele>
        <time>2013-06-08T10:44:40Z</time>
      </trkpt>
      <trkpt lat="44.69524" lon="-0.27574">
        <ele>54.93</ele>
        <time>2013-06-08T10:44:57Z</time>
      </trkpt>
      <trkpt lat="44.69502" lon="-0.27581">
        <ele>52.53</ele>
        <time>2013-06-08T10:45:14Z</time>
      </trkpt>
      <trkpt lat="44.69485" lon="-0.2756">
        <ele>50.13</ele>
        <time>2013-06-08T10:45:29Z</time>
      </trkpt>
      <trkpt lat="44.69476" lon="-0.27525">
        <ele>48.68</ele>
        <time>2013-06-08T10:45:46Z</time>
      </trkpt>
      <trkpt lat="44.69465" lon="-0.2751">
        <ele>48.68</ele>
        <time>2013-06-08T10:45:58Z</time>
      </trkpt>
      <trkpt lat="44.69436" lon="-0.27517">
        <ele>48.2</ele>
        <time>2013-06-08T10:46:18Z</time>
      </trkpt>
      <trkpt lat="44.69409" lon="-0.27524">
        <ele>48.2</ele>
        <time>2013-06-08T10:46:37Z</time>
      </trkpt>
      <trkpt lat="44.69385" lon="-0.27536">
        <ele>49.65</ele>
        <time>2013-06-08T10:46:54Z</time>
      </trkpt>
      <trkpt lat="44.69363" lon="-0.27544">
        <ele>51.09</ele>
        <time>2013-06-08T10:47:10Z</time>
      </trkpt>
      <trkpt lat="44.69339" lon="-0.2755">
        <ele>53.01</ele>
        <time>2013-06-08T10:47:28Z</time>
      </trkpt>
      <trkpt lat="44.6932" lon="-0.27576">
        <ele>55.41</ele>
        <time>2013-06-08T10:47:49Z</time>
      </trkpt>
      <trkpt lat="44.69312" lon="-0.27607">
        <ele>57.34</ele>
        <time>2013-06-08T10:48:06Z</time>
      </trkpt>
      <trkpt lat="44.69291" lon="-0.27624">
        <ele>59.26</ele>
        <time>2013-06-08T10:48:24Z</time>
      </trkpt>
      <trkpt lat="44.69263" lon="-0.27634">
        <ele>62.14</ele>
        <time>2013-06-08T10:48:45Z</time>
      </trkpt>
      <trkpt lat="44.69236" lon="-0.27639">
        <ele>63.1</ele>
        <time>2013-06-08T10:49:04Z</time>
      </trkpt>
      <trkpt lat="44.69209" lon="-0.27643">
        <ele>63.1</ele>
        <time>2013-06-08T10:49:25Z</time>
      </trkpt>
      <trkpt lat="44.69183" lon="-0.27644">
        <ele>64.55</ele>
        <time>2013-06-08T10:49:43Z</time>
      </trkpt>
      <trkpt lat="44.69161" lon="-0.27649">
        <ele>65.03</ele>
        <time>2013-06-08T10:50:00Z</time>
      </trkpt>
      <trkpt lat="44.69143" lon="-0.27675">
        <ele>65.51</ele>
        <time>2013-06-08T10:50:18Z</time>
      </trkpt>
      <trkpt lat="44.69125" lon="-0.27696">
        <ele>66.47</ele>
        <time>2013-06-08T10:50:35Z</time>
      </trkpt>
      <trkpt lat="44.69103" lon="-0.27713">
        <ele>66.95</ele>
        <time>2013-06-08T10:50:53Z</time>
      </trkpt>
      <trkpt lat="44.6907" lon="-0.27727">
        <ele>67.43</ele>
        <time>2013-06-08T10:51:16Z</time>
      </trkpt>
      <trkpt lat="44.69068" lon="-0.27727">
        <ele>67.91</ele>
        <time>2013-06-08T10:51:18Z</time>
      </trkpt>
      <trkpt lat="44.69063" lon="-0.27733">
        <ele>68.87</ele>
        <time>2013-06-08T10:51:23Z</time>
      </trkpt>
      <trkpt lat="44.69039" lon="-0.27744">
        <ele>68.39</ele>
        <time>2013-06-08T10:51:42Z</time>
      </trkpt>
      <trkpt lat="44.69018" lon="-0.27761">
        <ele>69.83</ele>
        <time>2013-06-08T10:52:00Z</time>
      </trkpt>
      <trkpt lat="44.69001" lon="-0.27774">
        <ele>70.31</ele>
        <time>2013-06-08T10:52:15Z</time>
      </trkpt>
      <trkpt lat="44.69003" lon="-0.27789">
        <ele>70.79</ele>
        <time>2013-06-08T10:52:30Z</time>
      </trkpt>
      <trkpt lat="44.69007" lon="-0.27811">
        <ele>71.76</ele>
        <time>2013-06-08T10:52:42Z</time>
      </trkpt>
      <trkpt lat="44.69007" lon="-0.27815">
        <ele>71.76</ele>
        <time>2013-06-08T10:52:44Z</time>
      </trkpt>
      <trkpt lat="44.69004" lon="-0.27821">
        <ele>72.24</ele>
        <time>2013-06-08T10:52:49Z</time>
      </trkpt>
      <trkpt lat="44.68981" lon="-0.27842">
        <ele>74.16</ele>
        <time>2013-06-08T10:53:09Z</time>
      </trkpt>
      <trkpt lat="44.68965" lon="-0.2786">
        <ele>75.12</ele>
        <time>2013-06-08T10:53:24Z</time>
      </trkpt>
      <trkpt lat="44.68954" lon="-0.27875">
        <ele>76.56</ele>
        <time>2013-06-08T10:53:36Z</time>
      </trkpt>
      <trkpt lat="44.68943" lon="-0.27881">
        <ele>76.56</ele>
        <time>2013-06-08T10:53:45Z</time>
      </trkpt>
      <trkpt lat="44.68936" lon="-0.27896">
        <ele>78</ele>
        <time>2013-06-08T10:53:54Z</time>
      </trkpt>
      <trkpt lat="44.68933" lon="-0.27899">
        <ele>78</ele>
        <time>2013-06-08T10:53:56Z</time>
      </trkpt>
      <trkpt lat="44.68927" lon="-0.27901">
        <ele>78</ele>
        <time>2013-06-08T10:54:01Z</time>
      </trkpt>
      <trkpt lat="44.68906" lon="-0.27904">
        <ele>79.93</ele>
        <time>2013-06-08T10:54:16Z</time>
      </trkpt>
      <trkpt lat="44.68889" lon="-0.27917">
        <ele>79.93</ele>
        <time>2013-06-08T10:54:30Z</time>
      </trkpt>
      <trkpt lat="44.68888" lon="-0.27918">
        <ele>80.41</ele>
        <time>2013-06-08T10:54:31Z</time>
      </trkpt>
      <trkpt lat="44.68885" lon="-0.2792">
        <ele>80.41</ele>
        <time>2013-06-08T10:54:33Z</time>
      </trkpt>
      <trkpt lat="44.68863" lon="-0.27922">
        <ele>82.33</ele>
        <time>2013-06-08T10:54:50Z</time>
      </trkpt>
      <trkpt lat="44.68837" lon="-0.27916">
        <ele>83.29</ele>
        <time>2013-06-08T10:55:06Z</time>
      </trkpt>
      <trkpt lat="44.68826" lon="-0.27912">
        <ele>83.77</ele>
        <time>2013-06-08T10:55:15Z</time>
      </trkpt>
      <trkpt lat="44.68792" lon="-0.27885">
        <ele>85.69</ele>
        <time>2013-06-08T10:55:39Z</time>
      </trkpt>
      <trkpt lat="44.68768" lon="-0.27864">
        <ele>86.18</ele>
        <time>2013-06-08T10:55:58Z</time>
      </trkpt>
      <trkpt lat="44.68754" lon="-0.27867">
        <ele>88.1</ele>
        <time>2013-06-08T10:56:12Z</time>
      </trkpt>
      <trkpt lat="44.6875" lon="-0.27867">
        <ele>88.1</ele>
        <time>2013-06-08T10:56:15Z</time>
      </trkpt>
      <trkpt lat="44.68735" lon="-0.27867">
        <ele>89.06</ele>
        <time>2013-06-08T10:56:24Z</time>
      </trkpt>
      <trkpt lat="44.68741" lon="-0.27893">
        <ele>90.98</ele>
        <time>2013-06-08T10:56:39Z</time>
      </trkpt>
      <trkpt lat="44.68751" lon="-0.27925">
        <ele>92.42</ele>
        <time>2013-06-08T10:56:57Z</time>
      </trkpt>
      <trkpt lat="44.68749" lon="-0.27952">
        <ele>94.35</ele>
        <time>2013-06-08T10:57:11Z</time>
      </trkpt>
      <trkpt lat="44.68747" lon="-0.27985">
        <ele>95.31</ele>
        <time>2013-06-08T10:57:27Z</time>
      </trkpt>
      <trkpt lat="44.6874" lon="-0.28021">
        <ele>96.75</ele>
        <time>2013-06-08T10:57:44Z</time>
      </trkpt>
      <trkpt lat="44.68736" lon="-0.28059">
        <ele>99.63</ele>
        <time>2013-06-08T10:58:03Z</time>
      </trkpt>
      <trkpt lat="44.6873" lon="-0.28059">
        <ele>99.15</ele>
        <time>2013-06-08T10:58:07Z</time>
      </trkpt>
      <trkpt lat="44.687" lon="-0.28027">
        <ele>100.6</ele>
        <time>2013-06-08T10:58:31Z</time>
      </trkpt>
      <trkpt lat="44.68679" lon="-0.28">
        <ele>100.11</ele>
        <time>2013-06-08T10:58:50Z</time>
      </trkpt>
      <trkpt lat="44.68662" lon="-0.27979">
        <ele>97.71</ele>
        <time>2013-06-08T10:59:06Z</time>
      </trkpt>
      <trkpt lat="44.6864" lon="-0.27993">
        <ele>99.15</ele>
        <time>2013-06-08T10:59:22Z</time>
      </trkpt>
      <trkpt lat="44.68618" lon="-0.28017">
        <ele>100.11</ele>
        <time>2013-06-08T10:59:42Z</time>
      </trkpt>
      <trkpt lat="44.68602" lon="-0.28036">
        <ele>99.63</ele>
        <time>2013-06-08T10:59:58Z</time>
      </trkpt>
      <trkpt lat="44.68581" lon="-0.28058">
        <ele>98.67</ele>
        <time>2013-06-08T11:00:15Z</time>
      </trkpt>
      <trkpt lat="44.68561" lon="-0.28082">
        <ele>97.23</ele>
        <time>2013-06-08T11:00:31Z</time>
      </trkpt>
      <trkpt lat="44.68539" lon="-0.28107">
        <ele>96.27</ele>
        <time>2013-06-08T11:00:48Z</time>
      </trkpt>
      <trkpt lat="44.68519" lon="-0.2813">
        <ele>95.31</ele>
        <time>2013-06-08T11:01:04Z</time>
      </trkpt>
      <trkpt lat="44.68502" lon="-0.28159">
        <ele>95.79</ele>
        <time>2013-06-08T11:01:22Z</time>
      </trkpt>
      <trkpt lat="44.68479" lon="-0.28189">
        <ele>96.27</ele>
        <time>2013-06-08T11:01:41Z</time>
      </trkpt>
      <trkpt lat="44.68462" lon="-0.28218">
        <ele>96.75</ele>
        <time>2013-06-08T11:01:59Z</time>
      </trkpt>
      <trkpt lat="44.68441" lon="-0.28245">
        <ele>97.23</ele>
        <time>2013-06-08T11:02:17Z</time>
      </trkpt>
      <trkpt lat="44.68418" lon="-0.28264">
        <ele>98.19</ele>
        <time>2013-06-08T11:02:34Z</time>
      </trkpt>
      <trkpt lat="44.68413" lon="-0.28279">
        <ele>97.23</ele>
        <time>2013-06-08T11:16:33Z</time>
      </trkpt>
      <trkpt lat="44.68414" lon="-0.28291">
        <ele>95.79</ele>
        <time>2013-06-08T11:16:45Z</time>
      </trkpt>
      <trkpt lat="44.6842" lon="-0.28317">
        <ele>93.39</ele>
        <time>2013-06-08T11:16:56Z</time>
      </trkpt>
      <trkpt lat="44.68421" lon="-0.28319">
        <ele>92.9</ele>
        <time>2013-06-08T11:16:58Z</time>
      </trkpt>
      <trkpt lat="44.68426" lon="-0.28332">
        <ele>92.42</ele>
        <time>2013-06-08T11:17:03Z</time>
      </trkpt>
      <trkpt lat="44.68432" lon="-0.28352">
        <ele>90.98</ele>
        <time>2013-06-08T11:17:15Z</time>
      </trkpt>
      <trkpt lat="44.68439" lon="-0.28376">
        <ele>88.1</ele>
        <time>2013-06-08T11:17:27Z</time>
      </trkpt>
      <trkpt lat="44.68443" lon="-0.28389">
        <ele>86.66</ele>
        <time>2013-06-08T11:17:33Z</time>
      </trkpt>
      <trkpt lat="44.68449" lon="-0.28406">
        <ele>85.21</ele>
        <time>2013-06-08T11:17:45Z</time>
      </trkpt>
      <trkpt lat="44.68454" lon="-0.28421">
        <ele>84.25</ele>
        <time>2013-06-08T11:17:54Z</time>
      </trkpt>
      <trkpt lat="44.6846" lon="-0.28434">
        <ele>82.81</ele>
        <time>2013-06-08T11:17:59Z</time>
      </trkpt>
      <trkpt lat="44.68466" lon="-0.28454">
        <ele>81.85</ele>
        <time>2013-06-08T11:18:10Z</time>
      </trkpt>
      <trkpt lat="44.68474" lon="-0.28475">
        <ele>79.93</ele>
        <time>2013-06-08T11:18:23Z</time>
      </trkpt>
      <trkpt lat="44.68484" lon="-0.28498">
        <ele>78.97</ele>
        <time>2013-06-08T11:18:33Z</time>
      </trkpt>
      <trkpt lat="44.68487" lon="-0.2851">
        <ele>78</ele>
        <time>2013-06-08T11:18:40Z</time>
      </trkpt>
      <trkpt lat="44.68479" lon="-0.28521">
        <ele>77.04</ele>
        <time>2013-06-08T11:18:52Z</time>
      </trkpt>
      <trkpt lat="44.68462" lon="-0.28537">
        <ele>76.08</ele>
        <time>2013-06-08T11:19:04Z</time>
      </trkpt>
      <trkpt lat="44.68449" lon="-0.28548">
        <ele>74.16</ele>
        <time>2013-06-08T11:19:13Z</time>
      </trkpt>
      <trkpt lat="44.68447" lon="-0.28549">
        <ele>74.64</ele>
        <time>2013-06-08T11:19:14Z</time>
      </trkpt>
      <trkpt lat="44.68446" lon="-0.28569">
        <ele>73.2</ele>
        <time>2013-06-08T11:19:29Z</time>
      </trkpt>
      <trkpt lat="44.68452" lon="-0.28612">
        <ele>72.24</ele>
        <time>2013-06-08T11:19:43Z</time>
      </trkpt>
      <trkpt lat="44.6845" lon="-0.28635">
        <ele>69.83</ele>
        <time>2013-06-08T11:19:57Z</time>
      </trkpt>
      <trkpt lat="44.68449" lon="-0.28649">
        <ele>68.87</ele>
        <time>2013-06-08T11:20:08Z</time>
      </trkpt>
      <trkpt lat="44.68447" lon="-0.28675">
        <ele>67.43</ele>
        <time>2013-06-08T11:20:22Z</time>
      </trkpt>
      <trkpt lat="44.6845" lon="-0.28699">
        <ele>66.47</ele>
        <time>2013-06-08T11:20:34Z</time>
      </trkpt>
      <trkpt lat="44.68449" lon="-0.28702">
        <ele>65.51</ele>
        <time>2013-06-08T11:20:37Z</time>
      </trkpt>
      <trkpt lat="44.68442" lon="-0.28721">
        <ele>64.55</ele>
        <time>2013-06-08T11:20:43Z</time>
      </trkpt>
      <trkpt lat="44.68447" lon="-0.2877">
        <ele>64.55</ele>
        <time>2013-06-08T11:21:06Z</time>
      </trkpt>
      <trkpt lat="44.68451" lon="-0.2881">
        <ele>64.07</ele>
        <time>2013-06-08T11:21:24Z</time>
      </trkpt>
      <trkpt lat="44.6845" lon="-0.28813">
        <ele>63.1</ele>
        <time>2013-06-08T11:21:26Z</time>
      </trkpt>
      <trkpt lat="44.6845" lon="-0.28814">
        <ele>63.1</ele>
        <time>2013-06-08T11:21:27Z</time>
      </trkpt>
      <trkpt lat="44.68449" lon="-0.28829">
        <ele>62.62</ele>
        <time>2013-06-08T11:21:38Z</time>
      </trkpt>
      <trkpt lat="44.68448" lon="-0.28831">
        <ele>62.62</ele>
        <time>2013-06-08T11:21:39Z</time>
      </trkpt>
      <trkpt lat="44.68447" lon="-0.28833">
        <ele>62.62</ele>
        <time>2013-06-08T11:21:40Z</time>
      </trkpt>
      <trkpt lat="44.68445" lon="-0.28834">
        <ele>62.62</ele>
        <time>2013-06-08T11:21:41Z</time>
      </trkpt>
      <trkpt lat="44.68444" lon="-0.28836">
        <ele>62.62</ele>
        <time>2013-06-08T11:21:42Z</time>
      </trkpt>
      <trkpt lat="44.68425" lon="-0.28852">
        <ele>62.14</ele>
        <time>2013-06-08T11:21:55Z</time>
      </trkpt>
      <trkpt lat="44.68396" lon="-0.28872">
        <ele>61.66</ele>
        <time>2013-06-08T11:22:17Z</time>
      </trkpt>
      <trkpt lat="44.68372" lon="-0.28887">
        <ele>61.18</ele>
        <time>2013-06-08T11:22:35Z</time>
      </trkpt>
      <trkpt lat="44.68371" lon="-0.28888">
        <ele>60.7</ele>
        <time>2013-06-08T11:22:38Z</time>
      </trkpt>
      <trkpt lat="44.68368" lon="-0.28889">
        <ele>60.22</ele>
        <time>2013-06-08T11:22:39Z</time>
      </trkpt>
      <trkpt lat="44.68366" lon="-0.2889">
        <ele>60.7</ele>
        <time>2013-06-08T11:22:40Z</time>
      </trkpt>
      <trkpt lat="44.68349" lon="-0.28899">
        <ele>60.22</ele>
        <time>2013-06-08T11:22:53Z</time>
      </trkpt>
      <trkpt lat="44.68348" lon="-0.289">
        <ele>59.74</ele>
        <time>2013-06-08T11:22:54Z</time>
      </trkpt>
      <trkpt lat="44.68346" lon="-0.28902">
        <ele>60.22</ele>
        <time>2013-06-08T11:22:55Z</time>
      </trkpt>
      <trkpt lat="44.68323" lon="-0.28916">
        <ele>59.74</ele>
        <time>2013-06-08T11:23:09Z</time>
      </trkpt>
      <trkpt lat="44.68295" lon="-0.28938">
        <ele>59.26</ele>
        <time>2013-06-08T11:23:31Z</time>
      </trkpt>
      <trkpt lat="44.68256" lon="-0.28963">
        <ele>58.78</ele>
        <time>2013-06-08T11:23:58Z</time>
      </trkpt>
      <trkpt lat="44.68232" lon="-0.28999">
        <ele>57.82</ele>
        <time>2013-06-08T11:24:21Z</time>
      </trkpt>
      <trkpt lat="44.68217" lon="-0.29048">
        <ele>57.34</ele>
        <time>2013-06-08T11:24:44Z</time>
      </trkpt>
      <trkpt lat="44.68196" lon="-0.29083">
        <ele>56.86</ele>
        <time>2013-06-08T11:25:06Z</time>
      </trkpt>
      <trkpt lat="44.68176" lon="-0.291">
        <ele>56.86</ele>
        <time>2013-06-08T11:25:26Z</time>
      </trkpt>
      <trkpt lat="44.6817" lon="-0.2905">
        <ele>56.86</ele>
        <time>2013-06-08T11:25:49Z</time>
      </trkpt>
      <trkpt lat="44.68166" lon="-0.29039">
        <ele>56.86</ele>
        <time>2013-06-08T11:26:02Z</time>
      </trkpt>
      <trkpt lat="44.68147" lon="-0.29007">
        <ele>57.34</ele>
        <time>2013-06-08T11:26:22Z</time>
      </trkpt>
      <trkpt lat="44.68123" lon="-0.28972">
        <ele>59.74</ele>
        <time>2013-06-08T11:26:48Z</time>
      </trkpt>
      <trkpt lat="44.68108" lon="-0.28952">
        <ele>60.7</ele>
        <time>2013-06-08T11:27:09Z</time>
      </trkpt>
      <trkpt lat="44.68082" lon="-0.28924">
        <ele>60.22</ele>
        <time>2013-06-08T11:27:33Z</time>
      </trkpt>
      <trkpt lat="44.6806" lon="-0.28892">
        <ele>60.7</ele>
        <time>2013-06-08T11:27:57Z</time>
      </trkpt>
      <trkpt lat="44.6803" lon="-0.28873">
        <ele>61.66</ele>
        <time>2013-06-08T11:28:21Z</time>
      </trkpt>
      <trkpt lat="44.67994" lon="-0.28856">
        <ele>62.14</ele>
        <time>2013-06-08T11:28:48Z</time>
      </trkpt>
      <trkpt lat="44.67977" lon="-0.2884">
        <ele>58.78</ele>
        <time>2013-06-08T11:29:03Z</time>
      </trkpt>
      <trkpt lat="44.67955" lon="-0.28824">
        <ele>55.89</ele>
        <time>2013-06-08T11:29:19Z</time>
      </trkpt>
      <trkpt lat="44.6793" lon="-0.28795">
        <ele>54.45</ele>
        <time>2013-06-08T11:29:40Z</time>
      </trkpt>
      <trkpt lat="44.67897" lon="-0.28775">
        <ele>54.45</ele>
        <time>2013-06-08T11:30:05Z</time>
      </trkpt>
      <trkpt lat="44.67882" lon="-0.28779">
        <ele>55.89</ele>
        <time>2013-06-08T11:30:18Z</time>
      </trkpt>
      <trkpt lat="44.6787" lon="-0.28777">
        <ele>56.37</ele>
        <time>2013-06-08T11:30:26Z</time>
      </trkpt>
      <trkpt lat="44.67843" lon="-0.28752">
        <ele>59.26</ele>
        <time>2013-06-08T11:30:51Z</time>
      </trkpt>
      <trkpt lat="44.67808" lon="-0.28732">
        <ele>58.78</ele>
        <time>2013-06-08T11:31:17Z</time>
      </trkpt>
      <trkpt lat="44.67778" lon="-0.2871">
        <ele>58.78</ele>
        <time>2013-06-08T11:31:41Z</time>
      </trkpt>
      <trkpt lat="44.67752" lon="-0.28713">
        <ele>59.26</ele>
        <time>2013-06-08T11:32:03Z</time>
      </trkpt>
      <trkpt lat="44.67749" lon="-0.28728">
        <ele>59.74</ele>
        <time>2013-06-08T11:32:11Z</time>
      </trkpt>
      <trkpt lat="44.67738" lon="-0.28765">
        <ele>63.1</ele>
        <time>2013-06-08T11:32:32Z</time>
      </trkpt>
      <trkpt lat="44.67737" lon="-0.28773">
        <ele>64.07</ele>
        <time>2013-06-08T11:32:37Z</time>
      </trkpt>
      <trkpt lat="44.67735" lon="-0.28782">
        <ele>65.51</ele>
        <time>2013-06-08T11:32:43Z</time>
      </trkpt>
      <trkpt lat="44.67735" lon="-0.28821">
        <ele>68.39</ele>
        <time>2013-06-08T11:33:06Z</time>
      </trkpt>
      <trkpt lat="44.67737" lon="-0.28844">
        <ele>70.31</ele>
        <time>2013-06-08T11:33:19Z</time>
      </trkpt>
      <trkpt lat="44.67739" lon="-0.28885">
        <ele>72.24</ele>
        <time>2013-06-08T11:33:42Z</time>
      </trkpt>
      <trkpt lat="44.67743" lon="-0.28935">
        <ele>72.24</ele>
        <time>2013-06-08T11:34:07Z</time>
      </trkpt>
      <trkpt lat="44.67747" lon="-0.28956">
        <ele>72.24</ele>
        <time>2013-06-08T11:34:25Z</time>
      </trkpt>
      <trkpt lat="44.67745" lon="-0.28957">
        <ele>72.24</ele>
        <time>2013-06-08T11:34:49Z</time>
      </trkpt>
      <trkpt lat="44.67757" lon="-0.28969">
        <ele>73.2</ele>
        <time>2013-06-08T11:35:12Z</time>
      </trkpt>
      <trkpt lat="44.67773" lon="-0.29002">
        <ele>73.2</ele>
        <time>2013-06-08T11:35:33Z</time>
      </trkpt>
      <trkpt lat="44.67762" lon="-0.29024">
        <ele>75.12</ele>
        <time>2013-06-08T11:35:48Z</time>
      </trkpt>
      <trkpt lat="44.67766" lon="-0.29054">
        <ele>79.45</ele>
        <time>2013-06-08T11:36:05Z</time>
      </trkpt>
      <trkpt lat="44.67761" lon="-0.29071">
        <ele>81.85</ele>
        <time>2013-06-08T11:36:20Z</time>
      </trkpt>
      <trkpt lat="44.67759" lon="-0.29075">
        <ele>82.81</ele>
        <time>2013-06-08T11:36:24Z</time>
      </trkpt>
      <trkpt lat="44.67752" lon="-0.29085">
        <ele>84.73</ele>
        <time>2013-06-08T11:36:33Z</time>
      </trkpt>
      <trkpt lat="44.67749" lon="-0.29105">
        <ele>86.18</ele>
        <time>2013-06-08T11:36:47Z</time>
      </trkpt>
      <trkpt lat="44.67766" lon="-0.29135">
        <ele>86.18</ele>
        <time>2013-06-08T11:37:08Z</time>
      </trkpt>
      <trkpt lat="44.67751" lon="-0.29172">
        <ele>85.21</ele>
        <time>2013-06-08T11:37:29Z</time>
      </trkpt>
      <trkpt lat="44.6774" lon="-0.29166">
        <ele>85.21</ele>
        <time>2013-06-08T11:37:42Z</time>
      </trkpt>
      <trkpt lat="44.67721" lon="-0.29155">
        <ele>85.21</ele>
        <time>2013-06-08T11:38:00Z</time>
      </trkpt>
      <trkpt lat="44.67697" lon="-0.29141">
        <ele>84.25</ele>
        <time>2013-06-08T11:38:23Z</time>
      </trkpt>
      <trkpt lat="44.67677" lon="-0.29132">
        <ele>84.25</ele>
        <time>2013-06-08T11:38:38Z</time>
      </trkpt>
      <trkpt lat="44.67652" lon="-0.29116">
        <ele>83.29</ele>
        <time>2013-06-08T11:38:56Z</time>
      </trkpt>
      <trkpt lat="44.67631" lon="-0.29088">
        <ele>82.81</ele>
        <time>2013-06-08T11:39:15Z</time>
      </trkpt>
      <trkpt lat="44.67599" lon="-0.29049">
        <ele>83.29</ele>
        <time>2013-06-08T11:39:42Z</time>
      </trkpt>
      <trkpt lat="44.67592" lon="-0.29045">
        <ele>83.29</ele>
        <time>2013-06-08T11:39:48Z</time>
      </trkpt>
      <trkpt lat="44.67572" lon="-0.29066">
        <ele>78.97</ele>
        <time>2013-06-08T11:40:02Z</time>
      </trkpt>
      <trkpt lat="44.67555" lon="-0.29084">
        <ele>74.64</ele>
        <time>2013-06-08T11:40:15Z</time>
      </trkpt>
      <trkpt lat="44.67554" lon="-0.29086">
        <ele>74.64</ele>
        <time>2013-06-08T11:40:16Z</time>
      </trkpt>
      <trkpt lat="44.67535" lon="-0.29105">
        <ele>71.27</ele>
        <time>2013-06-08T11:40:32Z</time>
      </trkpt>
      <trkpt lat="44.67519" lon="-0.29118">
        <ele>67.91</ele>
        <time>2013-06-08T11:40:44Z</time>
      </trkpt>
      <trkpt lat="44.67498" lon="-0.29136">
        <ele>64.55</ele>
        <time>2013-06-08T11:40:59Z</time>
      </trkpt>
      <trkpt lat="44.67476" lon="-0.29159">
        <ele>61.66</ele>
        <time>2013-06-08T11:41:17Z</time>
      </trkpt>
      <trkpt lat="44.67459" lon="-0.29175">
        <ele>58.78</ele>
        <time>2013-06-08T11:41:30Z</time>
      </trkpt>
      <trkpt lat="44.6744" lon="-0.29194">
        <ele>54.93</ele>
        <time>2013-06-08T11:41:44Z</time>
      </trkpt>
      <trkpt lat="44.67418" lon="-0.29216">
        <ele>53.97</ele>
        <time>2013-06-08T11:42:03Z</time>
      </trkpt>
      <trkpt lat="44.674" lon="-0.2924">
        <ele>50.61</ele>
        <time>2013-06-08T11:42:20Z</time>
      </trkpt>
      <trkpt lat="44.67379" lon="-0.29263">
        <ele>48.2</ele>
        <time>2013-06-08T11:42:38Z</time>
      </trkpt>
      <trkpt lat="44.67351" lon="-0.29294">
        <ele>46.76</ele>
        <time>2013-06-08T11:43:02Z</time>
      </trkpt>
      <trkpt lat="44.67332" lon="-0.29314">
        <ele>44.84</ele>
        <time>2013-06-08T11:43:19Z</time>
      </trkpt>
      <trkpt lat="44.67319" lon="-0.29296">
        <ele>43.4</ele>
        <time>2013-06-08T11:43:35Z</time>
      </trkpt>
      <trkpt lat="44.67303" lon="-0.29266">
        <ele>43.4</ele>
        <time>2013-06-08T11:43:55Z</time>
      </trkpt>
      <trkpt lat="44.67288" lon="-0.29242">
        <ele>44.36</ele>
        <time>2013-06-08T11:44:13Z</time>
      </trkpt>
      <trkpt lat="44.6727" lon="-0.29215">
        <ele>46.28</ele>
        <time>2013-06-08T11:44:32Z</time>
      </trkpt>
      <trkpt lat="44.67253" lon="-0.29184">
        <ele>47.24</ele>
        <time>2013-06-08T11:44:52Z</time>
      </trkpt>
      <trkpt lat="44.67233" lon="-0.29146">
        <ele>46.28</ele>
        <time>2013-06-08T11:45:15Z</time>
      </trkpt>
      <trkpt lat="44.67214" lon="-0.29114">
        <ele>45.32</ele>
        <time>2013-06-08T11:45:35Z</time>
      </trkpt>
      <trkpt lat="44.67192" lon="-0.29084">
        <ele>46.28</ele>
        <time>2013-06-08T11:45:55Z</time>
      </trkpt>
      <trkpt lat="44.67174" lon="-0.2905">
        <ele>47.24</ele>
        <time>2013-06-08T11:46:16Z</time>
      </trkpt>
      <trkpt lat="44.67157" lon="-0.29021">
        <ele>45.8</ele>
        <time>2013-06-08T11:46:34Z</time>
      </trkpt>
      <trkpt lat="44.67141" lon="-0.28985">
        <ele>45.32</ele>
        <time>2013-06-08T11:46:56Z</time>
      </trkpt>
      <trkpt lat="44.67125" lon="-0.28954">
        <ele>44.84</ele>
        <time>2013-06-08T11:47:16Z</time>
      </trkpt>
      <trkpt lat="44.67101" lon="-0.28922">
        <ele>44.36</ele>
        <time>2013-06-08T11:47:39Z</time>
      </trkpt>
      <trkpt lat="44.67083" lon="-0.28908">
        <ele>44.84</ele>
        <time>2013-06-08T11:47:56Z</time>
      </trkpt>
      <trkpt lat="44.6708" lon="-0.28912">
        <ele>43.4</ele>
        <time>2013-06-08T11:48:00Z</time>
      </trkpt>
      <trkpt lat="44.67072" lon="-0.28918">
        <ele>42.92</ele>
        <time>2013-06-08T11:48:06Z</time>
      </trkpt>
      <trkpt lat="44.6705" lon="-0.28952">
        <ele>40.51</ele>
        <time>2013-06-08T11:48:33Z</time>
      </trkpt>
      <trkpt lat="44.67028" lon="-0.28984">
        <ele>39.07</ele>
        <time>2013-06-08T11:48:56Z</time>
      </trkpt>
      <trkpt lat="44.67029" lon="-0.28993">
        <ele>39.07</ele>
        <time>2013-06-08T11:49:01Z</time>
      </trkpt>
      <trkpt lat="44.67014" lon="-0.29023">
        <ele>37.63</ele>
        <time>2013-06-08T11:49:21Z</time>
      </trkpt>
      <trkpt lat="44.66996" lon="-0.29038">
        <ele>34.26</ele>
        <time>2013-06-08T11:49:37Z</time>
      </trkpt>
      <trkpt lat="44.66991" lon="-0.29059">
        <ele>33.3</ele>
        <time>2013-06-08T11:49:50Z</time>
      </trkpt>
      <trkpt lat="44.66995" lon="-0.29075">
        <ele>32.82</ele>
        <time>2013-06-08T11:50:10Z</time>
      </trkpt>
      <trkpt lat="44.66998" lon="-0.29077">
        <ele>32.82</ele>
        <time>2013-06-08T11:50:14Z</time>
      </trkpt>
      <trkpt lat="44.67005" lon="-0.29085">
        <ele>32.82</ele>
        <time>2013-06-08T11:50:36Z</time>
      </trkpt>
      <trkpt lat="44.66985" lon="-0.29101">
        <ele>33.3</ele>
        <time>2013-06-08T11:50:59Z</time>
      </trkpt>
      <trkpt lat="44.66973" lon="-0.29111">
        <ele>35.23</ele>
        <time>2013-06-08T11:51:20Z</time>
      </trkpt>
      <trkpt lat="44.66968" lon="-0.29108">
        <ele>37.15</ele>
        <time>2013-06-08T11:51:33Z</time>
      </trkpt>
      <trkpt lat="44.66968" lon="-0.29107">
        <ele>36.67</ele>
        <time>2013-06-08T11:51:34Z</time>
      </trkpt>
      <trkpt lat="44.66948" lon="-0.29106">
        <ele>38.59</ele>
        <time>2013-06-08T11:51:55Z</time>
      </trkpt>
      <trkpt lat="44.66926" lon="-0.29096">
        <ele>38.11</ele>
        <time>2013-06-08T11:52:15Z</time>
      </trkpt>
      <trkpt lat="44.66906" lon="-0.29082">
        <ele>39.07</ele>
        <time>2013-06-08T11:52:39Z</time>
      </trkpt>
      <trkpt lat="44.66887" lon="-0.29081">
        <ele>41.47</ele>
        <time>2013-06-08T11:52:59Z</time>
      </trkpt>
      <trkpt lat="44.66875" lon="-0.2908">
        <ele>44.36</ele>
        <time>2013-06-08T11:53:13Z</time>
      </trkpt>
      <trkpt lat="44.66874" lon="-0.29077">
        <ele>43.88</ele>
        <time>2013-06-08T11:53:20Z</time>
      </trkpt>
      <trkpt lat="44.66853" lon="-0.29076">
        <ele>45.32</ele>
        <time>2013-06-08T11:53:46Z</time>
      </trkpt>
      <trkpt lat="44.66826" lon="-0.29063">
        <ele>46.76</ele>
        <time>2013-06-08T11:54:12Z</time>
      </trkpt>
      <trkpt lat="44.6682" lon="-0.29076">
        <ele>48.68</ele>
        <time>2013-06-08T11:54:31Z</time>
      </trkpt>
      <trkpt lat="44.66817" lon="-0.2908">
        <ele>49.65</ele>
        <time>2013-06-08T11:54:35Z</time>
      </trkpt>
      <trkpt lat="44.66807" lon="-0.29084">
        <ele>50.13</ele>
        <time>2013-06-08T11:54:43Z</time>
      </trkpt>
      <trkpt lat="44.66786" lon="-0.29095">
        <ele>51.09</ele>
        <time>2013-06-08T11:55:03Z</time>
      </trkpt>
      <trkpt lat="44.66776" lon="-0.29113">
        <ele>53.49</ele>
        <time>2013-06-08T11:55:23Z</time>
      </trkpt>
      <trkpt lat="44.66761" lon="-0.29129">
        <ele>55.89</ele>
        <time>2013-06-08T11:55:47Z</time>
      </trkpt>
      <trkpt lat="44.66752" lon="-0.29148">
        <ele>58.3</ele>
        <time>2013-06-08T11:56:10Z</time>
      </trkpt>
      <trkpt lat="44.66746" lon="-0.29161">
        <ele>61.18</ele>
        <time>2013-06-08T11:56:27Z</time>
      </trkpt>
      <trkpt lat="44.66749" lon="-0.29177">
        <ele>63.58</ele>
        <time>2013-06-08T11:56:48Z</time>
      </trkpt>
      <trkpt lat="44.66753" lon="-0.29189">
        <ele>65.51</ele>
        <time>2013-06-08T11:57:02Z</time>
      </trkpt>
      <trkpt lat="44.66766" lon="-0.29212">
        <ele>65.99</ele>
        <time>2013-06-08T11:57:21Z</time>
      </trkpt>
      <trkpt lat="44.66782" lon="-0.29242">
        <ele>67.91</ele>
        <time>2013-06-08T11:57:41Z</time>
      </trkpt>
      <trkpt lat="44.668" lon="-0.29275">
        <ele>68.39</ele>
        <time>2013-06-08T11:58:03Z</time>
      </trkpt>
      <trkpt lat="44.66812" lon="-0.29308">
        <ele>68.39</ele>
        <time>2013-06-08T11:58:23Z</time>
      </trkpt>
      <trkpt lat="44.66818" lon="-0.29325">
        <ele>70.31</ele>
        <time>2013-06-08T11:58:40Z</time>
      </trkpt>
      <trkpt lat="44.66821" lon="-0.29333">
        <ele>68.87</ele>
        <time>2013-06-08T11:58:45Z</time>
      </trkpt>
      <trkpt lat="44.66823" lon="-0.29338">
        <ele>70.31</ele>
        <time>2013-06-08T11:58:48Z</time>
      </trkpt>
      <trkpt lat="44.66825" lon="-0.2934">
        <ele>70.79</ele>
        <time>2013-06-08T11:58:49Z</time>
      </trkpt>
      <trkpt lat="44.66826" lon="-0.29343">
        <ele>70.79</ele>
        <time>2013-06-08T11:58:50Z</time>
      </trkpt>
      <trkpt lat="44.66826" lon="-0.29345">
        <ele>70.31</ele>
        <time>2013-06-08T11:58:51Z</time>
      </trkpt>
      <trkpt lat="44.66831" lon="-0.29357">
        <ele>70.79</ele>
        <time>2013-06-08T11:59:00Z</time>
      </trkpt>
      <trkpt lat="44.66833" lon="-0.29368">
        <ele>71.27</ele>
        <time>2013-06-08T11:59:08Z</time>
      </trkpt>
      <trkpt lat="44.66834" lon="-0.29372">
        <ele>71.27</ele>
        <time>2013-06-08T11:59:09Z</time>
      </trkpt>
      <trkpt lat="44.66834" lon="-0.29374">
        <ele>70.79</ele>
        <time>2013-06-08T11:59:10Z</time>
      </trkpt>
      <trkpt lat="44.66846" lon="-0.29415">
        <ele>70.31</ele>
        <time>2013-06-08T11:59:31Z</time>
      </trkpt>
      <trkpt lat="44.66849" lon="-0.29427">
        <ele>72.24</ele>
        <time>2013-06-08T11:59:38Z</time>
      </trkpt>
      <trkpt lat="44.66856" lon="-0.29446">
        <ele>74.16</ele>
        <time>2013-06-08T11:59:50Z</time>
      </trkpt>
      <trkpt lat="44.66866" lon="-0.29477">
        <ele>75.6</ele>
        <time>2013-06-08T12:00:07Z</time>
      </trkpt>
      <trkpt lat="44.66878" lon="-0.29508">
        <ele>77.52</ele>
        <time>2013-06-08T12:00:25Z</time>
      </trkpt>
      <trkpt lat="44.66889" lon="-0.29537">
        <ele>77.52</ele>
        <time>2013-06-08T12:00:41Z</time>
      </trkpt>
      <trkpt lat="44.66902" lon="-0.2957">
        <ele>77.52</ele>
        <time>2013-06-08T12:00:59Z</time>
      </trkpt>
      <trkpt lat="44.66912" lon="-0.29605">
        <ele>77.52</ele>
        <time>2013-06-08T12:01:16Z</time>
      </trkpt>
      <trkpt lat="44.66923" lon="-0.29638">
        <ele>76.56</ele>
        <time>2013-06-08T12:01:34Z</time>
      </trkpt>
      <trkpt lat="44.66937" lon="-0.2967">
        <ele>75.6</ele>
        <time>2013-06-08T12:01:52Z</time>
      </trkpt>
      <trkpt lat="44.66953" lon="-0.29701">
        <ele>74.64</ele>
        <time>2013-06-08T12:02:10Z</time>
      </trkpt>
      <trkpt lat="44.66967" lon="-0.29734">
        <ele>73.2</ele>
        <time>2013-06-08T12:02:28Z</time>
      </trkpt>
      <trkpt lat="44.66983" lon="-0.29768">
        <ele>72.72</ele>
        <time>2013-06-08T12:02:46Z</time>
      </trkpt>
      <trkpt lat="44.66998" lon="-0.29806">
        <ele>72.72</ele>
        <time>2013-06-08T12:03:06Z</time>
      </trkpt>
      <trkpt lat="44.67017" lon="-0.29845">
        <ele>73.2</ele>
        <time>2013-06-08T12:03:28Z</time>
      </trkpt>
      <trkpt lat="44.67035" lon="-0.29883">
        <ele>73.2</ele>
        <time>2013-06-08T12:03:49Z</time>
      </trkpt>
      <trkpt lat="44.67054" lon="-0.29919">
        <ele>74.64</ele>
        <time>2013-06-08T12:04:09Z</time>
      </trkpt>
      <trkpt lat="44.67056" lon="-0.29957">
        <ele>74.16</ele>
        <time>2013-06-08T12:04:28Z</time>
      </trkpt>
      <trkpt lat="44.67048" lon="-0.29992">
        <ele>75.6</ele>
        <time>2013-06-08T12:04:46Z</time>
      </trkpt>
      <trkpt lat="44.6703" lon="-0.30031">
        <ele>77.52</ele>
        <time>2013-06-08T12:05:09Z</time>
      </trkpt>
      <trkpt lat="44.67008" lon="-0.30066">
        <ele>78.48</ele>
        <time>2013-06-08T12:05:32Z</time>
      </trkpt>
      <trkpt lat="44.66995" lon="-0.30097">
        <ele>80.89</ele>
        <time>2013-06-08T12:05:51Z</time>
      </trkpt>
      <trkpt lat="44.6699" lon="-0.30108">
        <ele>81.85</ele>
        <time>2013-06-08T12:06:07Z</time>
      </trkpt>
      <trkpt lat="44.66985" lon="-0.3012">
        <ele>82.81</ele>
        <time>2013-06-08T12:06:23Z</time>
      </trkpt>
      <trkpt lat="44.66981" lon="-0.3013">
        <ele>83.29</ele>
        <time>2013-06-08T12:06:37Z</time>
      </trkpt>
      <trkpt lat="44.66973" lon="-0.30143">
        <ele>84.73</ele>
        <time>2013-06-08T12:06:51Z</time>
      </trkpt>
      <trkpt lat="44.66971" lon="-0.30143">
        <ele>84.73</ele>
        <time>2013-06-08T12:06:53Z</time>
      </trkpt>
      <trkpt lat="44.66961" lon="-0.3014">
        <ele>82.33</ele>
        <time>2013-06-08T12:07:02Z</time>
      </trkpt>
      <trkpt lat="44.66959" lon="-0.3014">
        <ele>82.81</ele>
        <time>2013-06-08T12:07:03Z</time>
      </trkpt>
      <trkpt lat="44.66953" lon="-0.30143">
        <ele>83.29</ele>
        <time>2013-06-08T12:07:08Z</time>
      </trkpt>
      <trkpt lat="44.66935" lon="-0.30163">
        <ele>83.77</ele>
        <time>2013-06-08T12:07:25Z</time>
      </trkpt>
      <trkpt lat="44.66916" lon="-0.30186">
        <ele>84.73</ele>
        <time>2013-06-08T12:07:42Z</time>
      </trkpt>
      <trkpt lat="44.66911" lon="-0.30217">
        <ele>85.69</ele>
        <time>2013-06-08T12:07:57Z</time>
      </trkpt>
      <trkpt lat="44.66904" lon="-0.30251">
        <ele>85.21</ele>
        <time>2013-06-08T12:08:15Z</time>
      </trkpt>
      <trkpt lat="44.66893" lon="-0.30281">
        <ele>85.21</ele>
        <time>2013-06-08T12:08:31Z</time>
      </trkpt>
      <trkpt lat="44.66893" lon="-0.30283">
        <ele>85.69</ele>
        <time>2013-06-08T12:08:32Z</time>
      </trkpt>
      <trkpt lat="44.66892" lon="-0.30285">
        <ele>85.69</ele>
        <time>2013-06-08T12:08:33Z</time>
      </trkpt>
      <trkpt lat="44.66891" lon="-0.30286">
        <ele>86.66</ele>
        <time>2013-06-08T12:08:34Z</time>
      </trkpt>
      <trkpt lat="44.66891" lon="-0.30288">
        <ele>86.18</ele>
        <time>2013-06-08T12:08:35Z</time>
      </trkpt>
      <trkpt lat="44.6689" lon="-0.3029">
        <ele>85.69</ele>
        <time>2013-06-08T12:08:36Z</time>
      </trkpt>
      <trkpt lat="44.6689" lon="-0.30291">
        <ele>85.69</ele>
        <time>2013-06-08T12:08:37Z</time>
      </trkpt>
      <trkpt lat="44.66889" lon="-0.30293">
        <ele>86.18</ele>
        <time>2013-06-08T12:08:38Z</time>
      </trkpt>
      <trkpt lat="44.66884" lon="-0.30303">
        <ele>85.69</ele>
        <time>2013-06-08T12:08:45Z</time>
      </trkpt>
      <trkpt lat="44.66866" lon="-0.30302">
        <ele>82.81</ele>
        <time>2013-06-08T12:08:57Z</time>
      </trkpt>
      <trkpt lat="44.66843" lon="-0.30303">
        <ele>79.93</ele>
        <time>2013-06-08T12:09:13Z</time>
      </trkpt>
      <trkpt lat="44.66832" lon="-0.30304">
        <ele>77.04</ele>
        <time>2013-06-08T12:09:21Z</time>
      </trkpt>
      <trkpt lat="44.66813" lon="-0.30303">
        <ele>73.68</ele>
        <time>2013-06-08T12:09:35Z</time>
      </trkpt>
      <trkpt lat="44.668" lon="-0.30302">
        <ele>70.31</ele>
        <time>2013-06-08T12:09:45Z</time>
      </trkpt>
      <trkpt lat="44.66781" lon="-0.303">
        <ele>67.43</ele>
        <time>2013-06-08T12:10:01Z</time>
      </trkpt>
      <trkpt lat="44.66763" lon="-0.303">
        <ele>64.07</ele>
        <time>2013-06-08T12:10:14Z</time>
      </trkpt>
      <trkpt lat="44.66758" lon="-0.30317">
        <ele>63.1</ele>
        <time>2013-06-08T12:10:28Z</time>
      </trkpt>
      <trkpt lat="44.66757" lon="-0.30326">
        <ele>62.62</ele>
        <time>2013-06-08T12:10:33Z</time>
      </trkpt>
      <trkpt lat="44.66754" lon="-0.30343">
        <ele>61.66</ele>
        <time>2013-06-08T12:10:42Z</time>
      </trkpt>
      <trkpt lat="44.66751" lon="-0.30374">
        <ele>62.14</ele>
        <time>2013-06-08T12:10:57Z</time>
      </trkpt>
      <trkpt lat="44.66746" lon="-0.30407">
        <ele>60.7</ele>
        <time>2013-06-08T12:11:16Z</time>
      </trkpt>
      <trkpt lat="44.66739" lon="-0.30445">
        <ele>59.74</ele>
        <time>2013-06-08T12:11:36Z</time>
      </trkpt>
      <trkpt lat="44.66727" lon="-0.30482">
        <ele>56.86</ele>
        <time>2013-06-08T12:11:56Z</time>
      </trkpt>
      <trkpt lat="44.66718" lon="-0.30517">
        <ele>53.49</ele>
        <time>2013-06-08T12:12:14Z</time>
      </trkpt>
      <trkpt lat="44.66715" lon="-0.30548">
        <ele>52.53</ele>
        <time>2013-06-08T12:12:34Z</time>
      </trkpt>
      <trkpt lat="44.66714" lon="-0.3057">
        <ele>52.53</ele>
        <time>2013-06-08T12:12:49Z</time>
      </trkpt>
      <trkpt lat="44.66711" lon="-0.30599">
        <ele>51.09</ele>
        <time>2013-06-08T12:13:09Z</time>
      </trkpt>
      <trkpt lat="44.66695" lon="-0.30616">
        <ele>52.05</ele>
        <time>2013-06-08T12:13:26Z</time>
      </trkpt>
      <trkpt lat="44.66684" lon="-0.30626">
        <ele>55.41</ele>
        <time>2013-06-08T12:13:44Z</time>
      </trkpt>
      <trkpt lat="44.66669" lon="-0.30634">
        <ele>58.78</ele>
        <time>2013-06-08T12:14:01Z</time>
      </trkpt>
      <trkpt lat="44.66655" lon="-0.30652">
        <ele>61.66</ele>
        <time>2013-06-08T12:14:22Z</time>
      </trkpt>
      <trkpt lat="44.66637" lon="-0.30661">
        <ele>63.58</ele>
        <time>2013-06-08T12:14:42Z</time>
      </trkpt>
      <trkpt lat="44.66625" lon="-0.30667">
        <ele>66.95</ele>
        <time>2013-06-08T12:14:55Z</time>
      </trkpt>
      <trkpt lat="44.6662" lon="-0.3069">
        <ele>69.83</ele>
        <time>2013-06-08T12:15:16Z</time>
      </trkpt>
      <trkpt lat="44.6661" lon="-0.30688">
        <ele>70.31</ele>
        <time>2013-06-08T12:15:24Z</time>
      </trkpt>
      <trkpt lat="44.66593" lon="-0.30659">
        <ele>70.31</ele>
        <time>2013-06-08T12:15:43Z</time>
      </trkpt>
      <trkpt lat="44.66578" lon="-0.30634">
        <ele>70.31</ele>
        <time>2013-06-08T12:15:59Z</time>
      </trkpt>
      <trkpt lat="44.66562" lon="-0.30605">
        <ele>70.79</ele>
        <time>2013-06-08T12:16:16Z</time>
      </trkpt>
      <trkpt lat="44.66548" lon="-0.30577">
        <ele>71.76</ele>
        <time>2013-06-08T12:16:32Z</time>
      </trkpt>
      <trkpt lat="44.66533" lon="-0.30554">
        <ele>71.76</ele>
        <time>2013-06-08T12:16:48Z</time>
      </trkpt>
      <trkpt lat="44.6652" lon="-0.30524">
        <ele>72.72</ele>
        <time>2013-06-08T12:17:05Z</time>
      </trkpt>
      <trkpt lat="44.66502" lon="-0.30501">
        <ele>73.68</ele>
        <time>2013-06-08T12:17:21Z</time>
      </trkpt>
      <trkpt lat="44.66494" lon="-0.30488">
        <ele>74.16</ele>
        <time>2013-06-08T12:17:31Z</time>
      </trkpt>
      <trkpt lat="44.66477" lon="-0.30464">
        <ele>76.56</ele>
        <time>2013-06-08T12:17:48Z</time>
      </trkpt>
      <trkpt lat="44.66471" lon="-0.30456">
        <ele>76.08</ele>
        <time>2013-06-08T12:17:54Z</time>
      </trkpt>
      <trkpt lat="44.6645" lon="-0.30428">
        <ele>78.48</ele>
        <time>2013-06-08T12:18:15Z</time>
      </trkpt>
      <trkpt lat="44.6643" lon="-0.30403">
        <ele>80.89</ele>
        <time>2013-06-08T12:18:34Z</time>
      </trkpt>
      <trkpt lat="44.6641" lon="-0.304">
        <ele>81.37</ele>
        <time>2013-06-08T12:18:49Z</time>
      </trkpt>
      <trkpt lat="44.66391" lon="-0.30411">
        <ele>79.45</ele>
        <time>2013-06-08T12:19:06Z</time>
      </trkpt>
      <trkpt lat="44.66373" lon="-0.30419">
        <ele>77.04</ele>
        <time>2013-06-08T12:19:20Z</time>
      </trkpt>
      <trkpt lat="44.66351" lon="-0.30426">
        <ele>73.68</ele>
        <time>2013-06-08T12:19:37Z</time>
      </trkpt>
      <trkpt lat="44.66328" lon="-0.30432">
        <ele>70.79</ele>
        <time>2013-06-08T12:19:54Z</time>
      </trkpt>
      <trkpt lat="44.66307" lon="-0.30439">
        <ele>68.39</ele>
        <time>2013-06-08T12:20:10Z</time>
      </trkpt>
      <trkpt lat="44.66301" lon="-0.30441">
        <ele>67.91</ele>
        <time>2013-06-08T12:20:15Z</time>
      </trkpt>
      <trkpt lat="44.66295" lon="-0.30427">
        <ele>68.87</ele>
        <time>2013-06-08T12:20:24Z</time>
      </trkpt>
      <trkpt lat="44.66293" lon="-0.30407">
        <ele>71.76</ele>
        <time>2013-06-08T12:20:35Z</time>
      </trkpt>
      <trkpt lat="44.66285" lon="-0.30387">
        <ele>73.2</ele>
        <time>2013-06-08T12:20:52Z</time>
      </trkpt>
      <trkpt lat="44.66273" lon="-0.30401">
        <ele>70.31</ele>
        <time>2013-06-08T12:21:07Z</time>
      </trkpt>
      <trkpt lat="44.66255" lon="-0.30407">
        <ele>67.43</ele>
        <time>2013-06-08T12:21:24Z</time>
      </trkpt>
      <trkpt lat="44.66254" lon="-0.30406">
        <ele>67.91</ele>
        <time>2013-06-08T12:21:25Z</time>
      </trkpt>
      <trkpt lat="44.66242" lon="-0.30384">
        <ele>67.43</ele>
        <time>2013-06-08T12:21:40Z</time>
      </trkpt>
      <trkpt lat="44.66227" lon="-0.30352">
        <ele>67.43</ele>
        <time>2013-06-08T12:22:01Z</time>
      </trkpt>
      <trkpt lat="44.66221" lon="-0.30314">
        <ele>67.91</ele>
        <time>2013-06-08T12:22:22Z</time>
      </trkpt>
      <trkpt lat="44.66221" lon="-0.3029">
        <ele>68.39</ele>
        <time>2013-06-08T12:22:38Z</time>
      </trkpt>
      <trkpt lat="44.66221" lon="-0.30274">
        <ele>67.43</ele>
        <time>2013-06-08T12:22:46Z</time>
      </trkpt>
      <trkpt lat="44.66208" lon="-0.30256">
        <ele>65.03</ele>
        <time>2013-06-08T12:23:03Z</time>
      </trkpt>
      <trkpt lat="44.66197" lon="-0.30248">
        <ele>60.7</ele>
        <time>2013-06-08T12:23:15Z</time>
      </trkpt>
      <trkpt lat="44.66195" lon="-0.30248">
        <ele>61.18</ele>
        <time>2013-06-08T12:23:16Z</time>
      </trkpt>
      <trkpt lat="44.66192" lon="-0.3025">
        <ele>61.18</ele>
        <time>2013-06-08T12:23:19Z</time>
      </trkpt>
      <trkpt lat="44.66179" lon="-0.3026">
        <ele>57.34</ele>
        <time>2013-06-08T12:23:33Z</time>
      </trkpt>
      <trkpt lat="44.66162" lon="-0.30268">
        <ele>53.97</ele>
        <time>2013-06-08T12:23:48Z</time>
      </trkpt>
      <trkpt lat="44.66152" lon="-0.30272">
        <ele>52.53</ele>
        <time>2013-06-08T12:23:57Z</time>
      </trkpt>
      <trkpt lat="44.66148" lon="-0.30274">
        <ele>52.05</ele>
        <time>2013-06-08T12:24:01Z</time>
      </trkpt>
      <trkpt lat="44.66143" lon="-0.30276">
        <ele>51.57</ele>
        <time>2013-06-08T12:24:05Z</time>
      </trkpt>
      <trkpt lat="44.66132" lon="-0.30281">
        <ele>49.65</ele>
        <time>2013-06-08T12:24:16Z</time>
      </trkpt>
      <trkpt lat="44.66128" lon="-0.30284">
        <ele>48.2</ele>
        <time>2013-06-08T12:24:20Z</time>
      </trkpt>
      <trkpt lat="44.66113" lon="-0.30297">
        <ele>44.84</ele>
        <time>2013-06-08T12:24:36Z</time>
      </trkpt>
      <trkpt lat="44.66094" lon="-0.30316">
        <ele>42.92</ele>
        <time>2013-06-08T12:24:54Z</time>
      </trkpt>
      <trkpt lat="44.66087" lon="-0.30323">
        <ele>41.47</ele>
        <time>2013-06-08T12:25:02Z</time>
      </trkpt>
      <trkpt lat="44.66075" lon="-0.30336">
        <ele>40.51</ele>
        <time>2013-06-08T12:25:17Z</time>
      </trkpt>
      <trkpt lat="44.66071" lon="-0.30339">
        <ele>40.51</ele>
        <time>2013-06-08T12:25:21Z</time>
      </trkpt>
      <trkpt lat="44.66056" lon="-0.30368">
        <ele>40.99</ele>
        <time>2013-06-08T12:25:41Z</time>
      </trkpt>
      <trkpt lat="44.6604" lon="-0.30393">
        <ele>43.4</ele>
        <time>2013-06-08T12:26:00Z</time>
      </trkpt>
      <trkpt lat="44.66023" lon="-0.30406">
        <ele>45.32</ele>
        <time>2013-06-08T12:26:18Z</time>
      </trkpt>
      <trkpt lat="44.6601" lon="-0.30416">
        <ele>48.68</ele>
        <time>2013-06-08T12:26:32Z</time>
      </trkpt>
      <trkpt lat="44.65997" lon="-0.30423">
        <ele>51.09</ele>
        <time>2013-06-08T12:26:48Z</time>
      </trkpt>
      <trkpt lat="44.6598" lon="-0.30428">
        <ele>53.49</ele>
        <time>2013-06-08T12:27:05Z</time>
      </trkpt>
      <trkpt lat="44.65962" lon="-0.30431">
        <ele>53.97</ele>
        <time>2013-06-08T12:27:21Z</time>
      </trkpt>
      <trkpt lat="44.65946" lon="-0.30454">
        <ele>56.86</ele>
        <time>2013-06-08T12:27:42Z</time>
      </trkpt>
      <trkpt lat="44.65945" lon="-0.30458">
        <ele>57.34</ele>
        <time>2013-06-08T12:27:45Z</time>
      </trkpt>
      <trkpt lat="44.65944" lon="-0.30471">
        <ele>58.78</ele>
        <time>2013-06-08T12:27:54Z</time>
      </trkpt>
      <trkpt lat="44.65946" lon="-0.30476">
        <ele>59.74</ele>
        <time>2013-06-08T12:27:59Z</time>
      </trkpt>
      <trkpt lat="44.65959" lon="-0.30508">
        <ele>61.66</ele>
        <time>2013-06-08T12:28:20Z</time>
      </trkpt>
      <trkpt lat="44.65962" lon="-0.30529">
        <ele>63.58</ele>
        <time>2013-06-08T12:28:38Z</time>
      </trkpt>
      <trkpt lat="44.65962" lon="-0.30541">
        <ele>64.07</ele>
        <time>2013-06-08T12:28:55Z</time>
      </trkpt>
      <trkpt lat="44.65961" lon="-0.30539">
        <ele>64.07</ele>
        <time>2013-06-08T12:29:17Z</time>
      </trkpt>
      <trkpt lat="44.6596" lon="-0.30537">
        <ele>63.58</ele>
        <time>2013-06-08T12:29:37Z</time>
      </trkpt>
      <trkpt lat="44.65962" lon="-0.30539">
        <ele>64.55</ele>
        <time>2013-06-08T12:30:02Z</time>
      </trkpt>
      <trkpt lat="44.6596" lon="-0.30535">
        <ele>65.03</ele>
        <time>2013-06-08T12:30:19Z</time>
      </trkpt>
      <trkpt lat="44.65959" lon="-0.3054">
        <ele>64.55</ele>
        <time>2013-06-08T12:30:38Z</time>
      </trkpt>
      <trkpt lat="44.65961" lon="-0.30538">
        <ele>65.03</ele>
        <time>2013-06-08T12:31:03Z</time>
      </trkpt>
      <trkpt lat="44.6596" lon="-0.30535">
        <ele>64.55</ele>
        <time>2013-06-08T12:31:19Z</time>
      </trkpt>
      <trkpt lat="44.6596" lon="-0.30529">
        <ele>64.55</ele>
        <time>2013-06-08T12:31:47Z</time>
      </trkpt>
      <trkpt lat="44.65972" lon="-0.30543">
        <ele>65.03</ele>
        <time>2013-06-08T12:32:01Z</time>
      </trkpt>
      <trkpt lat="44.65992" lon="-0.30592">
        <ele>64.55</ele>
        <time>2013-06-08T12:32:21Z</time>
      </trkpt>
      <trkpt lat="44.66009" lon="-0.30623">
        <ele>64.07</ele>
        <time>2013-06-08T12:32:39Z</time>
      </trkpt>
      <trkpt lat="44.66025" lon="-0.30647">
        <ele>64.07</ele>
        <time>2013-06-08T12:32:54Z</time>
      </trkpt>
      <trkpt lat="44.66026" lon="-0.3065">
        <ele>63.58</ele>
        <time>2013-06-08T12:32:56Z</time>
      </trkpt>
      <trkpt lat="44.66034" lon="-0.30682">
        <ele>64.55</ele>
        <time>2013-06-08T12:33:15Z</time>
      </trkpt>
      <trkpt lat="44.6603" lon="-0.30724">
        <ele>65.99</ele>
        <time>2013-06-08T12:33:35Z</time>
      </trkpt>
      <trkpt lat="44.66024" lon="-0.30744">
        <ele>65.99</ele>
        <time>2013-06-08T12:33:46Z</time>
      </trkpt>
      <trkpt lat="44.66019" lon="-0.30746">
        <ele>66.47</ele>
        <time>2013-06-08T12:33:50Z</time>
      </trkpt>
      <trkpt lat="44.66011" lon="-0.30774">
        <ele>67.43</ele>
        <time>2013-06-08T12:34:07Z</time>
      </trkpt>
      <trkpt lat="44.66009" lon="-0.3078">
        <ele>67.43</ele>
        <time>2013-06-08T12:34:11Z</time>
      </trkpt>
      <trkpt lat="44.66004" lon="-0.30781">
        <ele>67.91</ele>
        <time>2013-06-08T12:34:15Z</time>
      </trkpt>
      <trkpt lat="44.66001" lon="-0.3078">
        <ele>68.87</ele>
        <time>2013-06-08T12:34:17Z</time>
      </trkpt>
      <trkpt lat="44.65982" lon="-0.30775">
        <ele>71.27</ele>
        <time>2013-06-08T12:34:33Z</time>
      </trkpt>
      <trkpt lat="44.65959" lon="-0.30767">
        <ele>73.68</ele>
        <time>2013-06-08T12:34:51Z</time>
      </trkpt>
      <trkpt lat="44.65952" lon="-0.30765">
        <ele>74.64</ele>
        <time>2013-06-08T12:34:58Z</time>
      </trkpt>
      <trkpt lat="44.65951" lon="-0.30767">
        <ele>74.64</ele>
        <time>2013-06-08T12:35:00Z</time>
      </trkpt>
      <trkpt lat="44.65938" lon="-0.30785">
        <ele>75.6</ele>
        <time>2013-06-08T12:35:17Z</time>
      </trkpt>
      <trkpt lat="44.65924" lon="-0.30808">
        <ele>78.48</ele>
        <time>2013-06-08T12:35:36Z</time>
      </trkpt>
      <trkpt lat="44.65915" lon="-0.30837">
        <ele>79.45</ele>
        <time>2013-06-08T12:35:56Z</time>
      </trkpt>
      <trkpt lat="44.65911" lon="-0.30866">
        <ele>80.41</ele>
        <time>2013-06-08T12:36:13Z</time>
      </trkpt>
      <trkpt lat="44.65904" lon="-0.30895">
        <ele>81.85</ele>
        <time>2013-06-08T12:36:30Z</time>
      </trkpt>
      <trkpt lat="44.65893" lon="-0.30931">
        <ele>79.93</ele>
        <time>2013-06-08T12:36:51Z</time>
      </trkpt>
      <trkpt lat="44.65881" lon="-0.30963">
        <ele>80.89</ele>
        <time>2013-06-08T12:37:10Z</time>
      </trkpt>
      <trkpt lat="44.65872" lon="-0.30997">
        <ele>80.41</ele>
        <time>2013-06-08T12:37:29Z</time>
      </trkpt>
      <trkpt lat="44.65861" lon="-0.31028">
        <ele>81.85</ele>
        <time>2013-06-08T12:37:47Z</time>
      </trkpt>
      <trkpt lat="44.65852" lon="-0.31058">
        <ele>82.33</ele>
        <time>2013-06-08T12:38:05Z</time>
      </trkpt>
      <trkpt lat="44.65843" lon="-0.31081">
        <ele>84.73</ele>
        <time>2013-06-08T12:38:21Z</time>
      </trkpt>
      <trkpt lat="44.65835" lon="-0.31104">
        <ele>87.14</ele>
        <time>2013-06-08T12:38:38Z</time>
      </trkpt>
      <trkpt lat="44.65836" lon="-0.31112">
        <ele>88.1</ele>
        <time>2013-06-08T12:38:52Z</time>
      </trkpt>
      <trkpt lat="44.65837" lon="-0.31113">
        <ele>88.1</ele>
        <time>2013-06-08T12:38:54Z</time>
      </trkpt>
      <trkpt lat="44.65856" lon="-0.31124">
        <ele>89.06</ele>
        <time>2013-06-08T12:39:14Z</time>
      </trkpt>
      <trkpt lat="44.65857" lon="-0.31127">
        <ele>90.5</ele>
        <time>2013-06-08T12:39:17Z</time>
      </trkpt>
      <trkpt lat="44.65849" lon="-0.3116">
        <ele>90.98</ele>
        <time>2013-06-08T12:39:35Z</time>
      </trkpt>
      <trkpt lat="44.65848" lon="-0.31166">
        <ele>90.98</ele>
        <time>2013-06-08T12:39:38Z</time>
      </trkpt>
      <trkpt lat="44.65845" lon="-0.31173">
        <ele>90.5</ele>
        <time>2013-06-08T12:39:43Z</time>
      </trkpt>
      <trkpt lat="44.6583" lon="-0.3119">
        <ele>87.62</ele>
        <time>2013-06-08T12:39:59Z</time>
      </trkpt>
      <trkpt lat="44.65813" lon="-0.31196">
        <ele>85.69</ele>
        <time>2013-06-08T12:40:13Z</time>
      </trkpt>
      <trkpt lat="44.65812" lon="-0.31198">
        <ele>84.25</ele>
        <time>2013-06-08T12:40:15Z</time>
      </trkpt>
      <trkpt lat="44.658" lon="-0.31195">
        <ele>81.85</ele>
        <time>2013-06-08T12:40:25Z</time>
      </trkpt>
      <trkpt lat="44.65787" lon="-0.31186">
        <ele>78.48</ele>
        <time>2013-06-08T12:40:38Z</time>
      </trkpt>
      <trkpt lat="44.65786" lon="-0.31185">
        <ele>78.48</ele>
        <time>2013-06-08T12:40:39Z</time>
      </trkpt>
      <trkpt lat="44.6577" lon="-0.31174">
        <ele>75.12</ele>
        <time>2013-06-08T12:40:55Z</time>
      </trkpt>
      <trkpt lat="44.65756" lon="-0.3117">
        <ele>72.72</ele>
        <time>2013-06-08T12:41:10Z</time>
      </trkpt>
      <trkpt lat="44.65745" lon="-0.31184">
        <ele>72.24</ele>
        <time>2013-06-08T12:41:24Z</time>
      </trkpt>
      <trkpt lat="44.65737" lon="-0.31216">
        <ele>72.24</ele>
        <time>2013-06-08T12:41:43Z</time>
      </trkpt>
      <trkpt lat="44.65736" lon="-0.31218">
        <ele>72.72</ele>
        <time>2013-06-08T12:41:44Z</time>
      </trkpt>
      <trkpt lat="44.65726" lon="-0.31247">
        <ele>73.68</ele>
        <time>2013-06-08T12:42:03Z</time>
      </trkpt>
      <trkpt lat="44.65716" lon="-0.31275">
        <ele>74.64</ele>
        <time>2013-06-08T12:42:21Z</time>
      </trkpt>
      <trkpt lat="44.65705" lon="-0.31303">
        <ele>75.6</ele>
        <time>2013-06-08T12:42:40Z</time>
      </trkpt>
      <trkpt lat="44.65688" lon="-0.31321">
        <ele>75.12</ele>
        <time>2013-06-08T12:42:57Z</time>
      </trkpt>
      <trkpt lat="44.65667" lon="-0.3134">
        <ele>73.68</ele>
        <time>2013-06-08T12:43:16Z</time>
      </trkpt>
      <trkpt lat="44.6565" lon="-0.31356">
        <ele>69.83</ele>
        <time>2013-06-08T12:43:32Z</time>
      </trkpt>
      <trkpt lat="44.6563" lon="-0.31369">
        <ele>67.43</ele>
        <time>2013-06-08T12:43:50Z</time>
      </trkpt>
      <trkpt lat="44.65628" lon="-0.3137">
        <ele>66.95</ele>
        <time>2013-06-08T12:43:52Z</time>
      </trkpt>
      <trkpt lat="44.65608" lon="-0.31372">
        <ele>63.58</ele>
        <time>2013-06-08T12:44:08Z</time>
      </trkpt>
      <trkpt lat="44.65593" lon="-0.31389">
        <ele>61.66</ele>
        <time>2013-06-08T12:44:25Z</time>
      </trkpt>
      <trkpt lat="44.65576" lon="-0.31408">
        <ele>60.22</ele>
        <time>2013-06-08T12:44:42Z</time>
      </trkpt>
      <trkpt lat="44.6556" lon="-0.31423">
        <ele>57.82</ele>
        <time>2013-06-08T12:44:58Z</time>
      </trkpt>
      <trkpt lat="44.65559" lon="-0.31424">
        <ele>58.3</ele>
        <time>2013-06-08T12:44:59Z</time>
      </trkpt>
      <trkpt lat="44.65546" lon="-0.31439">
        <ele>55.89</ele>
        <time>2013-06-08T12:45:14Z</time>
      </trkpt>
      <trkpt lat="44.6553" lon="-0.31457">
        <ele>53.49</ele>
        <time>2013-06-08T12:45:31Z</time>
      </trkpt>
      <trkpt lat="44.65524" lon="-0.31463">
        <ele>52.53</ele>
        <time>2013-06-08T12:45:38Z</time>
      </trkpt>
      <trkpt lat="44.65508" lon="-0.31478">
        <ele>49.65</ele>
        <time>2013-06-08T12:45:54Z</time>
      </trkpt>
      <trkpt lat="44.65502" lon="-0.31487">
        <ele>48.2</ele>
        <time>2013-06-08T12:46:03Z</time>
      </trkpt>
      <trkpt lat="44.65492" lon="-0.31503">
        <ele>45.32</ele>
        <time>2013-06-08T12:46:15Z</time>
      </trkpt>
      <trkpt lat="44.65476" lon="-0.3152">
        <ele>42.92</ele>
        <time>2013-06-08T12:46:32Z</time>
      </trkpt>
      <trkpt lat="44.65468" lon="-0.31529">
        <ele>40.51</ele>
        <time>2013-06-08T12:46:41Z</time>
      </trkpt>
      <trkpt lat="44.65454" lon="-0.31543">
        <ele>38.59</ele>
        <time>2013-06-08T12:46:55Z</time>
      </trkpt>
      <trkpt lat="44.65437" lon="-0.31567">
        <ele>38.11</ele>
        <time>2013-06-08T12:47:14Z</time>
      </trkpt>
      <trkpt lat="44.65419" lon="-0.31588">
        <ele>39.55</ele>
        <time>2013-06-08T12:47:32Z</time>
      </trkpt>
      <trkpt lat="44.65407" lon="-0.31607">
        <ele>40.99</ele>
        <time>2013-06-08T12:47:48Z</time>
      </trkpt>
      <trkpt lat="44.65398" lon="-0.31625">
        <ele>43.4</ele>
        <time>2013-06-08T12:48:03Z</time>
      </trkpt>
      <trkpt lat="44.65388" lon="-0.31644">
        <ele>45.8</ele>
        <time>2013-06-08T12:48:20Z</time>
      </trkpt>
      <trkpt lat="44.65379" lon="-0.31661">
        <ele>47.72</ele>
        <time>2013-06-08T12:48:38Z</time>
      </trkpt>
      <trkpt lat="44.65369" lon="-0.31681">
        <ele>50.13</ele>
        <time>2013-06-08T12:48:54Z</time>
      </trkpt>
      <trkpt lat="44.65367" lon="-0.31684">
        <ele>50.61</ele>
        <time>2013-06-08T12:48:57Z</time>
      </trkpt>
      <trkpt lat="44.65362" lon="-0.31683">
        <ele>51.09</ele>
        <time>2013-06-08T12:49:01Z</time>
      </trkpt>
      <trkpt lat="44.65351" lon="-0.31678">
        <ele>51.09</ele>
        <time>2013-06-08T12:49:10Z</time>
      </trkpt>
      <trkpt lat="44.65342" lon="-0.31684">
        <ele>50.13</ele>
        <time>2013-06-08T12:49:18Z</time>
      </trkpt>
      <trkpt lat="44.65318" lon="-0.31686">
        <ele>48.2</ele>
        <time>2013-06-08T12:49:37Z</time>
      </trkpt>
      <trkpt lat="44.65302" lon="-0.3171">
        <ele>47.72</ele>
        <time>2013-06-08T12:49:53Z</time>
      </trkpt>
      <trkpt lat="44.65288" lon="-0.31735">
        <ele>45.32</ele>
        <time>2013-06-08T12:50:12Z</time>
      </trkpt>
      <trkpt lat="44.6527" lon="-0.31759">
        <ele>43.88</ele>
        <time>2013-06-08T12:50:31Z</time>
      </trkpt>
      <trkpt lat="44.65255" lon="-0.31785">
        <ele>42.44</ele>
        <time>2013-06-08T12:50:49Z</time>
      </trkpt>
      <trkpt lat="44.65246" lon="-0.3182">
        <ele>40.51</ele>
        <time>2013-06-08T12:51:09Z</time>
      </trkpt>
      <trkpt lat="44.65236" lon="-0.31839">
        <ele>40.99</ele>
        <time>2013-06-08T12:51:23Z</time>
      </trkpt>
      <trkpt lat="44.6523" lon="-0.31848">
        <ele>40.03</ele>
        <time>2013-06-08T12:51:30Z</time>
      </trkpt>
      <trkpt lat="44.65215" lon="-0.31871">
        <ele>39.07</ele>
        <time>2013-06-08T12:51:49Z</time>
      </trkpt>
      <trkpt lat="44.65213" lon="-0.31873">
        <ele>39.07</ele>
        <time>2013-06-08T12:51:51Z</time>
      </trkpt>
      <trkpt lat="44.65197" lon="-0.31911">
        <ele>39.55</ele>
        <time>2013-06-08T12:52:11Z</time>
      </trkpt>
      <trkpt lat="44.65186" lon="-0.31937">
        <ele>39.07</ele>
        <time>2013-06-08T12:52:29Z</time>
      </trkpt>
      <trkpt lat="44.65184" lon="-0.3194">
        <ele>39.07</ele>
        <time>2013-06-08T12:52:32Z</time>
      </trkpt>
      <trkpt lat="44.6517" lon="-0.31968">
        <ele>37.63</ele>
        <time>2013-06-08T12:52:51Z</time>
      </trkpt>
      <trkpt lat="44.65154" lon="-0.31995">
        <ele>35.71</ele>
        <time>2013-06-08T12:53:09Z</time>
      </trkpt>
      <trkpt lat="44.65152" lon="-0.31996">
        <ele>34.26</ele>
        <time>2013-06-08T12:53:25Z</time>
      </trkpt>
      <trkpt lat="44.65153" lon="-0.31997">
        <ele>35.23</ele>
        <time>2013-06-08T12:53:28Z</time>
      </trkpt>
      <trkpt lat="44.65166" lon="-0.32019">
        <ele>34.74</ele>
        <time>2013-06-08T12:53:46Z</time>
      </trkpt>
      <trkpt lat="44.6518" lon="-0.32048">
        <ele>36.19</ele>
        <time>2013-06-08T12:54:06Z</time>
      </trkpt>
      <trkpt lat="44.65178" lon="-0.32063">
        <ele>35.23</ele>
        <time>2013-06-08T12:54:14Z</time>
      </trkpt>
      <trkpt lat="44.65159" lon="-0.32089">
        <ele>33.3</ele>
        <time>2013-06-08T12:54:30Z</time>
      </trkpt>
      <trkpt lat="44.65141" lon="-0.3211">
        <ele>32.34</ele>
        <time>2013-06-08T12:54:46Z</time>
      </trkpt>
      <trkpt lat="44.65124" lon="-0.32133">
        <ele>31.86</ele>
        <time>2013-06-08T12:55:02Z</time>
      </trkpt>
      <trkpt lat="44.65109" lon="-0.32154">
        <ele>29.94</ele>
        <time>2013-06-08T12:55:18Z</time>
      </trkpt>
      <trkpt lat="44.65102" lon="-0.32162">
        <ele>29.46</ele>
        <time>2013-06-08T12:55:25Z</time>
      </trkpt>
      <trkpt lat="44.65099" lon="-0.32169">
        <ele>28.98</ele>
        <time>2013-06-08T12:55:31Z</time>
      </trkpt>
      <trkpt lat="44.65096" lon="-0.32172">
        <ele>29.46</ele>
        <time>2013-06-08T12:55:34Z</time>
      </trkpt>
      <trkpt lat="44.65102" lon="-0.32202">
        <ele>28.02</ele>
        <time>2013-06-08T12:55:51Z</time>
      </trkpt>
      <trkpt lat="44.65106" lon="-0.32231">
        <ele>28.02</ele>
        <time>2013-06-08T12:56:07Z</time>
      </trkpt>
      <trkpt lat="44.65114" lon="-0.32269">
        <ele>28.5</ele>
        <time>2013-06-08T12:56:27Z</time>
      </trkpt>
      <trkpt lat="44.65122" lon="-0.32309">
        <ele>28.5</ele>
        <time>2013-06-08T12:56:49Z</time>
      </trkpt>
      <trkpt lat="44.65127" lon="-0.3234">
        <ele>28.02</ele>
        <time>2013-06-08T12:57:06Z</time>
      </trkpt>
      <trkpt lat="44.65132" lon="-0.32377">
        <ele>28.02</ele>
        <time>2013-06-08T12:57:26Z</time>
      </trkpt>
      <trkpt lat="44.65138" lon="-0.32416">
        <ele>27.53</ele>
        <time>2013-06-08T12:57:47Z</time>
      </trkpt>
      <trkpt lat="44.65145" lon="-0.32464">
        <ele>27.53</ele>
        <time>2013-06-08T12:58:13Z</time>
      </trkpt>
      <trkpt lat="44.65148" lon="-0.32502">
        <ele>27.05</ele>
        <time>2013-06-08T12:58:33Z</time>
      </trkpt>
      <trkpt lat="44.65151" lon="-0.3252">
        <ele>27.05</ele>
        <time>2013-06-08T12:58:44Z</time>
      </trkpt>
      <trkpt lat="44.6515" lon="-0.32524">
        <ele>27.53</ele>
        <time>2013-06-08T12:58:47Z</time>
      </trkpt>
      <trkpt lat="44.65158" lon="-0.32536">
        <ele>27.53</ele>
        <time>2013-06-08T12:58:57Z</time>
      </trkpt>
      <trkpt lat="44.65161" lon="-0.3254">
        <ele>27.05</ele>
        <time>2013-06-08T12:59:00Z</time>
      </trkpt>
      <trkpt lat="44.65165" lon="-0.3255">
        <ele>27.05</ele>
        <time>2013-06-08T12:59:08Z</time>
      </trkpt>
      <trkpt lat="44.65162" lon="-0.32561">
        <ele>26.09</ele>
        <time>2013-06-08T12:59:15Z</time>
      </trkpt>
      <trkpt lat="44.65145" lon="-0.32583">
        <ele>26.09</ele>
        <time>2013-06-08T12:59:33Z</time>
      </trkpt>
      <trkpt lat="44.65139" lon="-0.32596">
        <ele>25.13</ele>
        <time>2013-06-08T12:59:43Z</time>
      </trkpt>
      <trkpt lat="44.65145" lon="-0.3262">
        <ele>25.13</ele>
        <time>2013-06-08T12:59:58Z</time>
      </trkpt>
      <trkpt lat="44.65158" lon="-0.32646">
        <ele>24.65</ele>
        <time>2013-06-08T13:00:16Z</time>
      </trkpt>
      <trkpt lat="44.6517" lon="-0.3268">
        <ele>23.69</ele>
        <time>2013-06-08T13:00:36Z</time>
      </trkpt>
      <trkpt lat="44.65171" lon="-0.32719">
        <ele>23.21</ele>
        <time>2013-06-08T13:00:57Z</time>
      </trkpt>
      <trkpt lat="44.65169" lon="-0.3276">
        <ele>23.21</ele>
        <time>2013-06-08T13:01:19Z</time>
      </trkpt>
      <trkpt lat="44.65167" lon="-0.32796">
        <ele>23.21</ele>
        <time>2013-06-08T13:01:40Z</time>
      </trkpt>
      <trkpt lat="44.65165" lon="-0.32828">
        <ele>22.25</ele>
        <time>2013-06-08T13:01:57Z</time>
      </trkpt>
      <trkpt lat="44.65163" lon="-0.32866">
        <ele>21.77</ele>
        <time>2013-06-08T13:02:18Z</time>
      </trkpt>
      <trkpt lat="44.65175" lon="-0.32898">
        <ele>21.29</ele>
        <time>2013-06-08T13:02:39Z</time>
      </trkpt>
      <trkpt lat="44.65185" lon="-0.32913">
        <ele>20.81</ele>
        <time>2013-06-08T13:02:51Z</time>
      </trkpt>
      <trkpt lat="44.65173" lon="-0.32937">
        <ele>20.81</ele>
        <time>2013-06-08T13:03:08Z</time>
      </trkpt>
      <trkpt lat="44.65156" lon="-0.32959">
        <ele>20.81</ele>
        <time>2013-06-08T13:03:25Z</time>
      </trkpt>
      <trkpt lat="44.65139" lon="-0.32983">
        <ele>19.84</ele>
        <time>2013-06-08T13:03:43Z</time>
      </trkpt>
      <trkpt lat="44.65124" lon="-0.33008">
        <ele>18.88</ele>
        <time>2013-06-08T13:04:02Z</time>
      </trkpt>
      <trkpt lat="44.6511" lon="-0.33029">
        <ele>20.32</ele>
        <time>2013-06-08T13:04:19Z</time>
      </trkpt>
      <trkpt lat="44.6509" lon="-0.33057">
        <ele>19.84</ele>
        <time>2013-06-08T13:04:39Z</time>
      </trkpt>
      <trkpt lat="44.65074" lon="-0.33081">
        <ele>19.84</ele>
        <time>2013-06-08T13:04:57Z</time>
      </trkpt>
      <trkpt lat="44.6506" lon="-0.33101">
        <ele>20.32</ele>
        <time>2013-06-08T13:05:14Z</time>
      </trkpt>
      <trkpt lat="44.65046" lon="-0.33121">
        <ele>20.32</ele>
        <time>2013-06-08T13:05:30Z</time>
      </trkpt>
      <trkpt lat="44.65039" lon="-0.33135">
        <ele>20.32</ele>
        <time>2013-06-08T13:05:41Z</time>
      </trkpt>
      <trkpt lat="44.65044" lon="-0.33145">
        <ele>19.84</ele>
        <time>2013-06-08T13:05:49Z</time>
      </trkpt>
      <trkpt lat="44.65045" lon="-0.33148">
        <ele>19.84</ele>
        <time>2013-06-08T13:05:51Z</time>
      </trkpt>
      <trkpt lat="44.65034" lon="-0.33148">
        <ele>20.81</ele>
        <time>2013-06-08T13:06:00Z</time>
      </trkpt>
      <trkpt lat="44.65012" lon="-0.33138">
        <ele>19.84</ele>
        <time>2013-06-08T13:06:16Z</time>
      </trkpt>
      <trkpt lat="44.65007" lon="-0.33137">
        <ele>19.84</ele>
        <time>2013-06-08T13:06:20Z</time>
      </trkpt>
      <trkpt lat="44.64991" lon="-0.33158">
        <ele>19.36</ele>
        <time>2013-06-08T13:06:37Z</time>
      </trkpt>
      <trkpt lat="44.64979" lon="-0.33181">
        <ele>18.4</ele>
        <time>2013-06-08T13:06:53Z</time>
      </trkpt>
      <trkpt lat="44.64963" lon="-0.33214">
        <ele>17.92</ele>
        <time>2013-06-08T13:07:13Z</time>
      </trkpt>
      <trkpt lat="44.6496" lon="-0.33221">
        <ele>17.44</ele>
        <time>2013-06-08T13:07:17Z</time>
      </trkpt>
      <trkpt lat="44.64949" lon="-0.33241">
        <ele>16.96</ele>
        <time>2013-06-08T13:07:29Z</time>
      </trkpt>
      <trkpt lat="44.64933" lon="-0.33274">
        <ele>16.48</ele>
        <time>2013-06-08T13:07:47Z</time>
      </trkpt>
      <trkpt lat="44.64918" lon="-0.33308">
        <ele>16.96</ele>
        <time>2013-06-08T13:08:05Z</time>
      </trkpt>
      <trkpt lat="44.64904" lon="-0.33339">
        <ele>16.48</ele>
        <time>2013-06-08T13:08:21Z</time>
      </trkpt>
      <trkpt lat="44.64889" lon="-0.33368">
        <ele>15.52</ele>
        <time>2013-06-08T13:08:38Z</time>
      </trkpt>
      <trkpt lat="44.64876" lon="-0.33393">
        <ele>15.52</ele>
        <time>2013-06-08T13:08:52Z</time>
      </trkpt>
      <trkpt lat="44.64865" lon="-0.3342">
        <ele>16</ele>
        <time>2013-06-08T13:09:07Z</time>
      </trkpt>
      <trkpt lat="44.6485" lon="-0.33449">
        <ele>15.52</ele>
        <time>2013-06-08T13:09:23Z</time>
      </trkpt>
      <trkpt lat="44.64841" lon="-0.33474">
        <ele>15.52</ele>
        <time>2013-06-08T13:09:36Z</time>
      </trkpt>
      <trkpt lat="44.64834" lon="-0.33488">
        <ele>16.48</ele>
        <time>2013-06-08T13:09:44Z</time>
      </trkpt>
      <trkpt lat="44.64821" lon="-0.33517">
        <ele>15.52</ele>
        <time>2013-06-08T13:10:00Z</time>
      </trkpt>
      <trkpt lat="44.64813" lon="-0.33533">
        <ele>15.52</ele>
        <time>2013-06-08T13:10:09Z</time>
      </trkpt>
      <trkpt lat="44.64804" lon="-0.33552">
        <ele>14.56</ele>
        <time>2013-06-08T13:10:19Z</time>
      </trkpt>
      <trkpt lat="44.64789" lon="-0.33582">
        <ele>14.08</ele>
        <time>2013-06-08T13:10:35Z</time>
      </trkpt>
      <trkpt lat="44.64777" lon="-0.3361">
        <ele>13.12</ele>
        <time>2013-06-08T13:10:51Z</time>
      </trkpt>
      <trkpt lat="44.6476" lon="-0.33646">
        <ele>12.63</ele>
        <time>2013-06-08T13:11:10Z</time>
      </trkpt>
      <trkpt lat="44.64747" lon="-0.33676">
        <ele>11.67</ele>
        <time>2013-06-08T13:11:26Z</time>
      </trkpt>
      <trkpt lat="44.64731" lon="-0.33716">
        <ele>10.23</ele>
        <time>2013-06-08T13:11:47Z</time>
      </trkpt>
      <trkpt lat="44.64716" lon="-0.33753">
        <ele>9.27</ele>
        <time>2013-06-08T13:12:07Z</time>
      </trkpt>
      <trkpt lat="44.64705" lon="-0.33787">
        <ele>8.79</ele>
        <time>2013-06-08T13:12:25Z</time>
      </trkpt>
      <trkpt lat="44.64692" lon="-0.33821">
        <ele>8.79</ele>
        <time>2013-06-08T13:12:43Z</time>
      </trkpt>
      <trkpt lat="44.64681" lon="-0.3385">
        <ele>9.27</ele>
        <time>2013-06-08T13:12:59Z</time>
      </trkpt>
      <trkpt lat="44.6467" lon="-0.33886">
        <ele>8.79</ele>
        <time>2013-06-08T13:13:17Z</time>
      </trkpt>
      <trkpt lat="44.64662" lon="-0.33912">
        <ele>8.79</ele>
        <time>2013-06-08T13:13:31Z</time>
      </trkpt>
      <trkpt lat="44.64653" lon="-0.33949">
        <ele>8.31</ele>
        <time>2013-06-08T13:13:50Z</time>
      </trkpt>
      <trkpt lat="44.64644" lon="-0.33982">
        <ele>9.27</ele>
        <time>2013-06-08T13:14:07Z</time>
      </trkpt>
      <trkpt lat="44.64636" lon="-0.3402">
        <ele>8.31</ele>
        <time>2013-06-08T13:14:25Z</time>
      </trkpt>
      <trkpt lat="44.64625" lon="-0.34065">
        <ele>8.31</ele>
        <time>2013-06-08T13:14:48Z</time>
      </trkpt>
      <trkpt lat="44.64612" lon="-0.34107">
        <ele>7.83</ele>
        <time>2013-06-08T13:15:10Z</time>
      </trkpt>
      <trkpt lat="44.64602" lon="-0.3415">
        <ele>7.35</ele>
        <time>2013-06-08T13:15:32Z</time>
      </trkpt>
      <trkpt lat="44.64592" lon="-0.34192">
        <ele>7.35</ele>
        <time>2013-06-08T13:15:54Z</time>
      </trkpt>
      <trkpt lat="44.64589" lon="-0.34206">
        <ele>7.83</ele>
        <time>2013-06-08T13:16:02Z</time>
      </trkpt>
      <trkpt lat="44.64597" lon="-0.34215">
        <ele>6.87</ele>
        <time>2013-06-08T13:16:16Z</time>
      </trkpt>
      <trkpt lat="44.64597" lon="-0.34214">
        <ele>7.35</ele>
        <time>2013-06-08T13:16:26Z</time>
      </trkpt>
      <trkpt lat="44.64601" lon="-0.34221">
        <ele>6.87</ele>
        <time>2013-06-08T13:16:31Z</time>
      </trkpt>
      <trkpt lat="44.64617" lon="-0.34246">
        <ele>4.94</ele>
        <time>2013-06-08T13:16:47Z</time>
      </trkpt>
      <trkpt lat="44.64631" lon="-0.34267">
        <ele>4.46</ele>
        <time>2013-06-08T13:17:00Z</time>
      </trkpt>
      <trkpt lat="44.64646" lon="-0.34291">
        <ele>4.46</ele>
        <time>2013-06-08T13:17:15Z</time>
      </trkpt>
      <trkpt lat="44.64658" lon="-0.34324">
        <ele>4.94</ele>
        <time>2013-06-08T13:17:32Z</time>
      </trkpt>
      <trkpt lat="44.64673" lon="-0.34352">
        <ele>5.42</ele>
        <time>2013-06-08T13:17:49Z</time>
      </trkpt>
      <trkpt lat="44.64674" lon="-0.34353">
        <ele>5.91</ele>
        <time>2013-06-08T13:17:50Z</time>
      </trkpt>
      <trkpt lat="44.64678" lon="-0.34366">
        <ele>5.91</ele>
        <time>2013-06-08T13:17:58Z</time>
      </trkpt>
      <trkpt lat="44.64683" lon="-0.34377">
        <ele>5.42</ele>
        <time>2013-06-08T13:18:05Z</time>
      </trkpt>
      <trkpt lat="44.64685" lon="-0.34379">
        <ele>5.42</ele>
        <time>2013-06-08T13:18:07Z</time>
      </trkpt>
      <trkpt lat="44.64698" lon="-0.34405">
        <ele>5.91</ele>
        <time>2013-06-08T13:18:23Z</time>
      </trkpt>
      <trkpt lat="44.64712" lon="-0.3443">
        <ele>4.94</ele>
        <time>2013-06-08T13:18:38Z</time>
      </trkpt>
      <trkpt lat="44.64724" lon="-0.34452">
        <ele>4.46</ele>
        <time>2013-06-08T13:18:53Z</time>
      </trkpt>
      <trkpt lat="44.64725" lon="-0.34454">
        <ele>4.46</ele>
        <time>2013-06-08T13:18:55Z</time>
      </trkpt>
      <trkpt lat="44.6474" lon="-0.3448">
        <ele>4.46</ele>
        <time>2013-06-08T13:19:11Z</time>
      </trkpt>
      <trkpt lat="44.64752" lon="-0.34505">
        <ele>4.46</ele>
        <time>2013-06-08T13:19:27Z</time>
      </trkpt>
      <trkpt lat="44.64764" lon="-0.34545">
        <ele>5.91</ele>
        <time>2013-06-08T13:19:48Z</time>
      </trkpt>
      <trkpt lat="44.64779" lon="-0.34568">
        <ele>5.42</ele>
        <time>2013-06-08T13:20:04Z</time>
      </trkpt>
      <trkpt lat="44.64793" lon="-0.34594">
        <ele>4.46</ele>
        <time>2013-06-08T13:20:20Z</time>
      </trkpt>
      <trkpt lat="44.64806" lon="-0.34624">
        <ele>4.94</ele>
        <time>2013-06-08T13:20:38Z</time>
      </trkpt>
      <trkpt lat="44.64819" lon="-0.34652">
        <ele>4.46</ele>
        <time>2013-06-08T13:20:55Z</time>
      </trkpt>
      <trkpt lat="44.64826" lon="-0.34664">
        <ele>3.98</ele>
        <time>2013-06-08T13:21:03Z</time>
      </trkpt>
      <trkpt lat="44.6483" lon="-0.34669">
        <ele>3.98</ele>
        <time>2013-06-08T13:21:07Z</time>
      </trkpt>
      <trkpt lat="44.6485" lon="-0.34696">
        <ele>4.46</ele>
        <time>2013-06-08T13:21:26Z</time>
      </trkpt>
      <trkpt lat="44.64863" lon="-0.34726">
        <ele>4.94</ele>
        <time>2013-06-08T13:21:44Z</time>
      </trkpt>
      <trkpt lat="44.64875" lon="-0.34752">
        <ele>5.42</ele>
        <time>2013-06-08T13:21:59Z</time>
      </trkpt>
      <trkpt lat="44.64876" lon="-0.34755">
        <ele>4.94</ele>
        <time>2013-06-08T13:22:01Z</time>
      </trkpt>
      <trkpt lat="44.64895" lon="-0.3478">
        <ele>5.42</ele>
        <time>2013-06-08T13:22:18Z</time>
      </trkpt>
      <trkpt lat="44.64917" lon="-0.34814">
        <ele>4.94</ele>
        <time>2013-06-08T13:22:39Z</time>
      </trkpt>
      <trkpt lat="44.64921" lon="-0.34818">
        <ele>5.42</ele>
        <time>2013-06-08T13:22:42Z</time>
      </trkpt>
      <trkpt lat="44.64923" lon="-0.34821">
        <ele>4.94</ele>
        <time>2013-06-08T13:22:45Z</time>
      </trkpt>
      <trkpt lat="44.64945" lon="-0.34838">
        <ele>5.42</ele>
        <time>2013-06-08T13:23:01Z</time>
      </trkpt>
      <trkpt lat="44.64964" lon="-0.34867">
        <ele>5.42</ele>
        <time>2013-06-08T13:23:20Z</time>
      </trkpt>
      <trkpt lat="44.64977" lon="-0.3489">
        <ele>5.42</ele>
        <time>2013-06-08T13:23:35Z</time>
      </trkpt>
      <trkpt lat="44.64991" lon="-0.34919">
        <ele>5.91</ele>
        <time>2013-06-08T13:23:53Z</time>
      </trkpt>
      <trkpt lat="44.65006" lon="-0.34946">
        <ele>6.87</ele>
        <time>2013-06-08T13:24:09Z</time>
      </trkpt>
      <trkpt lat="44.65024" lon="-0.34973">
        <ele>6.87</ele>
        <time>2013-06-08T13:24:27Z</time>
      </trkpt>
      <trkpt lat="44.65041" lon="-0.34994">
        <ele>6.87</ele>
        <time>2013-06-08T13:24:41Z</time>
      </trkpt>
      <trkpt lat="44.65052" lon="-0.35023">
        <ele>6.87</ele>
        <time>2013-06-08T13:24:59Z</time>
      </trkpt>
      <trkpt lat="44.65065" lon="-0.3506">
        <ele>7.35</ele>
        <time>2013-06-08T13:25:20Z</time>
      </trkpt>
      <trkpt lat="44.65085" lon="-0.35091">
        <ele>7.35</ele>
        <time>2013-06-08T13:25:42Z</time>
      </trkpt>
      <trkpt lat="44.65103" lon="-0.3512">
        <ele>7.83</ele>
        <time>2013-06-08T13:26:01Z</time>
      </trkpt>
      <trkpt lat="44.65121" lon="-0.35152">
        <ele>7.83</ele>
        <time>2013-06-08T13:26:20Z</time>
      </trkpt>
      <trkpt lat="44.65141" lon="-0.35175">
        <ele>7.35</ele>
        <time>2013-06-08T13:26:38Z</time>
      </trkpt>
      <trkpt lat="44.65169" lon="-0.35204">
        <ele>7.35</ele>
        <time>2013-06-08T13:27:01Z</time>
      </trkpt>
      <trkpt lat="44.65187" lon="-0.35226">
        <ele>6.87</ele>
        <time>2013-06-08T13:27:18Z</time>
      </trkpt>
      <trkpt lat="44.652" lon="-0.35246">
        <ele>6.39</ele>
        <time>2013-06-08T13:27:31Z</time>
      </trkpt>
      <trkpt lat="44.65223" lon="-0.35264">
        <ele>6.39</ele>
        <time>2013-06-08T13:27:49Z</time>
      </trkpt>
      <trkpt lat="44.65248" lon="-0.35286">
        <ele>6.39</ele>
        <time>2013-06-08T13:28:09Z</time>
      </trkpt>
      <trkpt lat="44.65265" lon="-0.35305">
        <ele>6.87</ele>
        <time>2013-06-08T13:28:25Z</time>
      </trkpt>
      <trkpt lat="44.6529" lon="-0.35328">
        <ele>5.91</ele>
        <time>2013-06-08T13:28:45Z</time>
      </trkpt>
      <trkpt lat="44.6531" lon="-0.35353">
        <ele>6.39</ele>
        <time>2013-06-08T13:29:05Z</time>
      </trkpt>
      <trkpt lat="44.65329" lon="-0.35368">
        <ele>6.87</ele>
        <time>2013-06-08T13:29:21Z</time>
      </trkpt>
      <trkpt lat="44.6535" lon="-0.35391">
        <ele>6.39</ele>
        <time>2013-06-08T13:29:40Z</time>
      </trkpt>
      <trkpt lat="44.6537" lon="-0.35412">
        <ele>6.87</ele>
        <time>2013-06-08T13:29:58Z</time>
      </trkpt>
      <trkpt lat="44.65394" lon="-0.35436">
        <ele>5.91</ele>
        <time>2013-06-08T13:30:18Z</time>
      </trkpt>
      <trkpt lat="44.6542" lon="-0.3546">
        <ele>6.39</ele>
        <time>2013-06-08T13:30:39Z</time>
      </trkpt>
      <trkpt lat="44.65443" lon="-0.35482">
        <ele>6.39</ele>
        <time>2013-06-08T13:30:59Z</time>
      </trkpt>
      <trkpt lat="44.65464" lon="-0.35505">
        <ele>7.35</ele>
        <time>2013-06-08T13:31:19Z</time>
      </trkpt>
      <trkpt lat="44.65484" lon="-0.35532">
        <ele>7.83</ele>
        <time>2013-06-08T13:31:41Z</time>
      </trkpt>
      <trkpt lat="44.65498" lon="-0.35547">
        <ele>7.83</ele>
        <time>2013-06-08T13:31:55Z</time>
      </trkpt>
      <trkpt lat="44.65496" lon="-0.35567">
        <ele>8.31</ele>
        <time>2013-06-08T13:32:06Z</time>
      </trkpt>
      <trkpt lat="44.65479" lon="-0.35591">
        <ele>9.27</ele>
        <time>2013-06-08T13:32:24Z</time>
      </trkpt>
      <trkpt lat="44.6547" lon="-0.35605">
        <ele>8.79</ele>
        <time>2013-06-08T13:32:33Z</time>
      </trkpt>
      <trkpt lat="44.65449" lon="-0.35636">
        <ele>10.23</ele>
        <time>2013-06-08T13:32:53Z</time>
      </trkpt>
      <trkpt lat="44.65434" lon="-0.35656">
        <ele>9.75</ele>
        <time>2013-06-08T13:33:09Z</time>
      </trkpt>
      <trkpt lat="44.65421" lon="-0.35674">
        <ele>11.19</ele>
        <time>2013-06-08T13:33:26Z</time>
      </trkpt>
      <trkpt lat="44.65406" lon="-0.35691">
        <ele>10.23</ele>
        <time>2013-06-08T13:33:42Z</time>
      </trkpt>
      <trkpt lat="44.65404" lon="-0.35695">
        <ele>8</ele>
      </trkpt>
    </trkseg>
  </trk>
</gpx>